<?xml version="1.0" encoding="UTF-8" standalone="no" ?>
<gpx xmlns="http://www.topografix.com/GPX/1/1" xmlns:xsi="http://www.w3.org/2001/XMLSchema-instance" xsi:schemaLocation="http://www.topografix.com/GPX/1/1 http://www.topografix.com/GPX/1/1/gpx.xsd" version="1.1" creator="VisuGPX - https://www.visugpx.com">
  <metadata>
    <name>signal de bassia</name>
    <desc><![CDATA[une jolie boucle qui passe par le signal de bassia]]></desc>
  </metadata>
  <trk>
    <name><![CDATA[11 déc. 2018]]></name>
    <cmt><![CDATA[09:26:42]]></cmt>
    <desc><![CDATA[comment ...]]></desc>
    <trkseg>
      <trkpt lat="42.96302" lon="0.30978">
        <ele>1426</ele>
        <time>2018-12-11T08:26:43Z</time>
      </trkpt>
      <trkpt lat="42.96302" lon="0.30978">
        <ele>1426</ele>
        <time>2018-12-11T08:26:44Z</time>
      </trkpt>
      <trkpt lat="42.96299" lon="0.3097">
        <ele>1428</ele>
        <time>2018-12-11T08:26:48Z</time>
      </trkpt>
      <trkpt lat="42.96298" lon="0.3097">
        <ele>1429</ele>
        <time>2018-12-11T08:30:49Z</time>
      </trkpt>
      <trkpt lat="42.96299" lon="0.30969">
        <ele>1429</ele>
        <time>2018-12-11T08:32:25Z</time>
      </trkpt>
      <trkpt lat="42.963" lon="0.30967">
        <ele>1429</ele>
        <time>2018-12-11T08:33:29Z</time>
      </trkpt>
      <trkpt lat="42.96301" lon="0.30968">
        <ele>1432</ele>
        <time>2018-12-11T08:34:13Z</time>
      </trkpt>
      <trkpt lat="42.96302" lon="0.3097">
        <ele>1433</ele>
        <time>2018-12-11T08:35:38Z</time>
      </trkpt>
      <trkpt lat="42.96306" lon="0.30972">
        <ele>1434</ele>
        <time>2018-12-11T08:35:42Z</time>
      </trkpt>
      <trkpt lat="42.96315" lon="0.30981">
        <ele>1434</ele>
        <time>2018-12-11T08:35:53Z</time>
      </trkpt>
      <trkpt lat="42.96316" lon="0.30984">
        <ele>1434</ele>
        <time>2018-12-11T08:35:56Z</time>
      </trkpt>
      <trkpt lat="42.96324" lon="0.30988">
        <ele>1434</ele>
        <time>2018-12-11T08:36:05Z</time>
      </trkpt>
      <trkpt lat="42.96326" lon="0.30988">
        <ele>1434</ele>
        <time>2018-12-11T08:36:07Z</time>
      </trkpt>
      <trkpt lat="42.96333" lon="0.30992">
        <ele>1434</ele>
        <time>2018-12-11T08:36:14Z</time>
      </trkpt>
      <trkpt lat="42.96335" lon="0.30992">
        <ele>1434</ele>
        <time>2018-12-11T08:36:16Z</time>
      </trkpt>
      <trkpt lat="42.96353" lon="0.31002">
        <ele>1434</ele>
        <time>2018-12-11T08:36:36Z</time>
      </trkpt>
      <trkpt lat="42.96357" lon="0.31006">
        <ele>1435</ele>
        <time>2018-12-11T08:36:41Z</time>
      </trkpt>
      <trkpt lat="42.96364" lon="0.31011">
        <ele>1435</ele>
        <time>2018-12-11T08:36:53Z</time>
      </trkpt>
      <trkpt lat="42.96365" lon="0.31013">
        <ele>1435</ele>
        <time>2018-12-11T08:36:56Z</time>
      </trkpt>
      <trkpt lat="42.96373" lon="0.31018">
        <ele>1436</ele>
        <time>2018-12-11T08:37:09Z</time>
      </trkpt>
      <trkpt lat="42.96375" lon="0.3102">
        <ele>1436</ele>
        <time>2018-12-11T08:37:12Z</time>
      </trkpt>
      <trkpt lat="42.96377" lon="0.31022">
        <ele>1436</ele>
        <time>2018-12-11T08:37:15Z</time>
      </trkpt>
      <trkpt lat="42.96379" lon="0.31025">
        <ele>1436</ele>
        <time>2018-12-11T08:37:18Z</time>
      </trkpt>
      <trkpt lat="42.96391" lon="0.31037">
        <ele>1438</ele>
        <time>2018-12-11T08:37:39Z</time>
      </trkpt>
      <trkpt lat="42.96395" lon="0.3104">
        <ele>1438</ele>
        <time>2018-12-11T08:37:45Z</time>
      </trkpt>
      <trkpt lat="42.964" lon="0.31045">
        <ele>1439</ele>
        <time>2018-12-11T08:37:55Z</time>
      </trkpt>
      <trkpt lat="42.96404" lon="0.31047">
        <ele>1439</ele>
        <time>2018-12-11T08:38:00Z</time>
      </trkpt>
      <trkpt lat="42.9641" lon="0.31053">
        <ele>1440</ele>
        <time>2018-12-11T08:38:10Z</time>
      </trkpt>
      <trkpt lat="42.96411" lon="0.31055">
        <ele>1440</ele>
        <time>2018-12-11T08:38:13Z</time>
      </trkpt>
      <trkpt lat="42.96415" lon="0.31062">
        <ele>1441</ele>
        <time>2018-12-11T08:38:21Z</time>
      </trkpt>
      <trkpt lat="42.96423" lon="0.31068">
        <ele>1442</ele>
        <time>2018-12-11T08:38:35Z</time>
      </trkpt>
      <trkpt lat="42.96428" lon="0.31074">
        <ele>1442</ele>
        <time>2018-12-11T08:38:45Z</time>
      </trkpt>
      <trkpt lat="42.9643" lon="0.31076">
        <ele>1442</ele>
        <time>2018-12-11T08:38:50Z</time>
      </trkpt>
      <trkpt lat="42.96436" lon="0.31081">
        <ele>1443</ele>
        <time>2018-12-11T08:39:01Z</time>
      </trkpt>
      <trkpt lat="42.96439" lon="0.31085">
        <ele>1444</ele>
        <time>2018-12-11T08:39:09Z</time>
      </trkpt>
      <trkpt lat="42.96441" lon="0.31087">
        <ele>1444</ele>
        <time>2018-12-11T08:39:12Z</time>
      </trkpt>
      <trkpt lat="42.96443" lon="0.31088">
        <ele>1444</ele>
        <time>2018-12-11T08:39:15Z</time>
      </trkpt>
      <trkpt lat="42.96443" lon="0.31091">
        <ele>1445</ele>
        <time>2018-12-11T08:39:20Z</time>
      </trkpt>
      <trkpt lat="42.96448" lon="0.31098">
        <ele>1446</ele>
        <time>2018-12-11T08:39:30Z</time>
      </trkpt>
      <trkpt lat="42.96451" lon="0.31104">
        <ele>1446</ele>
        <time>2018-12-11T08:39:40Z</time>
      </trkpt>
      <trkpt lat="42.96452" lon="0.31107">
        <ele>1447</ele>
        <time>2018-12-11T08:39:44Z</time>
      </trkpt>
      <trkpt lat="42.96454" lon="0.31112">
        <ele>1447</ele>
        <time>2018-12-11T08:39:51Z</time>
      </trkpt>
      <trkpt lat="42.96457" lon="0.31115">
        <ele>1448</ele>
        <time>2018-12-11T08:39:56Z</time>
      </trkpt>
      <trkpt lat="42.96458" lon="0.31117">
        <ele>1448</ele>
        <time>2018-12-11T08:40:00Z</time>
      </trkpt>
      <trkpt lat="42.96464" lon="0.31132">
        <ele>1449</ele>
        <time>2018-12-11T08:40:18Z</time>
      </trkpt>
      <trkpt lat="42.96467" lon="0.31139">
        <ele>1450</ele>
        <time>2018-12-11T08:40:27Z</time>
      </trkpt>
      <trkpt lat="42.96469" lon="0.31142">
        <ele>1450</ele>
        <time>2018-12-11T08:40:30Z</time>
      </trkpt>
      <trkpt lat="42.9647" lon="0.31145">
        <ele>1450</ele>
        <time>2018-12-11T08:40:33Z</time>
      </trkpt>
      <trkpt lat="42.96473" lon="0.3115">
        <ele>1451</ele>
        <time>2018-12-11T08:40:40Z</time>
      </trkpt>
      <trkpt lat="42.96474" lon="0.31153">
        <ele>1451</ele>
        <time>2018-12-11T08:40:45Z</time>
      </trkpt>
      <trkpt lat="42.96477" lon="0.31157">
        <ele>1452</ele>
        <time>2018-12-11T08:40:52Z</time>
      </trkpt>
      <trkpt lat="42.96478" lon="0.31163">
        <ele>1452</ele>
        <time>2018-12-11T08:41:00Z</time>
      </trkpt>
      <trkpt lat="42.96479" lon="0.31168">
        <ele>1453</ele>
        <time>2018-12-11T08:41:07Z</time>
      </trkpt>
      <trkpt lat="42.96479" lon="0.3117">
        <ele>1453</ele>
        <time>2018-12-11T08:41:57Z</time>
      </trkpt>
      <trkpt lat="42.9648" lon="0.31173">
        <ele>1454</ele>
        <time>2018-12-11T08:42:00Z</time>
      </trkpt>
      <trkpt lat="42.96481" lon="0.31176">
        <ele>1455</ele>
        <time>2018-12-11T08:42:03Z</time>
      </trkpt>
      <trkpt lat="42.96483" lon="0.31186">
        <ele>1455</ele>
        <time>2018-12-11T08:42:12Z</time>
      </trkpt>
      <trkpt lat="42.96484" lon="0.31188">
        <ele>1456</ele>
        <time>2018-12-11T08:42:15Z</time>
      </trkpt>
      <trkpt lat="42.96486" lon="0.31189">
        <ele>1456</ele>
        <time>2018-12-11T08:42:18Z</time>
      </trkpt>
      <trkpt lat="42.96488" lon="0.31191">
        <ele>1456</ele>
        <time>2018-12-11T08:42:23Z</time>
      </trkpt>
      <trkpt lat="42.96492" lon="0.31197">
        <ele>1457</ele>
        <time>2018-12-11T08:42:33Z</time>
      </trkpt>
      <trkpt lat="42.96493" lon="0.31203">
        <ele>1458</ele>
        <time>2018-12-11T08:42:40Z</time>
      </trkpt>
      <trkpt lat="42.96494" lon="0.31206">
        <ele>1458</ele>
        <time>2018-12-11T08:42:43Z</time>
      </trkpt>
      <trkpt lat="42.96498" lon="0.31216">
        <ele>1459</ele>
        <time>2018-12-11T08:42:57Z</time>
      </trkpt>
      <trkpt lat="42.96499" lon="0.31218">
        <ele>1459</ele>
        <time>2018-12-11T08:43:00Z</time>
      </trkpt>
      <trkpt lat="42.96503" lon="0.31225">
        <ele>1459</ele>
        <time>2018-12-11T08:43:10Z</time>
      </trkpt>
      <trkpt lat="42.96503" lon="0.31228">
        <ele>1460</ele>
        <time>2018-12-11T08:43:15Z</time>
      </trkpt>
      <trkpt lat="42.96504" lon="0.31231">
        <ele>1460</ele>
        <time>2018-12-11T08:43:19Z</time>
      </trkpt>
      <trkpt lat="42.96507" lon="0.31236">
        <ele>1460</ele>
        <time>2018-12-11T08:43:25Z</time>
      </trkpt>
      <trkpt lat="42.96507" lon="0.31239">
        <ele>1460</ele>
        <time>2018-12-11T08:43:28Z</time>
      </trkpt>
      <trkpt lat="42.96512" lon="0.31244">
        <ele>1461</ele>
        <time>2018-12-11T08:43:39Z</time>
      </trkpt>
      <trkpt lat="42.96513" lon="0.31246">
        <ele>1461</ele>
        <time>2018-12-11T08:43:43Z</time>
      </trkpt>
      <trkpt lat="42.96513" lon="0.31249">
        <ele>1462</ele>
        <time>2018-12-11T08:43:48Z</time>
      </trkpt>
      <trkpt lat="42.96513" lon="0.31252">
        <ele>1462</ele>
        <time>2018-12-11T08:43:53Z</time>
      </trkpt>
      <trkpt lat="42.96515" lon="0.31254">
        <ele>1462</ele>
        <time>2018-12-11T08:43:57Z</time>
      </trkpt>
      <trkpt lat="42.96518" lon="0.31255">
        <ele>1462</ele>
        <time>2018-12-11T08:44:01Z</time>
      </trkpt>
      <trkpt lat="42.96529" lon="0.31258">
        <ele>1463</ele>
        <time>2018-12-11T08:44:14Z</time>
      </trkpt>
      <trkpt lat="42.96531" lon="0.31259">
        <ele>1463</ele>
        <time>2018-12-11T08:44:17Z</time>
      </trkpt>
      <trkpt lat="42.9653" lon="0.31261">
        <ele>1464</ele>
        <time>2018-12-11T08:44:23Z</time>
      </trkpt>
      <trkpt lat="42.96536" lon="0.31266">
        <ele>1465</ele>
        <time>2018-12-11T08:44:34Z</time>
      </trkpt>
      <trkpt lat="42.96539" lon="0.31269">
        <ele>1465</ele>
        <time>2018-12-11T08:44:41Z</time>
      </trkpt>
      <trkpt lat="42.96543" lon="0.31274">
        <ele>1466</ele>
        <time>2018-12-11T08:44:49Z</time>
      </trkpt>
      <trkpt lat="42.96545" lon="0.31278">
        <ele>1467</ele>
        <time>2018-12-11T08:44:59Z</time>
      </trkpt>
      <trkpt lat="42.96547" lon="0.3128">
        <ele>1467</ele>
        <time>2018-12-11T08:45:02Z</time>
      </trkpt>
      <trkpt lat="42.96549" lon="0.31282">
        <ele>1467</ele>
        <time>2018-12-11T08:45:05Z</time>
      </trkpt>
      <trkpt lat="42.9655" lon="0.31289">
        <ele>1468</ele>
        <time>2018-12-11T08:45:12Z</time>
      </trkpt>
      <trkpt lat="42.9655" lon="0.31292">
        <ele>1468</ele>
        <time>2018-12-11T08:45:16Z</time>
      </trkpt>
      <trkpt lat="42.96552" lon="0.31293">
        <ele>1468</ele>
        <time>2018-12-11T08:45:19Z</time>
      </trkpt>
      <trkpt lat="42.96553" lon="0.31295">
        <ele>1469</ele>
        <time>2018-12-11T08:45:22Z</time>
      </trkpt>
      <trkpt lat="42.96554" lon="0.31297">
        <ele>1469</ele>
        <time>2018-12-11T08:45:25Z</time>
      </trkpt>
      <trkpt lat="42.96557" lon="0.31299">
        <ele>1469</ele>
        <time>2018-12-11T08:45:28Z</time>
      </trkpt>
      <trkpt lat="42.96559" lon="0.31299">
        <ele>1470</ele>
        <time>2018-12-11T08:46:01Z</time>
      </trkpt>
      <trkpt lat="42.96562" lon="0.31299">
        <ele>1471</ele>
        <time>2018-12-11T08:48:26Z</time>
      </trkpt>
      <trkpt lat="42.96566" lon="0.31301">
        <ele>1473</ele>
        <time>2018-12-11T08:48:31Z</time>
      </trkpt>
      <trkpt lat="42.96584" lon="0.31309">
        <ele>1475</ele>
        <time>2018-12-11T08:48:58Z</time>
      </trkpt>
      <trkpt lat="42.96587" lon="0.31311">
        <ele>1475</ele>
        <time>2018-12-11T08:49:02Z</time>
      </trkpt>
      <trkpt lat="42.96591" lon="0.31311">
        <ele>1476</ele>
        <time>2018-12-11T08:49:06Z</time>
      </trkpt>
      <trkpt lat="42.96595" lon="0.31317">
        <ele>1476</ele>
        <time>2018-12-11T08:49:15Z</time>
      </trkpt>
      <trkpt lat="42.96598" lon="0.31321">
        <ele>1477</ele>
        <time>2018-12-11T08:49:20Z</time>
      </trkpt>
      <trkpt lat="42.966" lon="0.31321">
        <ele>1477</ele>
        <time>2018-12-11T08:49:21Z</time>
      </trkpt>
      <trkpt lat="42.96605" lon="0.31321">
        <ele>1477</ele>
        <time>2018-12-11T08:49:25Z</time>
      </trkpt>
      <trkpt lat="42.96606" lon="0.31323">
        <ele>1477</ele>
        <time>2018-12-11T08:49:32Z</time>
      </trkpt>
      <trkpt lat="42.96611" lon="0.31324">
        <ele>1478</ele>
        <time>2018-12-11T08:49:36Z</time>
      </trkpt>
      <trkpt lat="42.96612" lon="0.31326">
        <ele>1478</ele>
        <time>2018-12-11T08:49:40Z</time>
      </trkpt>
      <trkpt lat="42.96616" lon="0.31327">
        <ele>1479</ele>
        <time>2018-12-11T08:49:45Z</time>
      </trkpt>
      <trkpt lat="42.96618" lon="0.31327">
        <ele>1479</ele>
        <time>2018-12-11T08:49:49Z</time>
      </trkpt>
      <trkpt lat="42.96623" lon="0.31326">
        <ele>1480</ele>
        <time>2018-12-11T08:49:57Z</time>
      </trkpt>
      <trkpt lat="42.96629" lon="0.3133">
        <ele>1482</ele>
        <time>2018-12-11T08:50:29Z</time>
      </trkpt>
      <trkpt lat="42.96635" lon="0.31335">
        <ele>1484</ele>
        <time>2018-12-11T08:50:40Z</time>
      </trkpt>
      <trkpt lat="42.96639" lon="0.31336">
        <ele>1485</ele>
        <time>2018-12-11T08:50:47Z</time>
      </trkpt>
      <trkpt lat="42.9664" lon="0.31337">
        <ele>1486</ele>
        <time>2018-12-11T08:50:52Z</time>
      </trkpt>
      <trkpt lat="42.96642" lon="0.31337">
        <ele>1486</ele>
        <time>2018-12-11T08:50:57Z</time>
      </trkpt>
      <trkpt lat="42.96644" lon="0.31338">
        <ele>1487</ele>
        <time>2018-12-11T08:51:02Z</time>
      </trkpt>
      <trkpt lat="42.96648" lon="0.3134">
        <ele>1488</ele>
        <time>2018-12-11T08:51:15Z</time>
      </trkpt>
      <trkpt lat="42.96649" lon="0.31339">
        <ele>1489</ele>
        <time>2018-12-11T08:51:37Z</time>
      </trkpt>
      <trkpt lat="42.96649" lon="0.31336">
        <ele>1490</ele>
        <time>2018-12-11T08:51:59Z</time>
      </trkpt>
      <trkpt lat="42.96647" lon="0.31336">
        <ele>1490</ele>
        <time>2018-12-11T08:52:23Z</time>
      </trkpt>
      <trkpt lat="42.96651" lon="0.31338">
        <ele>1491</ele>
        <time>2018-12-11T08:52:27Z</time>
      </trkpt>
      <trkpt lat="42.96653" lon="0.31336">
        <ele>1492</ele>
        <time>2018-12-11T08:52:32Z</time>
      </trkpt>
      <trkpt lat="42.96655" lon="0.31334">
        <ele>1493</ele>
        <time>2018-12-11T08:52:35Z</time>
      </trkpt>
      <trkpt lat="42.96657" lon="0.31332">
        <ele>1494</ele>
        <time>2018-12-11T08:52:38Z</time>
      </trkpt>
      <trkpt lat="42.96658" lon="0.31329">
        <ele>1494</ele>
        <time>2018-12-11T08:52:41Z</time>
      </trkpt>
      <trkpt lat="42.96659" lon="0.31327">
        <ele>1495</ele>
        <time>2018-12-11T08:52:45Z</time>
      </trkpt>
      <trkpt lat="42.96662" lon="0.31327">
        <ele>1496</ele>
        <time>2018-12-11T08:52:50Z</time>
      </trkpt>
      <trkpt lat="42.96662" lon="0.31321">
        <ele>1498</ele>
        <time>2018-12-11T08:53:02Z</time>
      </trkpt>
      <trkpt lat="42.96664" lon="0.31321">
        <ele>1498</ele>
        <time>2018-12-11T08:53:03Z</time>
      </trkpt>
      <trkpt lat="42.96666" lon="0.31321">
        <ele>1499</ele>
        <time>2018-12-11T08:53:05Z</time>
      </trkpt>
      <trkpt lat="42.96666" lon="0.31318">
        <ele>1499</ele>
        <time>2018-12-11T08:53:10Z</time>
      </trkpt>
      <trkpt lat="42.96664" lon="0.31317">
        <ele>1500</ele>
        <time>2018-12-11T08:53:20Z</time>
      </trkpt>
      <trkpt lat="42.96667" lon="0.31321">
        <ele>1501</ele>
        <time>2018-12-11T08:53:29Z</time>
      </trkpt>
      <trkpt lat="42.96669" lon="0.31324">
        <ele>1502</ele>
        <time>2018-12-11T08:53:31Z</time>
      </trkpt>
      <trkpt lat="42.96671" lon="0.31326">
        <ele>1503</ele>
        <time>2018-12-11T08:53:34Z</time>
      </trkpt>
      <trkpt lat="42.96671" lon="0.31328">
        <ele>1503</ele>
        <time>2018-12-11T08:53:37Z</time>
      </trkpt>
      <trkpt lat="42.96673" lon="0.31331">
        <ele>1504</ele>
        <time>2018-12-11T08:53:43Z</time>
      </trkpt>
      <trkpt lat="42.96673" lon="0.31337">
        <ele>1505</ele>
        <time>2018-12-11T08:53:47Z</time>
      </trkpt>
      <trkpt lat="42.96674" lon="0.31338">
        <ele>1508</ele>
        <time>2018-12-11T08:54:10Z</time>
      </trkpt>
      <trkpt lat="42.96673" lon="0.31341">
        <ele>1508</ele>
        <time>2018-12-11T08:54:15Z</time>
      </trkpt>
      <trkpt lat="42.96675" lon="0.31344">
        <ele>1509</ele>
        <time>2018-12-11T08:54:19Z</time>
      </trkpt>
      <trkpt lat="42.96677" lon="0.31346">
        <ele>1510</ele>
        <time>2018-12-11T08:54:20Z</time>
      </trkpt>
      <trkpt lat="42.9668" lon="0.31349">
        <ele>1511</ele>
        <time>2018-12-11T08:54:22Z</time>
      </trkpt>
      <trkpt lat="42.96682" lon="0.31352">
        <ele>1511</ele>
        <time>2018-12-11T08:54:24Z</time>
      </trkpt>
      <trkpt lat="42.96683" lon="0.31355">
        <ele>1511</ele>
        <time>2018-12-11T08:54:26Z</time>
      </trkpt>
      <trkpt lat="42.96685" lon="0.31357">
        <ele>1512</ele>
        <time>2018-12-11T08:54:31Z</time>
      </trkpt>
      <trkpt lat="42.96687" lon="0.31359">
        <ele>1513</ele>
        <time>2018-12-11T08:54:34Z</time>
      </trkpt>
      <trkpt lat="42.9669" lon="0.3136">
        <ele>1513</ele>
        <time>2018-12-11T08:54:37Z</time>
      </trkpt>
      <trkpt lat="42.96697" lon="0.31361">
        <ele>1515</ele>
        <time>2018-12-11T08:54:48Z</time>
      </trkpt>
      <trkpt lat="42.96702" lon="0.31363">
        <ele>1516</ele>
        <time>2018-12-11T08:54:54Z</time>
      </trkpt>
      <trkpt lat="42.96704" lon="0.31363">
        <ele>1516</ele>
        <time>2018-12-11T08:54:56Z</time>
      </trkpt>
      <trkpt lat="42.96708" lon="0.31363">
        <ele>1517</ele>
        <time>2018-12-11T08:55:03Z</time>
      </trkpt>
      <trkpt lat="42.9671" lon="0.31366">
        <ele>1518</ele>
        <time>2018-12-11T08:55:07Z</time>
      </trkpt>
      <trkpt lat="42.96711" lon="0.31369">
        <ele>1518</ele>
        <time>2018-12-11T08:55:12Z</time>
      </trkpt>
      <trkpt lat="42.96714" lon="0.31372">
        <ele>1519</ele>
        <time>2018-12-11T08:55:16Z</time>
      </trkpt>
      <trkpt lat="42.96716" lon="0.31375">
        <ele>1519</ele>
        <time>2018-12-11T08:55:23Z</time>
      </trkpt>
      <trkpt lat="42.9673" lon="0.31379">
        <ele>1521</ele>
        <time>2018-12-11T08:55:35Z</time>
      </trkpt>
      <trkpt lat="42.96736" lon="0.31382">
        <ele>1521</ele>
        <time>2018-12-11T08:55:41Z</time>
      </trkpt>
      <trkpt lat="42.96739" lon="0.31384">
        <ele>1521</ele>
        <time>2018-12-11T08:55:45Z</time>
      </trkpt>
      <trkpt lat="42.96743" lon="0.31384">
        <ele>1521</ele>
        <time>2018-12-11T08:55:50Z</time>
      </trkpt>
      <trkpt lat="42.96746" lon="0.31385">
        <ele>1522</ele>
        <time>2018-12-11T08:55:55Z</time>
      </trkpt>
      <trkpt lat="42.9675" lon="0.31386">
        <ele>1522</ele>
        <time>2018-12-11T08:56:03Z</time>
      </trkpt>
      <trkpt lat="42.96753" lon="0.31382">
        <ele>1522</ele>
        <time>2018-12-11T08:56:08Z</time>
      </trkpt>
      <trkpt lat="42.96756" lon="0.31383">
        <ele>1523</ele>
        <time>2018-12-11T08:56:20Z</time>
      </trkpt>
      <trkpt lat="42.96759" lon="0.31387">
        <ele>1523</ele>
        <time>2018-12-11T08:56:27Z</time>
      </trkpt>
      <trkpt lat="42.9676" lon="0.31392">
        <ele>1523</ele>
        <time>2018-12-11T08:56:34Z</time>
      </trkpt>
      <trkpt lat="42.96762" lon="0.31401">
        <ele>1524</ele>
        <time>2018-12-11T08:56:40Z</time>
      </trkpt>
      <trkpt lat="42.96762" lon="0.31404">
        <ele>1524</ele>
        <time>2018-12-11T08:56:43Z</time>
      </trkpt>
      <trkpt lat="42.96763" lon="0.31406">
        <ele>1524</ele>
        <time>2018-12-11T08:56:45Z</time>
      </trkpt>
      <trkpt lat="42.96771" lon="0.31415">
        <ele>1525</ele>
        <time>2018-12-11T08:57:02Z</time>
      </trkpt>
      <trkpt lat="42.96773" lon="0.31417">
        <ele>1525</ele>
        <time>2018-12-11T08:57:10Z</time>
      </trkpt>
      <trkpt lat="42.96774" lon="0.31421">
        <ele>1525</ele>
        <time>2018-12-11T08:57:14Z</time>
      </trkpt>
      <trkpt lat="42.96776" lon="0.31423">
        <ele>1525</ele>
        <time>2018-12-11T08:57:17Z</time>
      </trkpt>
      <trkpt lat="42.96778" lon="0.31423">
        <ele>1525</ele>
        <time>2018-12-11T08:57:21Z</time>
      </trkpt>
      <trkpt lat="42.9678" lon="0.31424">
        <ele>1525</ele>
        <time>2018-12-11T08:57:25Z</time>
      </trkpt>
      <trkpt lat="42.96782" lon="0.31425">
        <ele>1526</ele>
        <time>2018-12-11T08:57:29Z</time>
      </trkpt>
      <trkpt lat="42.96788" lon="0.31433">
        <ele>1526</ele>
        <time>2018-12-11T08:57:40Z</time>
      </trkpt>
      <trkpt lat="42.96789" lon="0.31435">
        <ele>1526</ele>
        <time>2018-12-11T08:57:43Z</time>
      </trkpt>
      <trkpt lat="42.9679" lon="0.31438">
        <ele>1526</ele>
        <time>2018-12-11T08:57:48Z</time>
      </trkpt>
      <trkpt lat="42.96792" lon="0.31442">
        <ele>1526</ele>
        <time>2018-12-11T08:57:53Z</time>
      </trkpt>
      <trkpt lat="42.96793" lon="0.31446">
        <ele>1527</ele>
        <time>2018-12-11T08:57:56Z</time>
      </trkpt>
      <trkpt lat="42.96795" lon="0.31451">
        <ele>1527</ele>
        <time>2018-12-11T08:58:01Z</time>
      </trkpt>
      <trkpt lat="42.96795" lon="0.31453">
        <ele>1527</ele>
        <time>2018-12-11T08:58:04Z</time>
      </trkpt>
      <trkpt lat="42.96796" lon="0.31456">
        <ele>1527</ele>
        <time>2018-12-11T08:58:07Z</time>
      </trkpt>
      <trkpt lat="42.96798" lon="0.31458">
        <ele>1527</ele>
        <time>2018-12-11T08:58:15Z</time>
      </trkpt>
      <trkpt lat="42.96799" lon="0.3146">
        <ele>1527</ele>
        <time>2018-12-11T08:58:17Z</time>
      </trkpt>
      <trkpt lat="42.968" lon="0.31463">
        <ele>1527</ele>
        <time>2018-12-11T08:58:19Z</time>
      </trkpt>
      <trkpt lat="42.96803" lon="0.31467">
        <ele>1528</ele>
        <time>2018-12-11T08:58:24Z</time>
      </trkpt>
      <trkpt lat="42.96804" lon="0.3147">
        <ele>1528</ele>
        <time>2018-12-11T08:58:31Z</time>
      </trkpt>
      <trkpt lat="42.96804" lon="0.31474">
        <ele>1528</ele>
        <time>2018-12-11T08:58:36Z</time>
      </trkpt>
      <trkpt lat="42.96805" lon="0.31477">
        <ele>1528</ele>
        <time>2018-12-11T08:58:39Z</time>
      </trkpt>
      <trkpt lat="42.96806" lon="0.3148">
        <ele>1528</ele>
        <time>2018-12-11T08:58:42Z</time>
      </trkpt>
      <trkpt lat="42.9681" lon="0.31487">
        <ele>1529</ele>
        <time>2018-12-11T08:58:51Z</time>
      </trkpt>
      <trkpt lat="42.96811" lon="0.31493">
        <ele>1529</ele>
        <time>2018-12-11T08:59:01Z</time>
      </trkpt>
      <trkpt lat="42.96812" lon="0.31498">
        <ele>1530</ele>
        <time>2018-12-11T08:59:10Z</time>
      </trkpt>
      <trkpt lat="42.96813" lon="0.31502">
        <ele>1530</ele>
        <time>2018-12-11T08:59:14Z</time>
      </trkpt>
      <trkpt lat="42.96815" lon="0.31507">
        <ele>1530</ele>
        <time>2018-12-11T08:59:18Z</time>
      </trkpt>
      <trkpt lat="42.96818" lon="0.31515">
        <ele>1531</ele>
        <time>2018-12-11T08:59:28Z</time>
      </trkpt>
      <trkpt lat="42.96819" lon="0.31517">
        <ele>1531</ele>
        <time>2018-12-11T08:59:31Z</time>
      </trkpt>
      <trkpt lat="42.9682" lon="0.31521">
        <ele>1531</ele>
        <time>2018-12-11T08:59:34Z</time>
      </trkpt>
      <trkpt lat="42.96822" lon="0.31527">
        <ele>1531</ele>
        <time>2018-12-11T08:59:40Z</time>
      </trkpt>
      <trkpt lat="42.96824" lon="0.31529">
        <ele>1532</ele>
        <time>2018-12-11T08:59:44Z</time>
      </trkpt>
      <trkpt lat="42.96825" lon="0.31532">
        <ele>1532</ele>
        <time>2018-12-11T08:59:48Z</time>
      </trkpt>
      <trkpt lat="42.96826" lon="0.31535">
        <ele>1532</ele>
        <time>2018-12-11T08:59:50Z</time>
      </trkpt>
      <trkpt lat="42.96827" lon="0.31537">
        <ele>1532</ele>
        <time>2018-12-11T08:59:52Z</time>
      </trkpt>
      <trkpt lat="42.96825" lon="0.31549">
        <ele>1532</ele>
        <time>2018-12-11T09:00:23Z</time>
      </trkpt>
      <trkpt lat="42.96823" lon="0.31553">
        <ele>1533</ele>
        <time>2018-12-11T09:01:15Z</time>
      </trkpt>
      <trkpt lat="42.96826" lon="0.31556">
        <ele>1533</ele>
        <time>2018-12-11T09:02:35Z</time>
      </trkpt>
      <trkpt lat="42.96829" lon="0.31557">
        <ele>1534</ele>
        <time>2018-12-11T09:03:02Z</time>
      </trkpt>
      <trkpt lat="42.96832" lon="0.31559">
        <ele>1534</ele>
        <time>2018-12-11T09:03:09Z</time>
      </trkpt>
      <trkpt lat="42.96833" lon="0.31569">
        <ele>1535</ele>
        <time>2018-12-11T09:03:24Z</time>
      </trkpt>
      <trkpt lat="42.96835" lon="0.31578">
        <ele>1535</ele>
        <time>2018-12-11T09:03:37Z</time>
      </trkpt>
      <trkpt lat="42.96834" lon="0.31583">
        <ele>1535</ele>
        <time>2018-12-11T09:03:41Z</time>
      </trkpt>
      <trkpt lat="42.96834" lon="0.31589">
        <ele>1535</ele>
        <time>2018-12-11T09:03:48Z</time>
      </trkpt>
      <trkpt lat="42.96836" lon="0.31593">
        <ele>1535</ele>
        <time>2018-12-11T09:03:52Z</time>
      </trkpt>
      <trkpt lat="42.96838" lon="0.31597">
        <ele>1536</ele>
        <time>2018-12-11T09:03:57Z</time>
      </trkpt>
      <trkpt lat="42.96842" lon="0.3161">
        <ele>1536</ele>
        <time>2018-12-11T09:04:12Z</time>
      </trkpt>
      <trkpt lat="42.96844" lon="0.31612">
        <ele>1536</ele>
        <time>2018-12-11T09:04:16Z</time>
      </trkpt>
      <trkpt lat="42.96845" lon="0.31614">
        <ele>1536</ele>
        <time>2018-12-11T09:04:19Z</time>
      </trkpt>
      <trkpt lat="42.96845" lon="0.31617">
        <ele>1537</ele>
        <time>2018-12-11T09:04:23Z</time>
      </trkpt>
      <trkpt lat="42.96845" lon="0.31621">
        <ele>1537</ele>
        <time>2018-12-11T09:04:26Z</time>
      </trkpt>
      <trkpt lat="42.96844" lon="0.31623">
        <ele>1537</ele>
        <time>2018-12-11T09:04:29Z</time>
      </trkpt>
      <trkpt lat="42.96844" lon="0.31626">
        <ele>1537</ele>
        <time>2018-12-11T09:04:32Z</time>
      </trkpt>
      <trkpt lat="42.96843" lon="0.31629">
        <ele>1537</ele>
        <time>2018-12-11T09:04:34Z</time>
      </trkpt>
      <trkpt lat="42.96842" lon="0.31631">
        <ele>1537</ele>
        <time>2018-12-11T09:04:36Z</time>
      </trkpt>
      <trkpt lat="42.96841" lon="0.31635">
        <ele>1537</ele>
        <time>2018-12-11T09:04:42Z</time>
      </trkpt>
      <trkpt lat="42.96842" lon="0.31638">
        <ele>1538</ele>
        <time>2018-12-11T09:04:46Z</time>
      </trkpt>
      <trkpt lat="42.96841" lon="0.31641">
        <ele>1538</ele>
        <time>2018-12-11T09:04:51Z</time>
      </trkpt>
      <trkpt lat="42.9684" lon="0.31644">
        <ele>1538</ele>
        <time>2018-12-11T09:04:59Z</time>
      </trkpt>
      <trkpt lat="42.96838" lon="0.31645">
        <ele>1538</ele>
        <time>2018-12-11T09:05:02Z</time>
      </trkpt>
      <trkpt lat="42.96836" lon="0.31647">
        <ele>1539</ele>
        <time>2018-12-11T09:05:06Z</time>
      </trkpt>
      <trkpt lat="42.96833" lon="0.31661">
        <ele>1540</ele>
        <time>2018-12-11T09:05:15Z</time>
      </trkpt>
      <trkpt lat="42.96834" lon="0.31667">
        <ele>1540</ele>
        <time>2018-12-11T09:05:21Z</time>
      </trkpt>
      <trkpt lat="42.96833" lon="0.31671">
        <ele>1541</ele>
        <time>2018-12-11T09:05:27Z</time>
      </trkpt>
      <trkpt lat="42.96833" lon="0.31674">
        <ele>1541</ele>
        <time>2018-12-11T09:05:30Z</time>
      </trkpt>
      <trkpt lat="42.96834" lon="0.31676">
        <ele>1542</ele>
        <time>2018-12-11T09:05:34Z</time>
      </trkpt>
      <trkpt lat="42.96832" lon="0.31679">
        <ele>1542</ele>
        <time>2018-12-11T09:05:36Z</time>
      </trkpt>
      <trkpt lat="42.96831" lon="0.31683">
        <ele>1542</ele>
        <time>2018-12-11T09:05:39Z</time>
      </trkpt>
      <trkpt lat="42.9683" lon="0.31687">
        <ele>1543</ele>
        <time>2018-12-11T09:05:42Z</time>
      </trkpt>
      <trkpt lat="42.96829" lon="0.31691">
        <ele>1543</ele>
        <time>2018-12-11T09:05:50Z</time>
      </trkpt>
      <trkpt lat="42.96827" lon="0.31703">
        <ele>1545</ele>
        <time>2018-12-11T09:06:01Z</time>
      </trkpt>
      <trkpt lat="42.96827" lon="0.31705">
        <ele>1545</ele>
        <time>2018-12-11T09:06:03Z</time>
      </trkpt>
      <trkpt lat="42.96827" lon="0.31711">
        <ele>1546</ele>
        <time>2018-12-11T09:06:08Z</time>
      </trkpt>
      <trkpt lat="42.96827" lon="0.31714">
        <ele>1546</ele>
        <time>2018-12-11T09:06:11Z</time>
      </trkpt>
      <trkpt lat="42.96827" lon="0.31717">
        <ele>1546</ele>
        <time>2018-12-11T09:06:21Z</time>
      </trkpt>
      <trkpt lat="42.96825" lon="0.31719">
        <ele>1547</ele>
        <time>2018-12-11T09:06:25Z</time>
      </trkpt>
      <trkpt lat="42.96824" lon="0.31724">
        <ele>1548</ele>
        <time>2018-12-11T09:06:31Z</time>
      </trkpt>
      <trkpt lat="42.96824" lon="0.31736">
        <ele>1550</ele>
        <time>2018-12-11T09:06:42Z</time>
      </trkpt>
      <trkpt lat="42.96823" lon="0.31739">
        <ele>1550</ele>
        <time>2018-12-11T09:06:46Z</time>
      </trkpt>
      <trkpt lat="42.96824" lon="0.31746">
        <ele>1551</ele>
        <time>2018-12-11T09:06:52Z</time>
      </trkpt>
      <trkpt lat="42.96824" lon="0.31755">
        <ele>1552</ele>
        <time>2018-12-11T09:07:02Z</time>
      </trkpt>
      <trkpt lat="42.96821" lon="0.31762">
        <ele>1553</ele>
        <time>2018-12-11T09:07:11Z</time>
      </trkpt>
      <trkpt lat="42.9682" lon="0.31782">
        <ele>1555</ele>
        <time>2018-12-11T09:07:42Z</time>
      </trkpt>
      <trkpt lat="42.96821" lon="0.31788">
        <ele>1556</ele>
        <time>2018-12-11T09:07:57Z</time>
      </trkpt>
      <trkpt lat="42.96821" lon="0.31791">
        <ele>1557</ele>
        <time>2018-12-11T09:08:01Z</time>
      </trkpt>
      <trkpt lat="42.96819" lon="0.31794">
        <ele>1557</ele>
        <time>2018-12-11T09:08:03Z</time>
      </trkpt>
      <trkpt lat="42.96819" lon="0.31797">
        <ele>1557</ele>
        <time>2018-12-11T09:08:05Z</time>
      </trkpt>
      <trkpt lat="42.96819" lon="0.31804">
        <ele>1558</ele>
        <time>2018-12-11T09:08:11Z</time>
      </trkpt>
      <trkpt lat="42.96816" lon="0.31809">
        <ele>1558</ele>
        <time>2018-12-11T09:08:17Z</time>
      </trkpt>
      <trkpt lat="42.96813" lon="0.31817">
        <ele>1559</ele>
        <time>2018-12-11T09:08:28Z</time>
      </trkpt>
      <trkpt lat="42.96813" lon="0.3182">
        <ele>1560</ele>
        <time>2018-12-11T09:08:31Z</time>
      </trkpt>
      <trkpt lat="42.96811" lon="0.31824">
        <ele>1560</ele>
        <time>2018-12-11T09:08:37Z</time>
      </trkpt>
      <trkpt lat="42.9681" lon="0.31827">
        <ele>1561</ele>
        <time>2018-12-11T09:08:41Z</time>
      </trkpt>
      <trkpt lat="42.96809" lon="0.3183">
        <ele>1561</ele>
        <time>2018-12-11T09:08:47Z</time>
      </trkpt>
      <trkpt lat="42.96806" lon="0.31841">
        <ele>1562</ele>
        <time>2018-12-11T09:08:58Z</time>
      </trkpt>
      <trkpt lat="42.96805" lon="0.31844">
        <ele>1562</ele>
        <time>2018-12-11T09:09:02Z</time>
      </trkpt>
      <trkpt lat="42.96805" lon="0.31846">
        <ele>1563</ele>
        <time>2018-12-11T09:09:07Z</time>
      </trkpt>
      <trkpt lat="42.96804" lon="0.31849">
        <ele>1563</ele>
        <time>2018-12-11T09:09:10Z</time>
      </trkpt>
      <trkpt lat="42.96804" lon="0.31852">
        <ele>1563</ele>
        <time>2018-12-11T09:09:13Z</time>
      </trkpt>
      <trkpt lat="42.96804" lon="0.31855">
        <ele>1563</ele>
        <time>2018-12-11T09:09:19Z</time>
      </trkpt>
      <trkpt lat="42.96805" lon="0.3187">
        <ele>1564</ele>
        <time>2018-12-11T09:09:39Z</time>
      </trkpt>
      <trkpt lat="42.96803" lon="0.3188">
        <ele>1565</ele>
        <time>2018-12-11T09:09:46Z</time>
      </trkpt>
      <trkpt lat="42.96803" lon="0.31886">
        <ele>1565</ele>
        <time>2018-12-11T09:09:53Z</time>
      </trkpt>
      <trkpt lat="42.96803" lon="0.31893">
        <ele>1566</ele>
        <time>2018-12-11T09:10:07Z</time>
      </trkpt>
      <trkpt lat="42.96801" lon="0.319">
        <ele>1567</ele>
        <time>2018-12-11T09:10:12Z</time>
      </trkpt>
      <trkpt lat="42.968" lon="0.31902">
        <ele>1567</ele>
        <time>2018-12-11T09:10:14Z</time>
      </trkpt>
      <trkpt lat="42.968" lon="0.31904">
        <ele>1567</ele>
        <time>2018-12-11T09:10:18Z</time>
      </trkpt>
      <trkpt lat="42.96799" lon="0.3191">
        <ele>1567</ele>
        <time>2018-12-11T09:10:22Z</time>
      </trkpt>
      <trkpt lat="42.96798" lon="0.31916">
        <ele>1568</ele>
        <time>2018-12-11T09:10:27Z</time>
      </trkpt>
      <trkpt lat="42.96797" lon="0.31923">
        <ele>1568</ele>
        <time>2018-12-11T09:10:33Z</time>
      </trkpt>
      <trkpt lat="42.96798" lon="0.31929">
        <ele>1569</ele>
        <time>2018-12-11T09:10:39Z</time>
      </trkpt>
      <trkpt lat="42.96797" lon="0.31935">
        <ele>1570</ele>
        <time>2018-12-11T09:10:53Z</time>
      </trkpt>
      <trkpt lat="42.96795" lon="0.31938">
        <ele>1570</ele>
        <time>2018-12-11T09:10:57Z</time>
      </trkpt>
      <trkpt lat="42.96796" lon="0.31944">
        <ele>1570</ele>
        <time>2018-12-11T09:11:03Z</time>
      </trkpt>
      <trkpt lat="42.96796" lon="0.31963">
        <ele>1572</ele>
        <time>2018-12-11T09:11:31Z</time>
      </trkpt>
      <trkpt lat="42.96796" lon="0.31966">
        <ele>1572</ele>
        <time>2018-12-11T09:11:34Z</time>
      </trkpt>
      <trkpt lat="42.96795" lon="0.31968">
        <ele>1573</ele>
        <time>2018-12-11T09:11:36Z</time>
      </trkpt>
      <trkpt lat="42.96795" lon="0.31972">
        <ele>1573</ele>
        <time>2018-12-11T09:11:39Z</time>
      </trkpt>
      <trkpt lat="42.96796" lon="0.31975">
        <ele>1573</ele>
        <time>2018-12-11T09:11:42Z</time>
      </trkpt>
      <trkpt lat="42.96798" lon="0.31984">
        <ele>1574</ele>
        <time>2018-12-11T09:11:55Z</time>
      </trkpt>
      <trkpt lat="42.96798" lon="0.31987">
        <ele>1574</ele>
        <time>2018-12-11T09:11:56Z</time>
      </trkpt>
      <trkpt lat="42.96799" lon="0.31998">
        <ele>1575</ele>
        <time>2018-12-11T09:12:04Z</time>
      </trkpt>
      <trkpt lat="42.96799" lon="0.32001">
        <ele>1575</ele>
        <time>2018-12-11T09:12:06Z</time>
      </trkpt>
      <trkpt lat="42.96799" lon="0.32004">
        <ele>1575</ele>
        <time>2018-12-11T09:12:09Z</time>
      </trkpt>
      <trkpt lat="42.96797" lon="0.32018">
        <ele>1576</ele>
        <time>2018-12-11T09:12:23Z</time>
      </trkpt>
      <trkpt lat="42.96797" lon="0.32022">
        <ele>1576</ele>
        <time>2018-12-11T09:12:27Z</time>
      </trkpt>
      <trkpt lat="42.96801" lon="0.32032">
        <ele>1577</ele>
        <time>2018-12-11T09:12:40Z</time>
      </trkpt>
      <trkpt lat="42.96802" lon="0.32035">
        <ele>1577</ele>
        <time>2018-12-11T09:12:45Z</time>
      </trkpt>
      <trkpt lat="42.96803" lon="0.32039">
        <ele>1578</ele>
        <time>2018-12-11T09:12:50Z</time>
      </trkpt>
      <trkpt lat="42.96803" lon="0.32051">
        <ele>1578</ele>
        <time>2018-12-11T09:12:59Z</time>
      </trkpt>
      <trkpt lat="42.96804" lon="0.32054">
        <ele>1579</ele>
        <time>2018-12-11T09:13:05Z</time>
      </trkpt>
      <trkpt lat="42.96805" lon="0.32057">
        <ele>1579</ele>
        <time>2018-12-11T09:13:08Z</time>
      </trkpt>
      <trkpt lat="42.96805" lon="0.3206">
        <ele>1579</ele>
        <time>2018-12-11T09:13:11Z</time>
      </trkpt>
      <trkpt lat="42.96804" lon="0.32062">
        <ele>1579</ele>
        <time>2018-12-11T09:13:15Z</time>
      </trkpt>
      <trkpt lat="42.96804" lon="0.32068">
        <ele>1580</ele>
        <time>2018-12-11T09:13:21Z</time>
      </trkpt>
      <trkpt lat="42.96805" lon="0.3207">
        <ele>1580</ele>
        <time>2018-12-11T09:13:26Z</time>
      </trkpt>
      <trkpt lat="42.96806" lon="0.32073">
        <ele>1580</ele>
        <time>2018-12-11T09:13:29Z</time>
      </trkpt>
      <trkpt lat="42.96809" lon="0.3208">
        <ele>1580</ele>
        <time>2018-12-11T09:13:37Z</time>
      </trkpt>
      <trkpt lat="42.96809" lon="0.32085">
        <ele>1581</ele>
        <time>2018-12-11T09:13:43Z</time>
      </trkpt>
      <trkpt lat="42.9681" lon="0.32091">
        <ele>1581</ele>
        <time>2018-12-11T09:13:49Z</time>
      </trkpt>
      <trkpt lat="42.96813" lon="0.32114">
        <ele>1583</ele>
        <time>2018-12-11T09:14:12Z</time>
      </trkpt>
      <trkpt lat="42.96815" lon="0.32115">
        <ele>1583</ele>
        <time>2018-12-11T09:14:15Z</time>
      </trkpt>
      <trkpt lat="42.96817" lon="0.32118">
        <ele>1583</ele>
        <time>2018-12-11T09:14:18Z</time>
      </trkpt>
      <trkpt lat="42.96817" lon="0.3213">
        <ele>1584</ele>
        <time>2018-12-11T09:14:37Z</time>
      </trkpt>
      <trkpt lat="42.96817" lon="0.32132">
        <ele>1584</ele>
        <time>2018-12-11T09:14:41Z</time>
      </trkpt>
      <trkpt lat="42.96818" lon="0.32135">
        <ele>1585</ele>
        <time>2018-12-11T09:14:44Z</time>
      </trkpt>
      <trkpt lat="42.96818" lon="0.32138">
        <ele>1585</ele>
        <time>2018-12-11T09:14:47Z</time>
      </trkpt>
      <trkpt lat="42.96821" lon="0.32147">
        <ele>1586</ele>
        <time>2018-12-11T09:14:56Z</time>
      </trkpt>
      <trkpt lat="42.96822" lon="0.32154">
        <ele>1586</ele>
        <time>2018-12-11T09:15:02Z</time>
      </trkpt>
      <trkpt lat="42.96823" lon="0.32158">
        <ele>1586</ele>
        <time>2018-12-11T09:15:09Z</time>
      </trkpt>
      <trkpt lat="42.96824" lon="0.3216">
        <ele>1586</ele>
        <time>2018-12-11T09:15:12Z</time>
      </trkpt>
      <trkpt lat="42.96825" lon="0.32166">
        <ele>1587</ele>
        <time>2018-12-11T09:15:19Z</time>
      </trkpt>
      <trkpt lat="42.96829" lon="0.32174">
        <ele>1587</ele>
        <time>2018-12-11T09:15:27Z</time>
      </trkpt>
      <trkpt lat="42.9683" lon="0.32177">
        <ele>1588</ele>
        <time>2018-12-11T09:15:31Z</time>
      </trkpt>
      <trkpt lat="42.96831" lon="0.32179">
        <ele>1588</ele>
        <time>2018-12-11T09:15:35Z</time>
      </trkpt>
      <trkpt lat="42.96832" lon="0.32182">
        <ele>1588</ele>
        <time>2018-12-11T09:15:37Z</time>
      </trkpt>
      <trkpt lat="42.96836" lon="0.3219">
        <ele>1589</ele>
        <time>2018-12-11T09:15:52Z</time>
      </trkpt>
      <trkpt lat="42.96838" lon="0.32191">
        <ele>1589</ele>
        <time>2018-12-11T09:15:56Z</time>
      </trkpt>
      <trkpt lat="42.96838" lon="0.32193">
        <ele>1589</ele>
        <time>2018-12-11T09:15:59Z</time>
      </trkpt>
      <trkpt lat="42.9684" lon="0.32196">
        <ele>1589</ele>
        <time>2018-12-11T09:16:02Z</time>
      </trkpt>
      <trkpt lat="42.96841" lon="0.32198">
        <ele>1590</ele>
        <time>2018-12-11T09:16:04Z</time>
      </trkpt>
      <trkpt lat="42.96843" lon="0.32199">
        <ele>1590</ele>
        <time>2018-12-11T09:16:07Z</time>
      </trkpt>
      <trkpt lat="42.96847" lon="0.32211">
        <ele>1591</ele>
        <time>2018-12-11T09:16:20Z</time>
      </trkpt>
      <trkpt lat="42.96848" lon="0.32213">
        <ele>1591</ele>
        <time>2018-12-11T09:16:26Z</time>
      </trkpt>
      <trkpt lat="42.96849" lon="0.32215">
        <ele>1591</ele>
        <time>2018-12-11T09:16:35Z</time>
      </trkpt>
      <trkpt lat="42.96851" lon="0.32215">
        <ele>1592</ele>
        <time>2018-12-11T09:16:42Z</time>
      </trkpt>
      <trkpt lat="42.96854" lon="0.32216">
        <ele>1592</ele>
        <time>2018-12-11T09:16:47Z</time>
      </trkpt>
      <trkpt lat="42.96855" lon="0.32218">
        <ele>1593</ele>
        <time>2018-12-11T09:16:50Z</time>
      </trkpt>
      <trkpt lat="42.96856" lon="0.32221">
        <ele>1593</ele>
        <time>2018-12-11T09:16:59Z</time>
      </trkpt>
      <trkpt lat="42.96865" lon="0.32227">
        <ele>1595</ele>
        <time>2018-12-11T09:17:28Z</time>
      </trkpt>
      <trkpt lat="42.96867" lon="0.32225">
        <ele>1595</ele>
        <time>2018-12-11T09:17:34Z</time>
      </trkpt>
      <trkpt lat="42.9687" lon="0.32228">
        <ele>1597</ele>
        <time>2018-12-11T09:17:56Z</time>
      </trkpt>
      <trkpt lat="42.96872" lon="0.32229">
        <ele>1597</ele>
        <time>2018-12-11T09:18:05Z</time>
      </trkpt>
      <trkpt lat="42.96874" lon="0.3223">
        <ele>1598</ele>
        <time>2018-12-11T09:18:13Z</time>
      </trkpt>
      <trkpt lat="42.96875" lon="0.32232">
        <ele>1599</ele>
        <time>2018-12-11T09:18:26Z</time>
      </trkpt>
      <trkpt lat="42.96877" lon="0.32234">
        <ele>1599</ele>
        <time>2018-12-11T09:18:30Z</time>
      </trkpt>
      <trkpt lat="42.96878" lon="0.32236">
        <ele>1600</ele>
        <time>2018-12-11T09:18:42Z</time>
      </trkpt>
      <trkpt lat="42.96883" lon="0.32236">
        <ele>1602</ele>
        <time>2018-12-11T09:18:56Z</time>
      </trkpt>
      <trkpt lat="42.96887" lon="0.32243">
        <ele>1603</ele>
        <time>2018-12-11T09:19:15Z</time>
      </trkpt>
      <trkpt lat="42.96892" lon="0.32251">
        <ele>1606</ele>
        <time>2018-12-11T09:19:45Z</time>
      </trkpt>
      <trkpt lat="42.96898" lon="0.32254">
        <ele>1608</ele>
        <time>2018-12-11T09:20:11Z</time>
      </trkpt>
      <trkpt lat="42.969" lon="0.32249">
        <ele>1608</ele>
        <time>2018-12-11T09:20:29Z</time>
      </trkpt>
      <trkpt lat="42.96903" lon="0.32252">
        <ele>1609</ele>
        <time>2018-12-11T09:20:46Z</time>
      </trkpt>
      <trkpt lat="42.96906" lon="0.32256">
        <ele>1610</ele>
        <time>2018-12-11T09:20:55Z</time>
      </trkpt>
      <trkpt lat="42.96909" lon="0.32256">
        <ele>1610</ele>
        <time>2018-12-11T09:21:09Z</time>
      </trkpt>
      <trkpt lat="42.96911" lon="0.32255">
        <ele>1611</ele>
        <time>2018-12-11T09:21:15Z</time>
      </trkpt>
      <trkpt lat="42.96912" lon="0.32257">
        <ele>1611</ele>
        <time>2018-12-11T09:21:20Z</time>
      </trkpt>
      <trkpt lat="42.96914" lon="0.32259">
        <ele>1612</ele>
        <time>2018-12-11T09:21:29Z</time>
      </trkpt>
      <trkpt lat="42.96917" lon="0.32259">
        <ele>1613</ele>
        <time>2018-12-11T09:21:36Z</time>
      </trkpt>
      <trkpt lat="42.96919" lon="0.32261">
        <ele>1614</ele>
        <time>2018-12-11T09:21:42Z</time>
      </trkpt>
      <trkpt lat="42.96921" lon="0.32261">
        <ele>1614</ele>
        <time>2018-12-11T09:21:47Z</time>
      </trkpt>
      <trkpt lat="42.96923" lon="0.32261">
        <ele>1614</ele>
        <time>2018-12-11T09:21:51Z</time>
      </trkpt>
      <trkpt lat="42.96926" lon="0.32261">
        <ele>1615</ele>
        <time>2018-12-11T09:21:56Z</time>
      </trkpt>
      <trkpt lat="42.96928" lon="0.32261">
        <ele>1615</ele>
        <time>2018-12-11T09:21:59Z</time>
      </trkpt>
      <trkpt lat="42.96929" lon="0.32263">
        <ele>1616</ele>
        <time>2018-12-11T09:22:09Z</time>
      </trkpt>
      <trkpt lat="42.96934" lon="0.32268">
        <ele>1617</ele>
        <time>2018-12-11T09:22:26Z</time>
      </trkpt>
      <trkpt lat="42.96938" lon="0.3227">
        <ele>1619</ele>
        <time>2018-12-11T09:22:38Z</time>
      </trkpt>
      <trkpt lat="42.9694" lon="0.32271">
        <ele>1619</ele>
        <time>2018-12-11T09:22:43Z</time>
      </trkpt>
      <trkpt lat="42.96944" lon="0.32271">
        <ele>1620</ele>
        <time>2018-12-11T09:22:48Z</time>
      </trkpt>
      <trkpt lat="42.9696" lon="0.32275">
        <ele>1623</ele>
        <time>2018-12-11T09:23:11Z</time>
      </trkpt>
      <trkpt lat="42.96961" lon="0.32277">
        <ele>1623</ele>
        <time>2018-12-11T09:23:16Z</time>
      </trkpt>
      <trkpt lat="42.96963" lon="0.32276">
        <ele>1624</ele>
        <time>2018-12-11T09:23:28Z</time>
      </trkpt>
      <trkpt lat="42.96964" lon="0.32279">
        <ele>1624</ele>
        <time>2018-12-11T09:23:32Z</time>
      </trkpt>
      <trkpt lat="42.96964" lon="0.32282">
        <ele>1624</ele>
        <time>2018-12-11T09:23:34Z</time>
      </trkpt>
      <trkpt lat="42.96966" lon="0.32283">
        <ele>1625</ele>
        <time>2018-12-11T09:23:38Z</time>
      </trkpt>
      <trkpt lat="42.96968" lon="0.32285">
        <ele>1625</ele>
        <time>2018-12-11T09:23:43Z</time>
      </trkpt>
      <trkpt lat="42.9697" lon="0.32285">
        <ele>1625</ele>
        <time>2018-12-11T09:23:48Z</time>
      </trkpt>
      <trkpt lat="42.96972" lon="0.32286">
        <ele>1626</ele>
        <time>2018-12-11T09:23:54Z</time>
      </trkpt>
      <trkpt lat="42.96974" lon="0.32287">
        <ele>1626</ele>
        <time>2018-12-11T09:23:57Z</time>
      </trkpt>
      <trkpt lat="42.96978" lon="0.32287">
        <ele>1627</ele>
        <time>2018-12-11T09:24:04Z</time>
      </trkpt>
      <trkpt lat="42.96981" lon="0.3229">
        <ele>1628</ele>
        <time>2018-12-11T09:24:11Z</time>
      </trkpt>
      <trkpt lat="42.96982" lon="0.32293">
        <ele>1628</ele>
        <time>2018-12-11T09:24:14Z</time>
      </trkpt>
      <trkpt lat="42.96984" lon="0.32294">
        <ele>1629</ele>
        <time>2018-12-11T09:24:36Z</time>
      </trkpt>
      <trkpt lat="42.96986" lon="0.32294">
        <ele>1630</ele>
        <time>2018-12-11T09:24:45Z</time>
      </trkpt>
      <trkpt lat="42.96988" lon="0.32296">
        <ele>1631</ele>
        <time>2018-12-11T09:24:48Z</time>
      </trkpt>
      <trkpt lat="42.9699" lon="0.32298">
        <ele>1631</ele>
        <time>2018-12-11T09:24:52Z</time>
      </trkpt>
      <trkpt lat="42.96994" lon="0.323">
        <ele>1632</ele>
        <time>2018-12-11T09:25:04Z</time>
      </trkpt>
      <trkpt lat="42.96996" lon="0.32301">
        <ele>1633</ele>
        <time>2018-12-11T09:25:10Z</time>
      </trkpt>
      <trkpt lat="42.97002" lon="0.32314">
        <ele>1635</ele>
        <time>2018-12-11T09:25:30Z</time>
      </trkpt>
      <trkpt lat="42.97003" lon="0.32316">
        <ele>1636</ele>
        <time>2018-12-11T09:25:35Z</time>
      </trkpt>
      <trkpt lat="42.97005" lon="0.32318">
        <ele>1636</ele>
        <time>2018-12-11T09:25:41Z</time>
      </trkpt>
      <trkpt lat="42.97007" lon="0.32317">
        <ele>1637</ele>
        <time>2018-12-11T09:25:54Z</time>
      </trkpt>
      <trkpt lat="42.97009" lon="0.32312">
        <ele>1639</ele>
        <time>2018-12-11T09:26:08Z</time>
      </trkpt>
      <trkpt lat="42.9701" lon="0.32309">
        <ele>1640</ele>
        <time>2018-12-11T09:26:14Z</time>
      </trkpt>
      <trkpt lat="42.97011" lon="0.32306">
        <ele>1641</ele>
        <time>2018-12-11T09:26:28Z</time>
      </trkpt>
      <trkpt lat="42.97012" lon="0.32305">
        <ele>1641</ele>
        <time>2018-12-11T09:26:33Z</time>
      </trkpt>
      <trkpt lat="42.97014" lon="0.32304">
        <ele>1642</ele>
        <time>2018-12-11T09:26:42Z</time>
      </trkpt>
      <trkpt lat="42.97016" lon="0.32302">
        <ele>1643</ele>
        <time>2018-12-11T09:26:45Z</time>
      </trkpt>
      <trkpt lat="42.97018" lon="0.32301">
        <ele>1643</ele>
        <time>2018-12-11T09:26:48Z</time>
      </trkpt>
      <trkpt lat="42.97021" lon="0.32298">
        <ele>1645</ele>
        <time>2018-12-11T09:27:00Z</time>
      </trkpt>
      <trkpt lat="42.9702" lon="0.32299">
        <ele>1646</ele>
        <time>2018-12-11T09:27:50Z</time>
      </trkpt>
      <trkpt lat="42.97021" lon="0.32301">
        <ele>1647</ele>
        <time>2018-12-11T09:28:00Z</time>
      </trkpt>
      <trkpt lat="42.97021" lon="0.32301">
        <ele>1649</ele>
        <time>2018-12-11T09:29:08Z</time>
      </trkpt>
      <trkpt lat="42.97021" lon="0.32301">
        <ele>1650</ele>
        <time>2018-12-11T09:30:31Z</time>
      </trkpt>
      <trkpt lat="42.97023" lon="0.32301">
        <ele>1651</ele>
        <time>2018-12-11T09:30:50Z</time>
      </trkpt>
      <trkpt lat="42.97022" lon="0.323">
        <ele>1659</ele>
        <time>2018-12-11T09:34:35Z</time>
      </trkpt>
      <trkpt lat="42.97022" lon="0.32297">
        <ele>1660</ele>
        <time>2018-12-11T09:35:00Z</time>
      </trkpt>
      <trkpt lat="42.97022" lon="0.32298">
        <ele>1661</ele>
        <time>2018-12-11T09:36:32Z</time>
      </trkpt>
      <trkpt lat="42.97021" lon="0.32303">
        <ele>1666</ele>
        <time>2018-12-11T09:37:32Z</time>
      </trkpt>
      <trkpt lat="42.97021" lon="0.32307">
        <ele>1667</ele>
        <time>2018-12-11T09:37:48Z</time>
      </trkpt>
      <trkpt lat="42.97021" lon="0.3231">
        <ele>1668</ele>
        <time>2018-12-11T09:37:51Z</time>
      </trkpt>
      <trkpt lat="42.97022" lon="0.32313">
        <ele>1668</ele>
        <time>2018-12-11T09:37:54Z</time>
      </trkpt>
      <trkpt lat="42.97024" lon="0.3232">
        <ele>1668</ele>
        <time>2018-12-11T09:38:00Z</time>
      </trkpt>
      <trkpt lat="42.97025" lon="0.32323">
        <ele>1668</ele>
        <time>2018-12-11T09:38:01Z</time>
      </trkpt>
      <trkpt lat="42.97026" lon="0.32329">
        <ele>1668</ele>
        <time>2018-12-11T09:38:06Z</time>
      </trkpt>
      <trkpt lat="42.97026" lon="0.32331">
        <ele>1669</ele>
        <time>2018-12-11T09:38:08Z</time>
      </trkpt>
      <trkpt lat="42.97025" lon="0.32351">
        <ele>1669</ele>
        <time>2018-12-11T09:38:26Z</time>
      </trkpt>
      <trkpt lat="42.97025" lon="0.32357">
        <ele>1670</ele>
        <time>2018-12-11T09:38:33Z</time>
      </trkpt>
      <trkpt lat="42.97026" lon="0.32361">
        <ele>1670</ele>
        <time>2018-12-11T09:38:36Z</time>
      </trkpt>
      <trkpt lat="42.97027" lon="0.32363">
        <ele>1670</ele>
        <time>2018-12-11T09:38:38Z</time>
      </trkpt>
      <trkpt lat="42.97031" lon="0.32386">
        <ele>1670</ele>
        <time>2018-12-11T09:38:56Z</time>
      </trkpt>
      <trkpt lat="42.97032" lon="0.32389">
        <ele>1671</ele>
        <time>2018-12-11T09:38:59Z</time>
      </trkpt>
      <trkpt lat="42.97034" lon="0.32395">
        <ele>1671</ele>
        <time>2018-12-11T09:39:03Z</time>
      </trkpt>
      <trkpt lat="42.97035" lon="0.32403">
        <ele>1671</ele>
        <time>2018-12-11T09:39:09Z</time>
      </trkpt>
      <trkpt lat="42.97037" lon="0.32413">
        <ele>1671</ele>
        <time>2018-12-11T09:39:15Z</time>
      </trkpt>
      <trkpt lat="42.9704" lon="0.32428">
        <ele>1671</ele>
        <time>2018-12-11T09:39:25Z</time>
      </trkpt>
      <trkpt lat="42.97044" lon="0.32436">
        <ele>1671</ele>
        <time>2018-12-11T09:39:31Z</time>
      </trkpt>
      <trkpt lat="42.97046" lon="0.32448">
        <ele>1672</ele>
        <time>2018-12-11T09:39:40Z</time>
      </trkpt>
      <trkpt lat="42.9705" lon="0.32457">
        <ele>1672</ele>
        <time>2018-12-11T09:39:52Z</time>
      </trkpt>
      <trkpt lat="42.97053" lon="0.32465">
        <ele>1672</ele>
        <time>2018-12-11T09:40:26Z</time>
      </trkpt>
      <trkpt lat="42.97059" lon="0.32478">
        <ele>1672</ele>
        <time>2018-12-11T09:40:39Z</time>
      </trkpt>
      <trkpt lat="42.9706" lon="0.32481">
        <ele>1672</ele>
        <time>2018-12-11T09:40:47Z</time>
      </trkpt>
      <trkpt lat="42.97063" lon="0.32493">
        <ele>1672</ele>
        <time>2018-12-11T09:40:53Z</time>
      </trkpt>
      <trkpt lat="42.97067" lon="0.325">
        <ele>1673</ele>
        <time>2018-12-11T09:40:58Z</time>
      </trkpt>
      <trkpt lat="42.97069" lon="0.32508">
        <ele>1673</ele>
        <time>2018-12-11T09:41:05Z</time>
      </trkpt>
      <trkpt lat="42.9707" lon="0.32514">
        <ele>1673</ele>
        <time>2018-12-11T09:41:09Z</time>
      </trkpt>
      <trkpt lat="42.97071" lon="0.32517">
        <ele>1673</ele>
        <time>2018-12-11T09:41:11Z</time>
      </trkpt>
      <trkpt lat="42.97072" lon="0.32519">
        <ele>1673</ele>
        <time>2018-12-11T09:41:13Z</time>
      </trkpt>
      <trkpt lat="42.97074" lon="0.32522">
        <ele>1673</ele>
        <time>2018-12-11T09:41:15Z</time>
      </trkpt>
      <trkpt lat="42.97076" lon="0.32526">
        <ele>1673</ele>
        <time>2018-12-11T09:41:19Z</time>
      </trkpt>
      <trkpt lat="42.97079" lon="0.32531">
        <ele>1673</ele>
        <time>2018-12-11T09:41:23Z</time>
      </trkpt>
      <trkpt lat="42.97082" lon="0.32536">
        <ele>1673</ele>
        <time>2018-12-11T09:41:28Z</time>
      </trkpt>
      <trkpt lat="42.97084" lon="0.32542">
        <ele>1673</ele>
        <time>2018-12-11T09:41:33Z</time>
      </trkpt>
      <trkpt lat="42.97085" lon="0.32545">
        <ele>1673</ele>
        <time>2018-12-11T09:41:36Z</time>
      </trkpt>
      <trkpt lat="42.97097" lon="0.32574">
        <ele>1674</ele>
        <time>2018-12-11T09:42:06Z</time>
      </trkpt>
      <trkpt lat="42.971" lon="0.32583">
        <ele>1674</ele>
        <time>2018-12-11T09:42:13Z</time>
      </trkpt>
      <trkpt lat="42.97107" lon="0.32594">
        <ele>1675</ele>
        <time>2018-12-11T09:42:25Z</time>
      </trkpt>
      <trkpt lat="42.97109" lon="0.32597">
        <ele>1675</ele>
        <time>2018-12-11T09:42:28Z</time>
      </trkpt>
      <trkpt lat="42.97109" lon="0.326">
        <ele>1675</ele>
        <time>2018-12-11T09:42:30Z</time>
      </trkpt>
      <trkpt lat="42.97121" lon="0.32623">
        <ele>1675</ele>
        <time>2018-12-11T09:42:54Z</time>
      </trkpt>
      <trkpt lat="42.97124" lon="0.32628">
        <ele>1675</ele>
        <time>2018-12-11T09:43:00Z</time>
      </trkpt>
      <trkpt lat="42.97131" lon="0.32637">
        <ele>1676</ele>
        <time>2018-12-11T09:43:13Z</time>
      </trkpt>
      <trkpt lat="42.97132" lon="0.32639">
        <ele>1676</ele>
        <time>2018-12-11T09:43:17Z</time>
      </trkpt>
      <trkpt lat="42.97134" lon="0.32648">
        <ele>1676</ele>
        <time>2018-12-11T09:43:27Z</time>
      </trkpt>
      <trkpt lat="42.97139" lon="0.32653">
        <ele>1677</ele>
        <time>2018-12-11T09:43:38Z</time>
      </trkpt>
      <trkpt lat="42.97141" lon="0.32662">
        <ele>1677</ele>
        <time>2018-12-11T09:43:48Z</time>
      </trkpt>
      <trkpt lat="42.97142" lon="0.32665">
        <ele>1677</ele>
        <time>2018-12-11T09:43:51Z</time>
      </trkpt>
      <trkpt lat="42.97143" lon="0.32668">
        <ele>1677</ele>
        <time>2018-12-11T09:43:56Z</time>
      </trkpt>
      <trkpt lat="42.97144" lon="0.3267">
        <ele>1678</ele>
        <time>2018-12-11T09:44:00Z</time>
      </trkpt>
      <trkpt lat="42.97146" lon="0.32673">
        <ele>1678</ele>
        <time>2018-12-11T09:44:05Z</time>
      </trkpt>
      <trkpt lat="42.97148" lon="0.32674">
        <ele>1678</ele>
        <time>2018-12-11T09:44:09Z</time>
      </trkpt>
      <trkpt lat="42.97149" lon="0.32676">
        <ele>1678</ele>
        <time>2018-12-11T09:44:15Z</time>
      </trkpt>
      <trkpt lat="42.9715" lon="0.32678">
        <ele>1678</ele>
        <time>2018-12-11T09:44:20Z</time>
      </trkpt>
      <trkpt lat="42.97155" lon="0.32684">
        <ele>1679</ele>
        <time>2018-12-11T09:44:34Z</time>
      </trkpt>
      <trkpt lat="42.97157" lon="0.3269">
        <ele>1680</ele>
        <time>2018-12-11T09:44:40Z</time>
      </trkpt>
      <trkpt lat="42.97158" lon="0.32692">
        <ele>1680</ele>
        <time>2018-12-11T09:44:47Z</time>
      </trkpt>
      <trkpt lat="42.97159" lon="0.32694">
        <ele>1680</ele>
        <time>2018-12-11T09:44:52Z</time>
      </trkpt>
      <trkpt lat="42.9716" lon="0.32696">
        <ele>1680</ele>
        <time>2018-12-11T09:44:55Z</time>
      </trkpt>
      <trkpt lat="42.97161" lon="0.32699">
        <ele>1681</ele>
        <time>2018-12-11T09:44:57Z</time>
      </trkpt>
      <trkpt lat="42.97161" lon="0.32701">
        <ele>1681</ele>
        <time>2018-12-11T09:45:02Z</time>
      </trkpt>
      <trkpt lat="42.97161" lon="0.32704">
        <ele>1681</ele>
        <time>2018-12-11T09:45:08Z</time>
      </trkpt>
      <trkpt lat="42.97162" lon="0.32707">
        <ele>1681</ele>
        <time>2018-12-11T09:45:11Z</time>
      </trkpt>
      <trkpt lat="42.97162" lon="0.32709">
        <ele>1682</ele>
        <time>2018-12-11T09:45:16Z</time>
      </trkpt>
      <trkpt lat="42.97162" lon="0.32713">
        <ele>1682</ele>
        <time>2018-12-11T09:45:22Z</time>
      </trkpt>
      <trkpt lat="42.97161" lon="0.32715">
        <ele>1682</ele>
        <time>2018-12-11T09:45:27Z</time>
      </trkpt>
      <trkpt lat="42.97162" lon="0.32717">
        <ele>1683</ele>
        <time>2018-12-11T09:45:30Z</time>
      </trkpt>
      <trkpt lat="42.97163" lon="0.3272">
        <ele>1683</ele>
        <time>2018-12-11T09:45:34Z</time>
      </trkpt>
      <trkpt lat="42.97163" lon="0.32725">
        <ele>1684</ele>
        <time>2018-12-11T09:45:44Z</time>
      </trkpt>
      <trkpt lat="42.97164" lon="0.32728">
        <ele>1684</ele>
        <time>2018-12-11T09:45:48Z</time>
      </trkpt>
      <trkpt lat="42.97167" lon="0.32729">
        <ele>1684</ele>
        <time>2018-12-11T09:45:51Z</time>
      </trkpt>
      <trkpt lat="42.97168" lon="0.32734">
        <ele>1685</ele>
        <time>2018-12-11T09:46:02Z</time>
      </trkpt>
      <trkpt lat="42.97169" lon="0.32737">
        <ele>1685</ele>
        <time>2018-12-11T09:46:05Z</time>
      </trkpt>
      <trkpt lat="42.97171" lon="0.32742">
        <ele>1686</ele>
        <time>2018-12-11T09:46:15Z</time>
      </trkpt>
      <trkpt lat="42.97174" lon="0.32744">
        <ele>1687</ele>
        <time>2018-12-11T09:46:20Z</time>
      </trkpt>
      <trkpt lat="42.97176" lon="0.32748">
        <ele>1688</ele>
        <time>2018-12-11T09:46:27Z</time>
      </trkpt>
      <trkpt lat="42.97177" lon="0.32752">
        <ele>1688</ele>
        <time>2018-12-11T09:46:32Z</time>
      </trkpt>
      <trkpt lat="42.97179" lon="0.32755">
        <ele>1689</ele>
        <time>2018-12-11T09:46:37Z</time>
      </trkpt>
      <trkpt lat="42.97182" lon="0.32756">
        <ele>1689</ele>
        <time>2018-12-11T09:46:41Z</time>
      </trkpt>
      <trkpt lat="42.97188" lon="0.32759">
        <ele>1690</ele>
        <time>2018-12-11T09:46:55Z</time>
      </trkpt>
      <trkpt lat="42.97189" lon="0.32763">
        <ele>1691</ele>
        <time>2018-12-11T09:47:01Z</time>
      </trkpt>
      <trkpt lat="42.9719" lon="0.32767">
        <ele>1691</ele>
        <time>2018-12-11T09:47:05Z</time>
      </trkpt>
      <trkpt lat="42.97189" lon="0.3277">
        <ele>1691</ele>
        <time>2018-12-11T09:47:10Z</time>
      </trkpt>
      <trkpt lat="42.97189" lon="0.32775">
        <ele>1692</ele>
        <time>2018-12-11T09:47:20Z</time>
      </trkpt>
      <trkpt lat="42.97192" lon="0.32776">
        <ele>1692</ele>
        <time>2018-12-11T09:47:27Z</time>
      </trkpt>
      <trkpt lat="42.97194" lon="0.32779">
        <ele>1694</ele>
        <time>2018-12-11T09:47:36Z</time>
      </trkpt>
      <trkpt lat="42.97196" lon="0.32782">
        <ele>1695</ele>
        <time>2018-12-11T09:47:43Z</time>
      </trkpt>
      <trkpt lat="42.97198" lon="0.32785">
        <ele>1695</ele>
        <time>2018-12-11T09:47:51Z</time>
      </trkpt>
      <trkpt lat="42.97201" lon="0.32787">
        <ele>1697</ele>
        <time>2018-12-11T09:47:56Z</time>
      </trkpt>
      <trkpt lat="42.97204" lon="0.32794">
        <ele>1699</ele>
        <time>2018-12-11T09:48:11Z</time>
      </trkpt>
      <trkpt lat="42.97205" lon="0.32798">
        <ele>1699</ele>
        <time>2018-12-11T09:48:17Z</time>
      </trkpt>
      <trkpt lat="42.97207" lon="0.32799">
        <ele>1701</ele>
        <time>2018-12-11T09:48:22Z</time>
      </trkpt>
      <trkpt lat="42.9721" lon="0.32802">
        <ele>1702</ele>
        <time>2018-12-11T09:48:39Z</time>
      </trkpt>
      <trkpt lat="42.97211" lon="0.32806">
        <ele>1704</ele>
        <time>2018-12-11T09:48:43Z</time>
      </trkpt>
      <trkpt lat="42.97212" lon="0.32809">
        <ele>1705</ele>
        <time>2018-12-11T09:48:51Z</time>
      </trkpt>
      <trkpt lat="42.97211" lon="0.32815">
        <ele>1706</ele>
        <time>2018-12-11T09:48:56Z</time>
      </trkpt>
      <trkpt lat="42.97211" lon="0.32819">
        <ele>1707</ele>
        <time>2018-12-11T09:49:02Z</time>
      </trkpt>
      <trkpt lat="42.9721" lon="0.32822">
        <ele>1708</ele>
        <time>2018-12-11T09:49:07Z</time>
      </trkpt>
      <trkpt lat="42.97206" lon="0.32825">
        <ele>1710</ele>
        <time>2018-12-11T09:49:14Z</time>
      </trkpt>
      <trkpt lat="42.97205" lon="0.32828">
        <ele>1710</ele>
        <time>2018-12-11T09:49:18Z</time>
      </trkpt>
      <trkpt lat="42.97204" lon="0.3283">
        <ele>1712</ele>
        <time>2018-12-11T09:49:22Z</time>
      </trkpt>
      <trkpt lat="42.97202" lon="0.32833">
        <ele>1712</ele>
        <time>2018-12-11T09:49:24Z</time>
      </trkpt>
      <trkpt lat="42.97199" lon="0.32844">
        <ele>1720</ele>
        <time>2018-12-11T09:49:47Z</time>
      </trkpt>
      <trkpt lat="42.97198" lon="0.32846">
        <ele>1720</ele>
        <time>2018-12-11T09:49:49Z</time>
      </trkpt>
      <trkpt lat="42.97199" lon="0.3285">
        <ele>1722</ele>
        <time>2018-12-11T09:49:58Z</time>
      </trkpt>
      <trkpt lat="42.97197" lon="0.32851">
        <ele>1724</ele>
        <time>2018-12-11T09:50:01Z</time>
      </trkpt>
      <trkpt lat="42.97196" lon="0.32856">
        <ele>1727</ele>
        <time>2018-12-11T09:51:01Z</time>
      </trkpt>
      <trkpt lat="42.97192" lon="0.32866">
        <ele>1735</ele>
        <time>2018-12-11T09:52:11Z</time>
      </trkpt>
      <trkpt lat="42.9719" lon="0.32867">
        <ele>1736</ele>
        <time>2018-12-11T09:52:24Z</time>
      </trkpt>
      <trkpt lat="42.9719" lon="0.32871">
        <ele>1737</ele>
        <time>2018-12-11T09:52:44Z</time>
      </trkpt>
      <trkpt lat="42.97185" lon="0.32896">
        <ele>1743</ele>
        <time>2018-12-11T09:53:02Z</time>
      </trkpt>
      <trkpt lat="42.97179" lon="0.32911">
        <ele>1746</ele>
        <time>2018-12-11T09:53:14Z</time>
      </trkpt>
      <trkpt lat="42.97177" lon="0.32914">
        <ele>1746</ele>
        <time>2018-12-11T09:53:17Z</time>
      </trkpt>
      <trkpt lat="42.97175" lon="0.32922">
        <ele>1748</ele>
        <time>2018-12-11T09:53:27Z</time>
      </trkpt>
      <trkpt lat="42.97174" lon="0.32927">
        <ele>1749</ele>
        <time>2018-12-11T09:53:30Z</time>
      </trkpt>
      <trkpt lat="42.97168" lon="0.32936">
        <ele>1750</ele>
        <time>2018-12-11T09:53:39Z</time>
      </trkpt>
      <trkpt lat="42.97167" lon="0.3294">
        <ele>1751</ele>
        <time>2018-12-11T09:53:43Z</time>
      </trkpt>
      <trkpt lat="42.97166" lon="0.32945">
        <ele>1752</ele>
        <time>2018-12-11T09:53:51Z</time>
      </trkpt>
      <trkpt lat="42.97162" lon="0.32962">
        <ele>1754</ele>
        <time>2018-12-11T09:54:10Z</time>
      </trkpt>
      <trkpt lat="42.97158" lon="0.3297">
        <ele>1755</ele>
        <time>2018-12-11T09:54:18Z</time>
      </trkpt>
      <trkpt lat="42.9716" lon="0.32975">
        <ele>1755</ele>
        <time>2018-12-11T09:54:24Z</time>
      </trkpt>
      <trkpt lat="42.97159" lon="0.32978">
        <ele>1756</ele>
        <time>2018-12-11T09:54:28Z</time>
      </trkpt>
      <trkpt lat="42.97157" lon="0.32982">
        <ele>1756</ele>
        <time>2018-12-11T09:54:32Z</time>
      </trkpt>
      <trkpt lat="42.97153" lon="0.32988">
        <ele>1757</ele>
        <time>2018-12-11T09:54:39Z</time>
      </trkpt>
      <trkpt lat="42.97151" lon="0.32989">
        <ele>1758</ele>
        <time>2018-12-11T09:54:45Z</time>
      </trkpt>
      <trkpt lat="42.9715" lon="0.32991">
        <ele>1758</ele>
        <time>2018-12-11T09:54:55Z</time>
      </trkpt>
      <trkpt lat="42.97149" lon="0.32995">
        <ele>1758</ele>
        <time>2018-12-11T09:55:28Z</time>
      </trkpt>
      <trkpt lat="42.97149" lon="0.32998">
        <ele>1759</ele>
        <time>2018-12-11T09:56:02Z</time>
      </trkpt>
      <trkpt lat="42.97147" lon="0.32997">
        <ele>1760</ele>
        <time>2018-12-11T09:56:32Z</time>
      </trkpt>
      <trkpt lat="42.97147" lon="0.32997">
        <ele>1762</ele>
        <time>2018-12-11T09:58:24Z</time>
      </trkpt>
      <trkpt lat="42.97148" lon="0.33">
        <ele>1763</ele>
        <time>2018-12-11T09:58:42Z</time>
      </trkpt>
      <trkpt lat="42.97149" lon="0.33002">
        <ele>1764</ele>
        <time>2018-12-11T09:58:44Z</time>
      </trkpt>
      <trkpt lat="42.97156" lon="0.33013">
        <ele>1765</ele>
        <time>2018-12-11T09:58:57Z</time>
      </trkpt>
      <trkpt lat="42.97161" lon="0.33018">
        <ele>1766</ele>
        <time>2018-12-11T09:59:01Z</time>
      </trkpt>
      <trkpt lat="42.97169" lon="0.33021">
        <ele>1767</ele>
        <time>2018-12-11T09:59:07Z</time>
      </trkpt>
      <trkpt lat="42.9717" lon="0.33023">
        <ele>1767</ele>
        <time>2018-12-11T09:59:09Z</time>
      </trkpt>
      <trkpt lat="42.97171" lon="0.33025">
        <ele>1767</ele>
        <time>2018-12-11T09:59:15Z</time>
      </trkpt>
      <trkpt lat="42.97172" lon="0.33028">
        <ele>1768</ele>
        <time>2018-12-11T09:59:30Z</time>
      </trkpt>
      <trkpt lat="42.97173" lon="0.33031">
        <ele>1768</ele>
        <time>2018-12-11T09:59:36Z</time>
      </trkpt>
      <trkpt lat="42.97176" lon="0.33038">
        <ele>1768</ele>
        <time>2018-12-11T09:59:40Z</time>
      </trkpt>
      <trkpt lat="42.97177" lon="0.33042">
        <ele>1769</ele>
        <time>2018-12-11T09:59:42Z</time>
      </trkpt>
      <trkpt lat="42.9718" lon="0.33056">
        <ele>1769</ele>
        <time>2018-12-11T09:59:50Z</time>
      </trkpt>
      <trkpt lat="42.97187" lon="0.33072">
        <ele>1770</ele>
        <time>2018-12-11T10:00:02Z</time>
      </trkpt>
      <trkpt lat="42.97194" lon="0.33089">
        <ele>1770</ele>
        <time>2018-12-11T10:00:15Z</time>
      </trkpt>
      <trkpt lat="42.97195" lon="0.33097">
        <ele>1771</ele>
        <time>2018-12-11T10:00:23Z</time>
      </trkpt>
      <trkpt lat="42.97195" lon="0.33101">
        <ele>1771</ele>
        <time>2018-12-11T10:00:26Z</time>
      </trkpt>
      <trkpt lat="42.97194" lon="0.33106">
        <ele>1771</ele>
        <time>2018-12-11T10:00:30Z</time>
      </trkpt>
      <trkpt lat="42.97194" lon="0.3311">
        <ele>1771</ele>
        <time>2018-12-11T10:00:33Z</time>
      </trkpt>
      <trkpt lat="42.97196" lon="0.3312">
        <ele>1771</ele>
        <time>2018-12-11T10:00:39Z</time>
      </trkpt>
      <trkpt lat="42.97198" lon="0.33128">
        <ele>1771</ele>
        <time>2018-12-11T10:00:45Z</time>
      </trkpt>
      <trkpt lat="42.97199" lon="0.33132">
        <ele>1771</ele>
        <time>2018-12-11T10:00:48Z</time>
      </trkpt>
      <trkpt lat="42.972" lon="0.33136">
        <ele>1771</ele>
        <time>2018-12-11T10:00:51Z</time>
      </trkpt>
      <trkpt lat="42.97202" lon="0.33159">
        <ele>1771</ele>
        <time>2018-12-11T10:01:05Z</time>
      </trkpt>
      <trkpt lat="42.97201" lon="0.33163">
        <ele>1771</ele>
        <time>2018-12-11T10:01:08Z</time>
      </trkpt>
      <trkpt lat="42.9721" lon="0.33203">
        <ele>1771</ele>
        <time>2018-12-11T10:01:35Z</time>
      </trkpt>
      <trkpt lat="42.9721" lon="0.33207">
        <ele>1771</ele>
        <time>2018-12-11T10:01:37Z</time>
      </trkpt>
      <trkpt lat="42.97209" lon="0.33213">
        <ele>1771</ele>
        <time>2018-12-11T10:01:40Z</time>
      </trkpt>
      <trkpt lat="42.97213" lon="0.33246">
        <ele>1771</ele>
        <time>2018-12-11T10:02:08Z</time>
      </trkpt>
      <trkpt lat="42.97218" lon="0.33257">
        <ele>1771</ele>
        <time>2018-12-11T10:02:16Z</time>
      </trkpt>
      <trkpt lat="42.97219" lon="0.33261">
        <ele>1771</ele>
        <time>2018-12-11T10:02:19Z</time>
      </trkpt>
      <trkpt lat="42.97221" lon="0.33265">
        <ele>1771</ele>
        <time>2018-12-11T10:02:22Z</time>
      </trkpt>
      <trkpt lat="42.9723" lon="0.33309">
        <ele>1771</ele>
        <time>2018-12-11T10:02:55Z</time>
      </trkpt>
      <trkpt lat="42.97229" lon="0.33312">
        <ele>1771</ele>
        <time>2018-12-11T10:03:00Z</time>
      </trkpt>
      <trkpt lat="42.97228" lon="0.33314">
        <ele>1771</ele>
        <time>2018-12-11T10:03:03Z</time>
      </trkpt>
      <trkpt lat="42.97228" lon="0.33317">
        <ele>1771</ele>
        <time>2018-12-11T10:03:06Z</time>
      </trkpt>
      <trkpt lat="42.9723" lon="0.33319">
        <ele>1771</ele>
        <time>2018-12-11T10:03:10Z</time>
      </trkpt>
      <trkpt lat="42.97232" lon="0.33319">
        <ele>1771</ele>
        <time>2018-12-11T10:03:13Z</time>
      </trkpt>
      <trkpt lat="42.97242" lon="0.33322">
        <ele>1771</ele>
        <time>2018-12-11T10:03:30Z</time>
      </trkpt>
      <trkpt lat="42.97244" lon="0.33324">
        <ele>1771</ele>
        <time>2018-12-11T10:03:36Z</time>
      </trkpt>
      <trkpt lat="42.97247" lon="0.33332">
        <ele>1771</ele>
        <time>2018-12-11T10:03:43Z</time>
      </trkpt>
      <trkpt lat="42.97248" lon="0.33349">
        <ele>1772</ele>
        <time>2018-12-11T10:03:55Z</time>
      </trkpt>
      <trkpt lat="42.97247" lon="0.33351">
        <ele>1772</ele>
        <time>2018-12-11T10:03:57Z</time>
      </trkpt>
      <trkpt lat="42.97246" lon="0.33368">
        <ele>1772</ele>
        <time>2018-12-11T10:04:09Z</time>
      </trkpt>
      <trkpt lat="42.97243" lon="0.33376">
        <ele>1772</ele>
        <time>2018-12-11T10:04:16Z</time>
      </trkpt>
      <trkpt lat="42.97242" lon="0.33388">
        <ele>1772</ele>
        <time>2018-12-11T10:04:25Z</time>
      </trkpt>
      <trkpt lat="42.97241" lon="0.33397">
        <ele>1773</ele>
        <time>2018-12-11T10:04:31Z</time>
      </trkpt>
      <trkpt lat="42.97242" lon="0.33422">
        <ele>1773</ele>
        <time>2018-12-11T10:04:54Z</time>
      </trkpt>
      <trkpt lat="42.97242" lon="0.33427">
        <ele>1773</ele>
        <time>2018-12-11T10:04:58Z</time>
      </trkpt>
      <trkpt lat="42.97242" lon="0.33435">
        <ele>1773</ele>
        <time>2018-12-11T10:05:03Z</time>
      </trkpt>
      <trkpt lat="42.97242" lon="0.33443">
        <ele>1774</ele>
        <time>2018-12-11T10:05:10Z</time>
      </trkpt>
      <trkpt lat="42.97243" lon="0.33451">
        <ele>1774</ele>
        <time>2018-12-11T10:05:17Z</time>
      </trkpt>
      <trkpt lat="42.97241" lon="0.33452">
        <ele>1774</ele>
        <time>2018-12-11T10:05:33Z</time>
      </trkpt>
      <trkpt lat="42.97244" lon="0.33455">
        <ele>1775</ele>
        <time>2018-12-11T10:06:39Z</time>
      </trkpt>
      <trkpt lat="42.97245" lon="0.33458">
        <ele>1775</ele>
        <time>2018-12-11T10:06:42Z</time>
      </trkpt>
      <trkpt lat="42.97247" lon="0.33465">
        <ele>1777</ele>
        <time>2018-12-11T10:07:38Z</time>
      </trkpt>
      <trkpt lat="42.97248" lon="0.33468">
        <ele>1778</ele>
        <time>2018-12-11T10:08:47Z</time>
      </trkpt>
      <trkpt lat="42.97248" lon="0.33476">
        <ele>1780</ele>
        <time>2018-12-11T10:09:18Z</time>
      </trkpt>
      <trkpt lat="42.97252" lon="0.33475">
        <ele>1781</ele>
        <time>2018-12-11T10:09:53Z</time>
      </trkpt>
      <trkpt lat="42.97251" lon="0.33472">
        <ele>1781</ele>
        <time>2018-12-11T10:10:28Z</time>
      </trkpt>
      <trkpt lat="42.97249" lon="0.33476">
        <ele>1782</ele>
        <time>2018-12-11T10:11:32Z</time>
      </trkpt>
      <trkpt lat="42.97249" lon="0.33476">
        <ele>1784</ele>
        <time>2018-12-11T10:13:32Z</time>
      </trkpt>
      <trkpt lat="42.97249" lon="0.33472">
        <ele>1784</ele>
        <time>2018-12-11T10:14:50Z</time>
      </trkpt>
      <trkpt lat="42.97249" lon="0.33467">
        <ele>1786</ele>
        <time>2018-12-11T10:14:54Z</time>
      </trkpt>
      <trkpt lat="42.97249" lon="0.33463">
        <ele>1786</ele>
        <time>2018-12-11T10:15:02Z</time>
      </trkpt>
      <trkpt lat="42.97247" lon="0.33447">
        <ele>1787</ele>
        <time>2018-12-11T10:15:17Z</time>
      </trkpt>
      <trkpt lat="42.97247" lon="0.33438">
        <ele>1788</ele>
        <time>2018-12-11T10:15:24Z</time>
      </trkpt>
      <trkpt lat="42.97247" lon="0.33417">
        <ele>1788</ele>
        <time>2018-12-11T10:15:41Z</time>
      </trkpt>
      <trkpt lat="42.97246" lon="0.33414">
        <ele>1788</ele>
        <time>2018-12-11T10:15:43Z</time>
      </trkpt>
      <trkpt lat="42.97247" lon="0.33405">
        <ele>1788</ele>
        <time>2018-12-11T10:15:51Z</time>
      </trkpt>
      <trkpt lat="42.97245" lon="0.33397">
        <ele>1789</ele>
        <time>2018-12-11T10:15:56Z</time>
      </trkpt>
      <trkpt lat="42.97245" lon="0.33393">
        <ele>1789</ele>
        <time>2018-12-11T10:16:00Z</time>
      </trkpt>
      <trkpt lat="42.97247" lon="0.3338">
        <ele>1789</ele>
        <time>2018-12-11T10:16:07Z</time>
      </trkpt>
      <trkpt lat="42.97248" lon="0.33376">
        <ele>1789</ele>
        <time>2018-12-11T10:16:11Z</time>
      </trkpt>
      <trkpt lat="42.9725" lon="0.33371">
        <ele>1789</ele>
        <time>2018-12-11T10:16:18Z</time>
      </trkpt>
      <trkpt lat="42.97249" lon="0.33363">
        <ele>1789</ele>
        <time>2018-12-11T10:16:22Z</time>
      </trkpt>
      <trkpt lat="42.97249" lon="0.33359">
        <ele>1789</ele>
        <time>2018-12-11T10:16:25Z</time>
      </trkpt>
      <trkpt lat="42.97251" lon="0.33351">
        <ele>1789</ele>
        <time>2018-12-11T10:16:31Z</time>
      </trkpt>
      <trkpt lat="42.97252" lon="0.33333">
        <ele>1789</ele>
        <time>2018-12-11T10:16:49Z</time>
      </trkpt>
      <trkpt lat="42.97251" lon="0.3333">
        <ele>1789</ele>
        <time>2018-12-11T10:16:58Z</time>
      </trkpt>
      <trkpt lat="42.97252" lon="0.33325">
        <ele>1789</ele>
        <time>2018-12-11T10:17:19Z</time>
      </trkpt>
      <trkpt lat="42.97252" lon="0.33311">
        <ele>1789</ele>
        <time>2018-12-11T10:17:28Z</time>
      </trkpt>
      <trkpt lat="42.97252" lon="0.33303">
        <ele>1789</ele>
        <time>2018-12-11T10:17:35Z</time>
      </trkpt>
      <trkpt lat="42.97258" lon="0.33282">
        <ele>1789</ele>
        <time>2018-12-11T10:17:54Z</time>
      </trkpt>
      <trkpt lat="42.97259" lon="0.33277">
        <ele>1789</ele>
        <time>2018-12-11T10:17:57Z</time>
      </trkpt>
      <trkpt lat="42.97258" lon="0.33267">
        <ele>1789</ele>
        <time>2018-12-11T10:18:03Z</time>
      </trkpt>
      <trkpt lat="42.97255" lon="0.33265">
        <ele>1789</ele>
        <time>2018-12-11T10:18:08Z</time>
      </trkpt>
      <trkpt lat="42.97252" lon="0.33265">
        <ele>1789</ele>
        <time>2018-12-11T10:18:12Z</time>
      </trkpt>
      <trkpt lat="42.97251" lon="0.33261">
        <ele>1789</ele>
        <time>2018-12-11T10:18:16Z</time>
      </trkpt>
      <trkpt lat="42.97248" lon="0.33259">
        <ele>1789</ele>
        <time>2018-12-11T10:18:19Z</time>
      </trkpt>
      <trkpt lat="42.97246" lon="0.33257">
        <ele>1789</ele>
        <time>2018-12-11T10:18:21Z</time>
      </trkpt>
      <trkpt lat="42.97242" lon="0.33251">
        <ele>1789</ele>
        <time>2018-12-11T10:18:25Z</time>
      </trkpt>
      <trkpt lat="42.9724" lon="0.33249">
        <ele>1789</ele>
        <time>2018-12-11T10:18:28Z</time>
      </trkpt>
      <trkpt lat="42.97235" lon="0.33242">
        <ele>1789</ele>
        <time>2018-12-11T10:18:34Z</time>
      </trkpt>
      <trkpt lat="42.97236" lon="0.33231">
        <ele>1789</ele>
        <time>2018-12-11T10:18:40Z</time>
      </trkpt>
      <trkpt lat="42.97231" lon="0.33217">
        <ele>1789</ele>
        <time>2018-12-11T10:18:48Z</time>
      </trkpt>
      <trkpt lat="42.9723" lon="0.33213">
        <ele>1789</ele>
        <time>2018-12-11T10:18:51Z</time>
      </trkpt>
      <trkpt lat="42.97229" lon="0.33204">
        <ele>1789</ele>
        <time>2018-12-11T10:18:56Z</time>
      </trkpt>
      <trkpt lat="42.97229" lon="0.332">
        <ele>1789</ele>
        <time>2018-12-11T10:18:59Z</time>
      </trkpt>
      <trkpt lat="42.97227" lon="0.33181">
        <ele>1788</ele>
        <time>2018-12-11T10:19:10Z</time>
      </trkpt>
      <trkpt lat="42.97223" lon="0.3317">
        <ele>1788</ele>
        <time>2018-12-11T10:19:18Z</time>
      </trkpt>
      <trkpt lat="42.9722" lon="0.33132">
        <ele>1788</ele>
        <time>2018-12-11T10:19:42Z</time>
      </trkpt>
      <trkpt lat="42.97219" lon="0.33128">
        <ele>1788</ele>
        <time>2018-12-11T10:19:46Z</time>
      </trkpt>
      <trkpt lat="42.97218" lon="0.33123">
        <ele>1788</ele>
        <time>2018-12-11T10:19:49Z</time>
      </trkpt>
      <trkpt lat="42.97218" lon="0.33119">
        <ele>1787</ele>
        <time>2018-12-11T10:19:52Z</time>
      </trkpt>
      <trkpt lat="42.97219" lon="0.33114">
        <ele>1787</ele>
        <time>2018-12-11T10:19:55Z</time>
      </trkpt>
      <trkpt lat="42.97222" lon="0.33063">
        <ele>1787</ele>
        <time>2018-12-11T10:20:27Z</time>
      </trkpt>
      <trkpt lat="42.97221" lon="0.33042">
        <ele>1786</ele>
        <time>2018-12-11T10:20:38Z</time>
      </trkpt>
      <trkpt lat="42.97221" lon="0.33027">
        <ele>1786</ele>
        <time>2018-12-11T10:20:47Z</time>
      </trkpt>
      <trkpt lat="42.9722" lon="0.33017">
        <ele>1786</ele>
        <time>2018-12-11T10:20:53Z</time>
      </trkpt>
      <trkpt lat="42.97219" lon="0.33009">
        <ele>1786</ele>
        <time>2018-12-11T10:21:01Z</time>
      </trkpt>
      <trkpt lat="42.97215" lon="0.3298">
        <ele>1785</ele>
        <time>2018-12-11T10:21:19Z</time>
      </trkpt>
      <trkpt lat="42.97215" lon="0.32967">
        <ele>1785</ele>
        <time>2018-12-11T10:21:26Z</time>
      </trkpt>
      <trkpt lat="42.97212" lon="0.32941">
        <ele>1785</ele>
        <time>2018-12-11T10:21:43Z</time>
      </trkpt>
      <trkpt lat="42.97213" lon="0.32932">
        <ele>1785</ele>
        <time>2018-12-11T10:21:48Z</time>
      </trkpt>
      <trkpt lat="42.97212" lon="0.32927">
        <ele>1785</ele>
        <time>2018-12-11T10:21:52Z</time>
      </trkpt>
      <trkpt lat="42.97215" lon="0.32911">
        <ele>1784</ele>
        <time>2018-12-11T10:22:01Z</time>
      </trkpt>
      <trkpt lat="42.97215" lon="0.32906">
        <ele>1784</ele>
        <time>2018-12-11T10:22:04Z</time>
      </trkpt>
      <trkpt lat="42.97216" lon="0.32901">
        <ele>1784</ele>
        <time>2018-12-11T10:22:07Z</time>
      </trkpt>
      <trkpt lat="42.97217" lon="0.32889">
        <ele>1784</ele>
        <time>2018-12-11T10:22:17Z</time>
      </trkpt>
      <trkpt lat="42.9722" lon="0.32875">
        <ele>1784</ele>
        <time>2018-12-11T10:22:28Z</time>
      </trkpt>
      <trkpt lat="42.97221" lon="0.32871">
        <ele>1784</ele>
        <time>2018-12-11T10:22:30Z</time>
      </trkpt>
      <trkpt lat="42.97221" lon="0.32857">
        <ele>1783</ele>
        <time>2018-12-11T10:22:38Z</time>
      </trkpt>
      <trkpt lat="42.97219" lon="0.32844">
        <ele>1783</ele>
        <time>2018-12-11T10:22:47Z</time>
      </trkpt>
      <trkpt lat="42.97218" lon="0.3284">
        <ele>1783</ele>
        <time>2018-12-11T10:22:51Z</time>
      </trkpt>
      <trkpt lat="42.97214" lon="0.32824">
        <ele>1783</ele>
        <time>2018-12-11T10:23:02Z</time>
      </trkpt>
      <trkpt lat="42.97212" lon="0.32817">
        <ele>1782</ele>
        <time>2018-12-11T10:23:10Z</time>
      </trkpt>
      <trkpt lat="42.9721" lon="0.32814">
        <ele>1782</ele>
        <time>2018-12-11T10:23:13Z</time>
      </trkpt>
      <trkpt lat="42.97209" lon="0.3281">
        <ele>1782</ele>
        <time>2018-12-11T10:23:17Z</time>
      </trkpt>
      <trkpt lat="42.97209" lon="0.32806">
        <ele>1782</ele>
        <time>2018-12-11T10:23:20Z</time>
      </trkpt>
      <trkpt lat="42.97209" lon="0.32802">
        <ele>1782</ele>
        <time>2018-12-11T10:23:24Z</time>
      </trkpt>
      <trkpt lat="42.97203" lon="0.32798">
        <ele>1781</ele>
        <time>2018-12-11T10:23:40Z</time>
      </trkpt>
      <trkpt lat="42.97199" lon="0.32797">
        <ele>1781</ele>
        <time>2018-12-11T10:23:45Z</time>
      </trkpt>
      <trkpt lat="42.97201" lon="0.32792">
        <ele>1781</ele>
        <time>2018-12-11T10:23:51Z</time>
      </trkpt>
      <trkpt lat="42.97197" lon="0.3279">
        <ele>1781</ele>
        <time>2018-12-11T10:24:13Z</time>
      </trkpt>
      <trkpt lat="42.9719" lon="0.32783">
        <ele>1780</ele>
        <time>2018-12-11T10:24:22Z</time>
      </trkpt>
      <trkpt lat="42.97188" lon="0.32779">
        <ele>1780</ele>
        <time>2018-12-11T10:24:28Z</time>
      </trkpt>
      <trkpt lat="42.97185" lon="0.32778">
        <ele>1780</ele>
        <time>2018-12-11T10:24:34Z</time>
      </trkpt>
      <trkpt lat="42.97184" lon="0.32772">
        <ele>1780</ele>
        <time>2018-12-11T10:24:44Z</time>
      </trkpt>
      <trkpt lat="42.9718" lon="0.32771">
        <ele>1780</ele>
        <time>2018-12-11T10:24:50Z</time>
      </trkpt>
      <trkpt lat="42.97177" lon="0.32767">
        <ele>1779</ele>
        <time>2018-12-11T10:24:54Z</time>
      </trkpt>
      <trkpt lat="42.97176" lon="0.32762">
        <ele>1779</ele>
        <time>2018-12-11T10:24:58Z</time>
      </trkpt>
      <trkpt lat="42.97176" lon="0.32755">
        <ele>1779</ele>
        <time>2018-12-11T10:25:03Z</time>
      </trkpt>
      <trkpt lat="42.97177" lon="0.32751">
        <ele>1778</ele>
        <time>2018-12-11T10:25:08Z</time>
      </trkpt>
      <trkpt lat="42.97171" lon="0.32743">
        <ele>1778</ele>
        <time>2018-12-11T10:25:13Z</time>
      </trkpt>
      <trkpt lat="42.97168" lon="0.32742">
        <ele>1777</ele>
        <time>2018-12-11T10:25:19Z</time>
      </trkpt>
      <trkpt lat="42.97169" lon="0.32719">
        <ele>1774</ele>
        <time>2018-12-11T10:25:35Z</time>
      </trkpt>
      <trkpt lat="42.97167" lon="0.32715">
        <ele>1773</ele>
        <time>2018-12-11T10:26:04Z</time>
      </trkpt>
      <trkpt lat="42.97164" lon="0.32712">
        <ele>1769</ele>
        <time>2018-12-11T10:26:12Z</time>
      </trkpt>
      <trkpt lat="42.97161" lon="0.3271">
        <ele>1768</ele>
        <time>2018-12-11T10:26:17Z</time>
      </trkpt>
      <trkpt lat="42.97157" lon="0.32707">
        <ele>1766</ele>
        <time>2018-12-11T10:26:20Z</time>
      </trkpt>
      <trkpt lat="42.97155" lon="0.32704">
        <ele>1765</ele>
        <time>2018-12-11T10:26:24Z</time>
      </trkpt>
      <trkpt lat="42.97152" lon="0.32699">
        <ele>1763</ele>
        <time>2018-12-11T10:26:29Z</time>
      </trkpt>
      <trkpt lat="42.9715" lon="0.32695">
        <ele>1763</ele>
        <time>2018-12-11T10:26:35Z</time>
      </trkpt>
      <trkpt lat="42.9715" lon="0.3269">
        <ele>1761</ele>
        <time>2018-12-11T10:26:41Z</time>
      </trkpt>
      <trkpt lat="42.9715" lon="0.32684">
        <ele>1759</ele>
        <time>2018-12-11T10:26:47Z</time>
      </trkpt>
      <trkpt lat="42.97148" lon="0.32679">
        <ele>1758</ele>
        <time>2018-12-11T10:26:53Z</time>
      </trkpt>
      <trkpt lat="42.97144" lon="0.32676">
        <ele>1756</ele>
        <time>2018-12-11T10:26:56Z</time>
      </trkpt>
      <trkpt lat="42.9714" lon="0.32674">
        <ele>1756</ele>
        <time>2018-12-11T10:27:00Z</time>
      </trkpt>
      <trkpt lat="42.97137" lon="0.32672">
        <ele>1754</ele>
        <time>2018-12-11T10:27:05Z</time>
      </trkpt>
      <trkpt lat="42.97134" lon="0.32669">
        <ele>1754</ele>
        <time>2018-12-11T10:27:11Z</time>
      </trkpt>
      <trkpt lat="42.97132" lon="0.32664">
        <ele>1752</ele>
        <time>2018-12-11T10:27:15Z</time>
      </trkpt>
      <trkpt lat="42.9713" lon="0.3266">
        <ele>1752</ele>
        <time>2018-12-11T10:27:20Z</time>
      </trkpt>
      <trkpt lat="42.97128" lon="0.32656">
        <ele>1750</ele>
        <time>2018-12-11T10:27:25Z</time>
      </trkpt>
      <trkpt lat="42.97125" lon="0.32651">
        <ele>1750</ele>
        <time>2018-12-11T10:27:31Z</time>
      </trkpt>
      <trkpt lat="42.97122" lon="0.32647">
        <ele>1748</ele>
        <time>2018-12-11T10:27:35Z</time>
      </trkpt>
      <trkpt lat="42.9712" lon="0.32643">
        <ele>1748</ele>
        <time>2018-12-11T10:27:39Z</time>
      </trkpt>
      <trkpt lat="42.97109" lon="0.32624">
        <ele>1744</ele>
        <time>2018-12-11T10:27:56Z</time>
      </trkpt>
      <trkpt lat="42.97107" lon="0.32618">
        <ele>1744</ele>
        <time>2018-12-11T10:28:00Z</time>
      </trkpt>
      <trkpt lat="42.97103" lon="0.3261">
        <ele>1742</ele>
        <time>2018-12-11T10:28:09Z</time>
      </trkpt>
      <trkpt lat="42.97093" lon="0.32578">
        <ele>1738</ele>
        <time>2018-12-11T10:28:28Z</time>
      </trkpt>
      <trkpt lat="42.97084" lon="0.32559">
        <ele>1733</ele>
        <time>2018-12-11T10:28:46Z</time>
      </trkpt>
      <trkpt lat="42.97081" lon="0.32555">
        <ele>1732</ele>
        <time>2018-12-11T10:28:50Z</time>
      </trkpt>
      <trkpt lat="42.97079" lon="0.32549">
        <ele>1730</ele>
        <time>2018-12-11T10:28:55Z</time>
      </trkpt>
      <trkpt lat="42.97079" lon="0.32544">
        <ele>1729</ele>
        <time>2018-12-11T10:28:59Z</time>
      </trkpt>
      <trkpt lat="42.97076" lon="0.32539">
        <ele>1728</ele>
        <time>2018-12-11T10:29:03Z</time>
      </trkpt>
      <trkpt lat="42.97074" lon="0.32537">
        <ele>1727</ele>
        <time>2018-12-11T10:29:05Z</time>
      </trkpt>
      <trkpt lat="42.9707" lon="0.32529">
        <ele>1725</ele>
        <time>2018-12-11T10:29:12Z</time>
      </trkpt>
      <trkpt lat="42.97065" lon="0.32524">
        <ele>1723</ele>
        <time>2018-12-11T10:29:17Z</time>
      </trkpt>
      <trkpt lat="42.97063" lon="0.3252">
        <ele>1721</ele>
        <time>2018-12-11T10:29:20Z</time>
      </trkpt>
      <trkpt lat="42.97061" lon="0.32511">
        <ele>1719</ele>
        <time>2018-12-11T10:29:25Z</time>
      </trkpt>
      <trkpt lat="42.97059" lon="0.32508">
        <ele>1718</ele>
        <time>2018-12-11T10:29:28Z</time>
      </trkpt>
      <trkpt lat="42.97059" lon="0.32504">
        <ele>1717</ele>
        <time>2018-12-11T10:29:31Z</time>
      </trkpt>
      <trkpt lat="42.97059" lon="0.325">
        <ele>1716</ele>
        <time>2018-12-11T10:29:34Z</time>
      </trkpt>
      <trkpt lat="42.97053" lon="0.32487">
        <ele>1713</ele>
        <time>2018-12-11T10:29:42Z</time>
      </trkpt>
      <trkpt lat="42.9705" lon="0.32472">
        <ele>1709</ele>
        <time>2018-12-11T10:29:53Z</time>
      </trkpt>
      <trkpt lat="42.97048" lon="0.32463">
        <ele>1706</ele>
        <time>2018-12-11T10:29:59Z</time>
      </trkpt>
      <trkpt lat="42.97046" lon="0.32454">
        <ele>1704</ele>
        <time>2018-12-11T10:30:05Z</time>
      </trkpt>
      <trkpt lat="42.97043" lon="0.32437">
        <ele>1702</ele>
        <time>2018-12-11T10:30:15Z</time>
      </trkpt>
      <trkpt lat="42.97042" lon="0.32432">
        <ele>1701</ele>
        <time>2018-12-11T10:30:18Z</time>
      </trkpt>
      <trkpt lat="42.9704" lon="0.32429">
        <ele>1700</ele>
        <time>2018-12-11T10:30:21Z</time>
      </trkpt>
      <trkpt lat="42.97039" lon="0.3242">
        <ele>1699</ele>
        <time>2018-12-11T10:30:28Z</time>
      </trkpt>
      <trkpt lat="42.97036" lon="0.32411">
        <ele>1697</ele>
        <time>2018-12-11T10:30:34Z</time>
      </trkpt>
      <trkpt lat="42.97036" lon="0.32406">
        <ele>1696</ele>
        <time>2018-12-11T10:30:37Z</time>
      </trkpt>
      <trkpt lat="42.97033" lon="0.32398">
        <ele>1695</ele>
        <time>2018-12-11T10:30:43Z</time>
      </trkpt>
      <trkpt lat="42.97028" lon="0.32367">
        <ele>1692</ele>
        <time>2018-12-11T10:31:05Z</time>
      </trkpt>
      <trkpt lat="42.97026" lon="0.32359">
        <ele>1691</ele>
        <time>2018-12-11T10:31:12Z</time>
      </trkpt>
      <trkpt lat="42.97025" lon="0.32356">
        <ele>1691</ele>
        <time>2018-12-11T10:31:15Z</time>
      </trkpt>
      <trkpt lat="42.97025" lon="0.32346">
        <ele>1690</ele>
        <time>2018-12-11T10:31:22Z</time>
      </trkpt>
      <trkpt lat="42.97025" lon="0.32335">
        <ele>1689</ele>
        <time>2018-12-11T10:31:31Z</time>
      </trkpt>
      <trkpt lat="42.97025" lon="0.32308">
        <ele>1688</ele>
        <time>2018-12-11T10:31:54Z</time>
      </trkpt>
      <trkpt lat="42.97025" lon="0.32304">
        <ele>1688</ele>
        <time>2018-12-11T10:31:57Z</time>
      </trkpt>
      <trkpt lat="42.97023" lon="0.32302">
        <ele>1687</ele>
        <time>2018-12-11T10:32:01Z</time>
      </trkpt>
      <trkpt lat="42.97024" lon="0.32299">
        <ele>1686</ele>
        <time>2018-12-11T10:35:13Z</time>
      </trkpt>
      <trkpt lat="42.97025" lon="0.32296">
        <ele>1686</ele>
        <time>2018-12-11T10:36:09Z</time>
      </trkpt>
      <trkpt lat="42.97022" lon="0.32293">
        <ele>1685</ele>
        <time>2018-12-11T10:36:13Z</time>
      </trkpt>
      <trkpt lat="42.97021" lon="0.3229">
        <ele>1685</ele>
        <time>2018-12-11T10:36:16Z</time>
      </trkpt>
      <trkpt lat="42.97021" lon="0.32287">
        <ele>1685</ele>
        <time>2018-12-11T10:36:21Z</time>
      </trkpt>
      <trkpt lat="42.9702" lon="0.32285">
        <ele>1685</ele>
        <time>2018-12-11T10:36:24Z</time>
      </trkpt>
      <trkpt lat="42.97019" lon="0.32283">
        <ele>1685</ele>
        <time>2018-12-11T10:36:27Z</time>
      </trkpt>
      <trkpt lat="42.97017" lon="0.32282">
        <ele>1685</ele>
        <time>2018-12-11T10:36:30Z</time>
      </trkpt>
      <trkpt lat="42.97016" lon="0.3228">
        <ele>1685</ele>
        <time>2018-12-11T10:36:33Z</time>
      </trkpt>
      <trkpt lat="42.97017" lon="0.3228">
        <ele>1685</ele>
        <time>2018-12-11T10:36:59Z</time>
      </trkpt>
      <trkpt lat="42.97019" lon="0.32281">
        <ele>1685</ele>
        <time>2018-12-11T10:37:02Z</time>
      </trkpt>
      <trkpt lat="42.97021" lon="0.3228">
        <ele>1685</ele>
        <time>2018-12-11T10:37:05Z</time>
      </trkpt>
      <trkpt lat="42.9702" lon="0.32277">
        <ele>1685</ele>
        <time>2018-12-11T10:37:08Z</time>
      </trkpt>
      <trkpt lat="42.9702" lon="0.32273">
        <ele>1685</ele>
        <time>2018-12-11T10:37:11Z</time>
      </trkpt>
      <trkpt lat="42.97021" lon="0.3227">
        <ele>1685</ele>
        <time>2018-12-11T10:37:14Z</time>
      </trkpt>
      <trkpt lat="42.9702" lon="0.32268">
        <ele>1685</ele>
        <time>2018-12-11T10:37:17Z</time>
      </trkpt>
      <trkpt lat="42.97019" lon="0.32266">
        <ele>1686</ele>
        <time>2018-12-11T10:37:27Z</time>
      </trkpt>
      <trkpt lat="42.97014" lon="0.32259">
        <ele>1686</ele>
        <time>2018-12-11T10:37:39Z</time>
      </trkpt>
      <trkpt lat="42.97012" lon="0.32258">
        <ele>1686</ele>
        <time>2018-12-11T10:37:42Z</time>
      </trkpt>
      <trkpt lat="42.97011" lon="0.32256">
        <ele>1686</ele>
        <time>2018-12-11T10:37:49Z</time>
      </trkpt>
      <trkpt lat="42.97011" lon="0.32253">
        <ele>1686</ele>
        <time>2018-12-11T10:37:53Z</time>
      </trkpt>
      <trkpt lat="42.9701" lon="0.3225">
        <ele>1686</ele>
        <time>2018-12-11T10:38:03Z</time>
      </trkpt>
      <trkpt lat="42.97009" lon="0.32248">
        <ele>1686</ele>
        <time>2018-12-11T10:38:11Z</time>
      </trkpt>
      <trkpt lat="42.97009" lon="0.32245">
        <ele>1686</ele>
        <time>2018-12-11T10:38:20Z</time>
      </trkpt>
      <trkpt lat="42.97007" lon="0.32241">
        <ele>1687</ele>
        <time>2018-12-11T10:38:24Z</time>
      </trkpt>
      <trkpt lat="42.97006" lon="0.32238">
        <ele>1687</ele>
        <time>2018-12-11T10:38:27Z</time>
      </trkpt>
      <trkpt lat="42.97006" lon="0.32235">
        <ele>1687</ele>
        <time>2018-12-11T10:38:31Z</time>
      </trkpt>
      <trkpt lat="42.97006" lon="0.32232">
        <ele>1687</ele>
        <time>2018-12-11T10:38:36Z</time>
      </trkpt>
      <trkpt lat="42.97006" lon="0.32229">
        <ele>1687</ele>
        <time>2018-12-11T10:38:41Z</time>
      </trkpt>
      <trkpt lat="42.97006" lon="0.32227">
        <ele>1687</ele>
        <time>2018-12-11T10:38:43Z</time>
      </trkpt>
      <trkpt lat="42.97006" lon="0.32224">
        <ele>1687</ele>
        <time>2018-12-11T10:38:46Z</time>
      </trkpt>
      <trkpt lat="42.97006" lon="0.32221">
        <ele>1687</ele>
        <time>2018-12-11T10:38:50Z</time>
      </trkpt>
      <trkpt lat="42.97004" lon="0.32219">
        <ele>1688</ele>
        <time>2018-12-11T10:38:56Z</time>
      </trkpt>
      <trkpt lat="42.97003" lon="0.32218">
        <ele>1688</ele>
        <time>2018-12-11T10:38:59Z</time>
      </trkpt>
      <trkpt lat="42.97001" lon="0.32215">
        <ele>1688</ele>
        <time>2018-12-11T10:39:03Z</time>
      </trkpt>
      <trkpt lat="42.96997" lon="0.32198">
        <ele>1689</ele>
        <time>2018-12-11T10:39:33Z</time>
      </trkpt>
      <trkpt lat="42.96997" lon="0.32193">
        <ele>1690</ele>
        <time>2018-12-11T10:39:45Z</time>
      </trkpt>
      <trkpt lat="42.96996" lon="0.3219">
        <ele>1690</ele>
        <time>2018-12-11T10:39:52Z</time>
      </trkpt>
      <trkpt lat="42.96997" lon="0.32188">
        <ele>1691</ele>
        <time>2018-12-11T10:40:11Z</time>
      </trkpt>
      <trkpt lat="42.96996" lon="0.32185">
        <ele>1691</ele>
        <time>2018-12-11T10:40:23Z</time>
      </trkpt>
      <trkpt lat="42.96997" lon="0.32183">
        <ele>1691</ele>
        <time>2018-12-11T10:40:28Z</time>
      </trkpt>
      <trkpt lat="42.96996" lon="0.3218">
        <ele>1692</ele>
        <time>2018-12-11T10:40:33Z</time>
      </trkpt>
      <trkpt lat="42.96995" lon="0.32174">
        <ele>1692</ele>
        <time>2018-12-11T10:40:43Z</time>
      </trkpt>
      <trkpt lat="42.96995" lon="0.3217">
        <ele>1693</ele>
        <time>2018-12-11T10:40:47Z</time>
      </trkpt>
      <trkpt lat="42.96994" lon="0.32168">
        <ele>1693</ele>
        <time>2018-12-11T10:40:50Z</time>
      </trkpt>
      <trkpt lat="42.96992" lon="0.32167">
        <ele>1693</ele>
        <time>2018-12-11T10:40:53Z</time>
      </trkpt>
      <trkpt lat="42.9699" lon="0.32165">
        <ele>1693</ele>
        <time>2018-12-11T10:41:11Z</time>
      </trkpt>
      <trkpt lat="42.96989" lon="0.32164">
        <ele>1694</ele>
        <time>2018-12-11T10:41:46Z</time>
      </trkpt>
      <trkpt lat="42.96987" lon="0.32162">
        <ele>1694</ele>
        <time>2018-12-11T10:41:48Z</time>
      </trkpt>
      <trkpt lat="42.96986" lon="0.3216">
        <ele>1694</ele>
        <time>2018-12-11T10:41:51Z</time>
      </trkpt>
      <trkpt lat="42.96985" lon="0.32157">
        <ele>1695</ele>
        <time>2018-12-11T10:41:54Z</time>
      </trkpt>
      <trkpt lat="42.96984" lon="0.32154">
        <ele>1695</ele>
        <time>2018-12-11T10:41:57Z</time>
      </trkpt>
      <trkpt lat="42.96982" lon="0.32146">
        <ele>1696</ele>
        <time>2018-12-11T10:42:08Z</time>
      </trkpt>
      <trkpt lat="42.96982" lon="0.32143">
        <ele>1696</ele>
        <time>2018-12-11T10:42:11Z</time>
      </trkpt>
      <trkpt lat="42.96982" lon="0.32135">
        <ele>1697</ele>
        <time>2018-12-11T10:42:21Z</time>
      </trkpt>
      <trkpt lat="42.96983" lon="0.3213">
        <ele>1697</ele>
        <time>2018-12-11T10:42:28Z</time>
      </trkpt>
      <trkpt lat="42.96982" lon="0.32126">
        <ele>1697</ele>
        <time>2018-12-11T10:42:32Z</time>
      </trkpt>
      <trkpt lat="42.96984" lon="0.32114">
        <ele>1698</ele>
        <time>2018-12-11T10:42:43Z</time>
      </trkpt>
      <trkpt lat="42.96984" lon="0.32111">
        <ele>1698</ele>
        <time>2018-12-11T10:42:47Z</time>
      </trkpt>
      <trkpt lat="42.96985" lon="0.32108">
        <ele>1699</ele>
        <time>2018-12-11T10:42:50Z</time>
      </trkpt>
      <trkpt lat="42.96985" lon="0.32105">
        <ele>1699</ele>
        <time>2018-12-11T10:42:54Z</time>
      </trkpt>
      <trkpt lat="42.96984" lon="0.32102">
        <ele>1699</ele>
        <time>2018-12-11T10:42:58Z</time>
      </trkpt>
      <trkpt lat="42.96985" lon="0.32096">
        <ele>1700</ele>
        <time>2018-12-11T10:43:06Z</time>
      </trkpt>
      <trkpt lat="42.96986" lon="0.32094">
        <ele>1700</ele>
        <time>2018-12-11T10:43:09Z</time>
      </trkpt>
      <trkpt lat="42.96986" lon="0.32092">
        <ele>1700</ele>
        <time>2018-12-11T10:43:12Z</time>
      </trkpt>
      <trkpt lat="42.96985" lon="0.32089">
        <ele>1701</ele>
        <time>2018-12-11T10:43:17Z</time>
      </trkpt>
      <trkpt lat="42.96983" lon="0.32086">
        <ele>1701</ele>
        <time>2018-12-11T10:43:21Z</time>
      </trkpt>
      <trkpt lat="42.96983" lon="0.32084">
        <ele>1701</ele>
        <time>2018-12-11T10:43:26Z</time>
      </trkpt>
      <trkpt lat="42.96982" lon="0.32081">
        <ele>1702</ele>
        <time>2018-12-11T10:43:30Z</time>
      </trkpt>
      <trkpt lat="42.96983" lon="0.32078">
        <ele>1702</ele>
        <time>2018-12-11T10:43:34Z</time>
      </trkpt>
      <trkpt lat="42.96983" lon="0.32076">
        <ele>1702</ele>
        <time>2018-12-11T10:43:37Z</time>
      </trkpt>
      <trkpt lat="42.96983" lon="0.32073">
        <ele>1703</ele>
        <time>2018-12-11T10:43:41Z</time>
      </trkpt>
      <trkpt lat="42.96984" lon="0.3207">
        <ele>1703</ele>
        <time>2018-12-11T10:43:46Z</time>
      </trkpt>
      <trkpt lat="42.96984" lon="0.32068">
        <ele>1703</ele>
        <time>2018-12-11T10:43:51Z</time>
      </trkpt>
      <trkpt lat="42.96984" lon="0.32065">
        <ele>1704</ele>
        <time>2018-12-11T10:43:56Z</time>
      </trkpt>
      <trkpt lat="42.96985" lon="0.32063">
        <ele>1704</ele>
        <time>2018-12-11T10:44:01Z</time>
      </trkpt>
      <trkpt lat="42.96988" lon="0.32053">
        <ele>1706</ele>
        <time>2018-12-11T10:44:21Z</time>
      </trkpt>
      <trkpt lat="42.96988" lon="0.32045">
        <ele>1707</ele>
        <time>2018-12-11T10:44:31Z</time>
      </trkpt>
      <trkpt lat="42.96989" lon="0.32042">
        <ele>1707</ele>
        <time>2018-12-11T10:44:34Z</time>
      </trkpt>
      <trkpt lat="42.96989" lon="0.32039">
        <ele>1707</ele>
        <time>2018-12-11T10:44:37Z</time>
      </trkpt>
      <trkpt lat="42.96989" lon="0.32037">
        <ele>1707</ele>
        <time>2018-12-11T10:44:40Z</time>
      </trkpt>
      <trkpt lat="42.9699" lon="0.32033">
        <ele>1708</ele>
        <time>2018-12-11T10:44:44Z</time>
      </trkpt>
      <trkpt lat="42.9699" lon="0.32031">
        <ele>1708</ele>
        <time>2018-12-11T10:44:48Z</time>
      </trkpt>
      <trkpt lat="42.9699" lon="0.32028">
        <ele>1708</ele>
        <time>2018-12-11T10:45:00Z</time>
      </trkpt>
      <trkpt lat="42.96991" lon="0.32026">
        <ele>1709</ele>
        <time>2018-12-11T10:45:04Z</time>
      </trkpt>
      <trkpt lat="42.96991" lon="0.32023">
        <ele>1709</ele>
        <time>2018-12-11T10:45:08Z</time>
      </trkpt>
      <trkpt lat="42.9699" lon="0.32022">
        <ele>1710</ele>
        <time>2018-12-11T10:45:14Z</time>
      </trkpt>
      <trkpt lat="42.96989" lon="0.3202">
        <ele>1710</ele>
        <time>2018-12-11T10:45:16Z</time>
      </trkpt>
      <trkpt lat="42.9699" lon="0.32013">
        <ele>1711</ele>
        <time>2018-12-11T10:45:23Z</time>
      </trkpt>
      <trkpt lat="42.9699" lon="0.3201">
        <ele>1711</ele>
        <time>2018-12-11T10:45:26Z</time>
      </trkpt>
      <trkpt lat="42.96991" lon="0.32005">
        <ele>1712</ele>
        <time>2018-12-11T10:45:32Z</time>
      </trkpt>
      <trkpt lat="42.96992" lon="0.32002">
        <ele>1712</ele>
        <time>2018-12-11T10:45:34Z</time>
      </trkpt>
      <trkpt lat="42.96991" lon="0.31996">
        <ele>1713</ele>
        <time>2018-12-11T10:45:40Z</time>
      </trkpt>
      <trkpt lat="42.96992" lon="0.31993">
        <ele>1713</ele>
        <time>2018-12-11T10:45:43Z</time>
      </trkpt>
      <trkpt lat="42.96993" lon="0.31991">
        <ele>1713</ele>
        <time>2018-12-11T10:45:45Z</time>
      </trkpt>
      <trkpt lat="42.96993" lon="0.31988">
        <ele>1713</ele>
        <time>2018-12-11T10:45:47Z</time>
      </trkpt>
      <trkpt lat="42.96995" lon="0.31989">
        <ele>1714</ele>
        <time>2018-12-11T10:45:53Z</time>
      </trkpt>
      <trkpt lat="42.96996" lon="0.31985">
        <ele>1714</ele>
        <time>2018-12-11T10:46:18Z</time>
      </trkpt>
      <trkpt lat="42.96997" lon="0.31983">
        <ele>1715</ele>
        <time>2018-12-11T10:46:23Z</time>
      </trkpt>
      <trkpt lat="42.96998" lon="0.31982">
        <ele>1715</ele>
        <time>2018-12-11T10:46:25Z</time>
      </trkpt>
      <trkpt lat="42.97007" lon="0.31967">
        <ele>1717</ele>
        <time>2018-12-11T10:46:41Z</time>
      </trkpt>
      <trkpt lat="42.97009" lon="0.31962">
        <ele>1718</ele>
        <time>2018-12-11T10:46:45Z</time>
      </trkpt>
      <trkpt lat="42.97013" lon="0.31955">
        <ele>1718</ele>
        <time>2018-12-11T10:46:52Z</time>
      </trkpt>
      <trkpt lat="42.97015" lon="0.31953">
        <ele>1719</ele>
        <time>2018-12-11T10:46:55Z</time>
      </trkpt>
      <trkpt lat="42.97016" lon="0.3195">
        <ele>1719</ele>
        <time>2018-12-11T10:46:57Z</time>
      </trkpt>
      <trkpt lat="42.97017" lon="0.31948">
        <ele>1719</ele>
        <time>2018-12-11T10:46:59Z</time>
      </trkpt>
      <trkpt lat="42.97024" lon="0.31934">
        <ele>1721</ele>
        <time>2018-12-11T10:47:15Z</time>
      </trkpt>
      <trkpt lat="42.97025" lon="0.31929">
        <ele>1721</ele>
        <time>2018-12-11T10:47:17Z</time>
      </trkpt>
      <trkpt lat="42.97027" lon="0.31923">
        <ele>1721</ele>
        <time>2018-12-11T10:47:21Z</time>
      </trkpt>
      <trkpt lat="42.97033" lon="0.31911">
        <ele>1722</ele>
        <time>2018-12-11T10:47:29Z</time>
      </trkpt>
      <trkpt lat="42.97036" lon="0.31904">
        <ele>1723</ele>
        <time>2018-12-11T10:47:39Z</time>
      </trkpt>
      <trkpt lat="42.97037" lon="0.31902">
        <ele>1723</ele>
        <time>2018-12-11T10:47:41Z</time>
      </trkpt>
      <trkpt lat="42.97037" lon="0.31898">
        <ele>1723</ele>
        <time>2018-12-11T10:47:43Z</time>
      </trkpt>
      <trkpt lat="42.9704" lon="0.31891">
        <ele>1724</ele>
        <time>2018-12-11T10:47:49Z</time>
      </trkpt>
      <trkpt lat="42.97051" lon="0.31876">
        <ele>1725</ele>
        <time>2018-12-11T10:48:03Z</time>
      </trkpt>
      <trkpt lat="42.97053" lon="0.31874">
        <ele>1725</ele>
        <time>2018-12-11T10:48:05Z</time>
      </trkpt>
      <trkpt lat="42.97061" lon="0.31862">
        <ele>1726</ele>
        <time>2018-12-11T10:48:20Z</time>
      </trkpt>
      <trkpt lat="42.97062" lon="0.31859">
        <ele>1727</ele>
        <time>2018-12-11T10:48:23Z</time>
      </trkpt>
      <trkpt lat="42.97065" lon="0.31853">
        <ele>1727</ele>
        <time>2018-12-11T10:48:27Z</time>
      </trkpt>
      <trkpt lat="42.97065" lon="0.31851">
        <ele>1727</ele>
        <time>2018-12-11T10:48:29Z</time>
      </trkpt>
      <trkpt lat="42.97068" lon="0.31846">
        <ele>1728</ele>
        <time>2018-12-11T10:48:37Z</time>
      </trkpt>
      <trkpt lat="42.97071" lon="0.31844">
        <ele>1729</ele>
        <time>2018-12-11T10:48:47Z</time>
      </trkpt>
      <trkpt lat="42.97076" lon="0.31837">
        <ele>1730</ele>
        <time>2018-12-11T10:48:59Z</time>
      </trkpt>
      <trkpt lat="42.97081" lon="0.31829">
        <ele>1731</ele>
        <time>2018-12-11T10:49:10Z</time>
      </trkpt>
      <trkpt lat="42.97083" lon="0.31826">
        <ele>1731</ele>
        <time>2018-12-11T10:49:13Z</time>
      </trkpt>
      <trkpt lat="42.97085" lon="0.31825">
        <ele>1731</ele>
        <time>2018-12-11T10:49:16Z</time>
      </trkpt>
      <trkpt lat="42.97087" lon="0.31822">
        <ele>1732</ele>
        <time>2018-12-11T10:49:24Z</time>
      </trkpt>
      <trkpt lat="42.97089" lon="0.31818">
        <ele>1732</ele>
        <time>2018-12-11T10:49:29Z</time>
      </trkpt>
      <trkpt lat="42.97089" lon="0.31815">
        <ele>1733</ele>
        <time>2018-12-11T10:49:31Z</time>
      </trkpt>
      <trkpt lat="42.97095" lon="0.31812">
        <ele>1733</ele>
        <time>2018-12-11T10:49:43Z</time>
      </trkpt>
      <trkpt lat="42.97097" lon="0.31809">
        <ele>1734</ele>
        <time>2018-12-11T10:49:50Z</time>
      </trkpt>
      <trkpt lat="42.97095" lon="0.31805">
        <ele>1735</ele>
        <time>2018-12-11T10:49:59Z</time>
      </trkpt>
      <trkpt lat="42.97097" lon="0.31801">
        <ele>1736</ele>
        <time>2018-12-11T10:50:13Z</time>
      </trkpt>
      <trkpt lat="42.97101" lon="0.31794">
        <ele>1737</ele>
        <time>2018-12-11T10:50:31Z</time>
      </trkpt>
      <trkpt lat="42.97101" lon="0.3179">
        <ele>1737</ele>
        <time>2018-12-11T10:50:47Z</time>
      </trkpt>
      <trkpt lat="42.97105" lon="0.31784">
        <ele>1739</ele>
        <time>2018-12-11T10:51:00Z</time>
      </trkpt>
      <trkpt lat="42.97107" lon="0.3178">
        <ele>1739</ele>
        <time>2018-12-11T10:51:04Z</time>
      </trkpt>
      <trkpt lat="42.97106" lon="0.31774">
        <ele>1740</ele>
        <time>2018-12-11T10:51:11Z</time>
      </trkpt>
      <trkpt lat="42.97109" lon="0.31772">
        <ele>1741</ele>
        <time>2018-12-11T10:51:19Z</time>
      </trkpt>
      <trkpt lat="42.97111" lon="0.3177">
        <ele>1742</ele>
        <time>2018-12-11T10:51:25Z</time>
      </trkpt>
      <trkpt lat="42.97114" lon="0.31767">
        <ele>1743</ele>
        <time>2018-12-11T10:51:32Z</time>
      </trkpt>
      <trkpt lat="42.97115" lon="0.31764">
        <ele>1744</ele>
        <time>2018-12-11T10:51:35Z</time>
      </trkpt>
      <trkpt lat="42.97117" lon="0.3176">
        <ele>1744</ele>
        <time>2018-12-11T10:51:39Z</time>
      </trkpt>
      <trkpt lat="42.97118" lon="0.31757">
        <ele>1746</ele>
        <time>2018-12-11T10:51:48Z</time>
      </trkpt>
      <trkpt lat="42.97122" lon="0.3175">
        <ele>1749</ele>
        <time>2018-12-11T10:52:01Z</time>
      </trkpt>
      <trkpt lat="42.97125" lon="0.31746">
        <ele>1750</ele>
        <time>2018-12-11T10:52:05Z</time>
      </trkpt>
      <trkpt lat="42.97124" lon="0.31743">
        <ele>1752</ele>
        <time>2018-12-11T10:52:13Z</time>
      </trkpt>
      <trkpt lat="42.97122" lon="0.31742">
        <ele>1753</ele>
        <time>2018-12-11T10:52:15Z</time>
      </trkpt>
      <trkpt lat="42.9712" lon="0.31741">
        <ele>1755</ele>
        <time>2018-12-11T10:52:23Z</time>
      </trkpt>
      <trkpt lat="42.97118" lon="0.31741">
        <ele>1757</ele>
        <time>2018-12-11T10:52:30Z</time>
      </trkpt>
      <trkpt lat="42.97118" lon="0.31739">
        <ele>1758</ele>
        <time>2018-12-11T10:52:37Z</time>
      </trkpt>
      <trkpt lat="42.9712" lon="0.31737">
        <ele>1759</ele>
        <time>2018-12-11T10:52:40Z</time>
      </trkpt>
      <trkpt lat="42.9712" lon="0.31734">
        <ele>1762</ele>
        <time>2018-12-11T10:52:58Z</time>
      </trkpt>
      <trkpt lat="42.97119" lon="0.31732">
        <ele>1765</ele>
        <time>2018-12-11T10:53:06Z</time>
      </trkpt>
      <trkpt lat="42.97121" lon="0.3173">
        <ele>1767</ele>
        <time>2018-12-11T10:53:11Z</time>
      </trkpt>
      <trkpt lat="42.97121" lon="0.31727">
        <ele>1768</ele>
        <time>2018-12-11T10:53:20Z</time>
      </trkpt>
      <trkpt lat="42.97122" lon="0.31726">
        <ele>1770</ele>
        <time>2018-12-11T10:53:23Z</time>
      </trkpt>
      <trkpt lat="42.97124" lon="0.31724">
        <ele>1771</ele>
        <time>2018-12-11T10:53:27Z</time>
      </trkpt>
      <trkpt lat="42.97125" lon="0.31722">
        <ele>1772</ele>
        <time>2018-12-11T10:53:34Z</time>
      </trkpt>
      <trkpt lat="42.97126" lon="0.31721">
        <ele>1773</ele>
        <time>2018-12-11T10:53:38Z</time>
      </trkpt>
      <trkpt lat="42.97126" lon="0.31718">
        <ele>1775</ele>
        <time>2018-12-11T10:53:44Z</time>
      </trkpt>
      <trkpt lat="42.97125" lon="0.31715">
        <ele>1775</ele>
        <time>2018-12-11T10:53:46Z</time>
      </trkpt>
      <trkpt lat="42.97125" lon="0.31713">
        <ele>1776</ele>
        <time>2018-12-11T10:53:53Z</time>
      </trkpt>
      <trkpt lat="42.97123" lon="0.3171">
        <ele>1777</ele>
        <time>2018-12-11T10:53:56Z</time>
      </trkpt>
      <trkpt lat="42.97123" lon="0.31708">
        <ele>1778</ele>
        <time>2018-12-11T10:54:02Z</time>
      </trkpt>
      <trkpt lat="42.97123" lon="0.31706">
        <ele>1778</ele>
        <time>2018-12-11T10:54:07Z</time>
      </trkpt>
      <trkpt lat="42.97124" lon="0.31702">
        <ele>1780</ele>
        <time>2018-12-11T10:54:13Z</time>
      </trkpt>
      <trkpt lat="42.97126" lon="0.317">
        <ele>1781</ele>
        <time>2018-12-11T10:54:18Z</time>
      </trkpt>
      <trkpt lat="42.97127" lon="0.31698">
        <ele>1781</ele>
        <time>2018-12-11T10:54:22Z</time>
      </trkpt>
      <trkpt lat="42.97128" lon="0.31697">
        <ele>1783</ele>
        <time>2018-12-11T10:54:34Z</time>
      </trkpt>
      <trkpt lat="42.97132" lon="0.31692">
        <ele>1785</ele>
        <time>2018-12-11T10:54:41Z</time>
      </trkpt>
      <trkpt lat="42.97134" lon="0.31687">
        <ele>1787</ele>
        <time>2018-12-11T10:54:55Z</time>
      </trkpt>
      <trkpt lat="42.97135" lon="0.31685">
        <ele>1787</ele>
        <time>2018-12-11T10:54:57Z</time>
      </trkpt>
      <trkpt lat="42.97137" lon="0.31684">
        <ele>1788</ele>
        <time>2018-12-11T10:55:01Z</time>
      </trkpt>
      <trkpt lat="42.97139" lon="0.31679">
        <ele>1789</ele>
        <time>2018-12-11T10:55:09Z</time>
      </trkpt>
      <trkpt lat="42.97141" lon="0.31678">
        <ele>1790</ele>
        <time>2018-12-11T10:55:13Z</time>
      </trkpt>
      <trkpt lat="42.97143" lon="0.31675">
        <ele>1790</ele>
        <time>2018-12-11T10:55:19Z</time>
      </trkpt>
      <trkpt lat="42.97145" lon="0.31673">
        <ele>1791</ele>
        <time>2018-12-11T10:55:24Z</time>
      </trkpt>
      <trkpt lat="42.97146" lon="0.31671">
        <ele>1792</ele>
        <time>2018-12-11T10:55:27Z</time>
      </trkpt>
      <trkpt lat="42.9715" lon="0.3167">
        <ele>1793</ele>
        <time>2018-12-11T10:55:38Z</time>
      </trkpt>
      <trkpt lat="42.97156" lon="0.31667">
        <ele>1795</ele>
        <time>2018-12-11T10:55:48Z</time>
      </trkpt>
      <trkpt lat="42.97155" lon="0.31665">
        <ele>1795</ele>
        <time>2018-12-11T10:55:58Z</time>
      </trkpt>
      <trkpt lat="42.97156" lon="0.31662">
        <ele>1797</ele>
        <time>2018-12-11T10:56:10Z</time>
      </trkpt>
      <trkpt lat="42.97158" lon="0.3166">
        <ele>1798</ele>
        <time>2018-12-11T10:56:13Z</time>
      </trkpt>
      <trkpt lat="42.97163" lon="0.31658">
        <ele>1798</ele>
        <time>2018-12-11T10:56:17Z</time>
      </trkpt>
      <trkpt lat="42.97165" lon="0.31657">
        <ele>1799</ele>
        <time>2018-12-11T10:56:19Z</time>
      </trkpt>
      <trkpt lat="42.97167" lon="0.31655">
        <ele>1799</ele>
        <time>2018-12-11T10:56:21Z</time>
      </trkpt>
      <trkpt lat="42.97169" lon="0.31654">
        <ele>1799</ele>
        <time>2018-12-11T10:56:24Z</time>
      </trkpt>
      <trkpt lat="42.97171" lon="0.31652">
        <ele>1800</ele>
        <time>2018-12-11T10:56:27Z</time>
      </trkpt>
      <trkpt lat="42.97174" lon="0.31653">
        <ele>1801</ele>
        <time>2018-12-11T10:56:38Z</time>
      </trkpt>
      <trkpt lat="42.97177" lon="0.31652">
        <ele>1801</ele>
        <time>2018-12-11T10:56:42Z</time>
      </trkpt>
      <trkpt lat="42.97188" lon="0.31644">
        <ele>1804</ele>
        <time>2018-12-11T10:57:17Z</time>
      </trkpt>
      <trkpt lat="42.97191" lon="0.31643">
        <ele>1805</ele>
        <time>2018-12-11T10:57:26Z</time>
      </trkpt>
      <trkpt lat="42.97194" lon="0.31634">
        <ele>1807</ele>
        <time>2018-12-11T10:57:52Z</time>
      </trkpt>
      <trkpt lat="42.97198" lon="0.31626">
        <ele>1808</ele>
        <time>2018-12-11T10:58:01Z</time>
      </trkpt>
      <trkpt lat="42.97202" lon="0.31615">
        <ele>1810</ele>
        <time>2018-12-11T10:58:13Z</time>
      </trkpt>
      <trkpt lat="42.97204" lon="0.31612">
        <ele>1811</ele>
        <time>2018-12-11T10:58:22Z</time>
      </trkpt>
      <trkpt lat="42.97206" lon="0.31608">
        <ele>1811</ele>
        <time>2018-12-11T10:58:48Z</time>
      </trkpt>
      <trkpt lat="42.97209" lon="0.316">
        <ele>1813</ele>
        <time>2018-12-11T10:58:53Z</time>
      </trkpt>
      <trkpt lat="42.97213" lon="0.31593">
        <ele>1814</ele>
        <time>2018-12-11T10:58:59Z</time>
      </trkpt>
      <trkpt lat="42.97214" lon="0.31585">
        <ele>1815</ele>
        <time>2018-12-11T10:59:05Z</time>
      </trkpt>
      <trkpt lat="42.97216" lon="0.31579">
        <ele>1817</ele>
        <time>2018-12-11T10:59:11Z</time>
      </trkpt>
      <trkpt lat="42.97221" lon="0.31567">
        <ele>1820</ele>
        <time>2018-12-11T10:59:25Z</time>
      </trkpt>
      <trkpt lat="42.97222" lon="0.31565">
        <ele>1821</ele>
        <time>2018-12-11T10:59:28Z</time>
      </trkpt>
      <trkpt lat="42.97223" lon="0.31562">
        <ele>1821</ele>
        <time>2018-12-11T10:59:31Z</time>
      </trkpt>
      <trkpt lat="42.97224" lon="0.3156">
        <ele>1822</ele>
        <time>2018-12-11T10:59:34Z</time>
      </trkpt>
      <trkpt lat="42.97227" lon="0.31555">
        <ele>1824</ele>
        <time>2018-12-11T10:59:42Z</time>
      </trkpt>
      <trkpt lat="42.97228" lon="0.31553">
        <ele>1825</ele>
        <time>2018-12-11T10:59:47Z</time>
      </trkpt>
      <trkpt lat="42.97229" lon="0.31551">
        <ele>1826</ele>
        <time>2018-12-11T10:59:50Z</time>
      </trkpt>
      <trkpt lat="42.97232" lon="0.31543">
        <ele>1829</ele>
        <time>2018-12-11T11:00:01Z</time>
      </trkpt>
      <trkpt lat="42.97232" lon="0.3154">
        <ele>1830</ele>
        <time>2018-12-11T11:00:07Z</time>
      </trkpt>
      <trkpt lat="42.97232" lon="0.31536">
        <ele>1831</ele>
        <time>2018-12-11T11:00:10Z</time>
      </trkpt>
      <trkpt lat="42.97235" lon="0.31529">
        <ele>1833</ele>
        <time>2018-12-11T11:00:19Z</time>
      </trkpt>
      <trkpt lat="42.97235" lon="0.31526">
        <ele>1834</ele>
        <time>2018-12-11T11:00:22Z</time>
      </trkpt>
      <trkpt lat="42.97235" lon="0.31523">
        <ele>1834</ele>
        <time>2018-12-11T11:00:25Z</time>
      </trkpt>
      <trkpt lat="42.97236" lon="0.3152">
        <ele>1835</ele>
        <time>2018-12-11T11:00:28Z</time>
      </trkpt>
      <trkpt lat="42.97239" lon="0.31506">
        <ele>1838</ele>
        <time>2018-12-11T11:00:46Z</time>
      </trkpt>
      <trkpt lat="42.9724" lon="0.31503">
        <ele>1839</ele>
        <time>2018-12-11T11:00:50Z</time>
      </trkpt>
      <trkpt lat="42.97241" lon="0.31497">
        <ele>1840</ele>
        <time>2018-12-11T11:00:56Z</time>
      </trkpt>
      <trkpt lat="42.97242" lon="0.31495">
        <ele>1841</ele>
        <time>2018-12-11T11:01:00Z</time>
      </trkpt>
      <trkpt lat="42.97242" lon="0.31489">
        <ele>1842</ele>
        <time>2018-12-11T11:01:06Z</time>
      </trkpt>
      <trkpt lat="42.97242" lon="0.31487">
        <ele>1842</ele>
        <time>2018-12-11T11:01:09Z</time>
      </trkpt>
      <trkpt lat="42.97245" lon="0.31481">
        <ele>1843</ele>
        <time>2018-12-11T11:01:17Z</time>
      </trkpt>
      <trkpt lat="42.97246" lon="0.31479">
        <ele>1844</ele>
        <time>2018-12-11T11:01:22Z</time>
      </trkpt>
      <trkpt lat="42.97248" lon="0.31477">
        <ele>1845</ele>
        <time>2018-12-11T11:01:25Z</time>
      </trkpt>
      <trkpt lat="42.97251" lon="0.31468">
        <ele>1846</ele>
        <time>2018-12-11T11:01:34Z</time>
      </trkpt>
      <trkpt lat="42.97251" lon="0.31466">
        <ele>1846</ele>
        <time>2018-12-11T11:01:41Z</time>
      </trkpt>
      <trkpt lat="42.97252" lon="0.31463">
        <ele>1847</ele>
        <time>2018-12-11T11:01:43Z</time>
      </trkpt>
      <trkpt lat="42.97254" lon="0.31452">
        <ele>1848</ele>
        <time>2018-12-11T11:01:57Z</time>
      </trkpt>
      <trkpt lat="42.97258" lon="0.31435">
        <ele>1851</ele>
        <time>2018-12-11T11:02:19Z</time>
      </trkpt>
      <trkpt lat="42.97259" lon="0.31433">
        <ele>1851</ele>
        <time>2018-12-11T11:02:24Z</time>
      </trkpt>
      <trkpt lat="42.97261" lon="0.31433">
        <ele>1852</ele>
        <time>2018-12-11T11:02:29Z</time>
      </trkpt>
      <trkpt lat="42.97266" lon="0.31426">
        <ele>1853</ele>
        <time>2018-12-11T11:02:45Z</time>
      </trkpt>
      <trkpt lat="42.97274" lon="0.31416">
        <ele>1855</ele>
        <time>2018-12-11T11:03:03Z</time>
      </trkpt>
      <trkpt lat="42.97276" lon="0.31413">
        <ele>1855</ele>
        <time>2018-12-11T11:03:07Z</time>
      </trkpt>
      <trkpt lat="42.97277" lon="0.31411">
        <ele>1856</ele>
        <time>2018-12-11T11:03:11Z</time>
      </trkpt>
      <trkpt lat="42.9728" lon="0.31403">
        <ele>1857</ele>
        <time>2018-12-11T11:03:21Z</time>
      </trkpt>
      <trkpt lat="42.97281" lon="0.314">
        <ele>1857</ele>
        <time>2018-12-11T11:03:25Z</time>
      </trkpt>
      <trkpt lat="42.97281" lon="0.31398">
        <ele>1857</ele>
        <time>2018-12-11T11:03:27Z</time>
      </trkpt>
      <trkpt lat="42.97283" lon="0.31396">
        <ele>1858</ele>
        <time>2018-12-11T11:03:31Z</time>
      </trkpt>
      <trkpt lat="42.97285" lon="0.31386">
        <ele>1858</ele>
        <time>2018-12-11T11:03:40Z</time>
      </trkpt>
      <trkpt lat="42.97285" lon="0.31384">
        <ele>1859</ele>
        <time>2018-12-11T11:03:49Z</time>
      </trkpt>
      <trkpt lat="42.97285" lon="0.31382">
        <ele>1859</ele>
        <time>2018-12-11T11:03:53Z</time>
      </trkpt>
      <trkpt lat="42.97285" lon="0.31376">
        <ele>1860</ele>
        <time>2018-12-11T11:04:02Z</time>
      </trkpt>
      <trkpt lat="42.97286" lon="0.31372">
        <ele>1861</ele>
        <time>2018-12-11T11:04:12Z</time>
      </trkpt>
      <trkpt lat="42.97286" lon="0.31368">
        <ele>1861</ele>
        <time>2018-12-11T11:04:16Z</time>
      </trkpt>
      <trkpt lat="42.97286" lon="0.31365">
        <ele>1862</ele>
        <time>2018-12-11T11:04:18Z</time>
      </trkpt>
      <trkpt lat="42.97286" lon="0.31362">
        <ele>1862</ele>
        <time>2018-12-11T11:04:20Z</time>
      </trkpt>
      <trkpt lat="42.9729" lon="0.31349">
        <ele>1863</ele>
        <time>2018-12-11T11:04:40Z</time>
      </trkpt>
      <trkpt lat="42.9729" lon="0.31346">
        <ele>1863</ele>
        <time>2018-12-11T11:04:44Z</time>
      </trkpt>
      <trkpt lat="42.97288" lon="0.31345">
        <ele>1864</ele>
        <time>2018-12-11T11:04:57Z</time>
      </trkpt>
      <trkpt lat="42.97289" lon="0.31343">
        <ele>1864</ele>
        <time>2018-12-11T11:05:01Z</time>
      </trkpt>
      <trkpt lat="42.97292" lon="0.31346">
        <ele>1864</ele>
        <time>2018-12-11T11:05:12Z</time>
      </trkpt>
      <trkpt lat="42.97295" lon="0.31346">
        <ele>1867</ele>
        <time>2018-12-11T11:05:33Z</time>
      </trkpt>
      <trkpt lat="42.97296" lon="0.31344">
        <ele>1867</ele>
        <time>2018-12-11T11:05:35Z</time>
      </trkpt>
      <trkpt lat="42.97297" lon="0.31342">
        <ele>1867</ele>
        <time>2018-12-11T11:05:38Z</time>
      </trkpt>
      <trkpt lat="42.973" lon="0.31337">
        <ele>1868</ele>
        <time>2018-12-11T11:05:45Z</time>
      </trkpt>
      <trkpt lat="42.97304" lon="0.31329">
        <ele>1869</ele>
        <time>2018-12-11T11:05:56Z</time>
      </trkpt>
      <trkpt lat="42.97306" lon="0.31324">
        <ele>1870</ele>
        <time>2018-12-11T11:06:02Z</time>
      </trkpt>
      <trkpt lat="42.97307" lon="0.31321">
        <ele>1870</ele>
        <time>2018-12-11T11:06:05Z</time>
      </trkpt>
      <trkpt lat="42.97315" lon="0.31307">
        <ele>1871</ele>
        <time>2018-12-11T11:06:20Z</time>
      </trkpt>
      <trkpt lat="42.97325" lon="0.31297">
        <ele>1873</ele>
        <time>2018-12-11T11:06:34Z</time>
      </trkpt>
      <trkpt lat="42.97331" lon="0.31288">
        <ele>1874</ele>
        <time>2018-12-11T11:06:43Z</time>
      </trkpt>
      <trkpt lat="42.97334" lon="0.31283">
        <ele>1874</ele>
        <time>2018-12-11T11:06:47Z</time>
      </trkpt>
      <trkpt lat="42.97339" lon="0.31275">
        <ele>1875</ele>
        <time>2018-12-11T11:06:55Z</time>
      </trkpt>
      <trkpt lat="42.9734" lon="0.31272">
        <ele>1875</ele>
        <time>2018-12-11T11:06:57Z</time>
      </trkpt>
      <trkpt lat="42.97347" lon="0.31263">
        <ele>1876</ele>
        <time>2018-12-11T11:07:07Z</time>
      </trkpt>
      <trkpt lat="42.97355" lon="0.31249">
        <ele>1877</ele>
        <time>2018-12-11T11:07:19Z</time>
      </trkpt>
      <trkpt lat="42.97363" lon="0.31241">
        <ele>1877</ele>
        <time>2018-12-11T11:07:28Z</time>
      </trkpt>
      <trkpt lat="42.97365" lon="0.31236">
        <ele>1878</ele>
        <time>2018-12-11T11:07:32Z</time>
      </trkpt>
      <trkpt lat="42.97374" lon="0.31224">
        <ele>1879</ele>
        <time>2018-12-11T11:07:45Z</time>
      </trkpt>
      <trkpt lat="42.97377" lon="0.31219">
        <ele>1879</ele>
        <time>2018-12-11T11:07:49Z</time>
      </trkpt>
      <trkpt lat="42.9738" lon="0.31215">
        <ele>1879</ele>
        <time>2018-12-11T11:07:53Z</time>
      </trkpt>
      <trkpt lat="42.97388" lon="0.31208">
        <ele>1880</ele>
        <time>2018-12-11T11:08:01Z</time>
      </trkpt>
      <trkpt lat="42.97394" lon="0.312">
        <ele>1881</ele>
        <time>2018-12-11T11:08:10Z</time>
      </trkpt>
      <trkpt lat="42.97418" lon="0.3118">
        <ele>1883</ele>
        <time>2018-12-11T11:08:40Z</time>
      </trkpt>
      <trkpt lat="42.97436" lon="0.31167">
        <ele>1884</ele>
        <time>2018-12-11T11:09:02Z</time>
      </trkpt>
      <trkpt lat="42.97441" lon="0.31161">
        <ele>1885</ele>
        <time>2018-12-11T11:09:10Z</time>
      </trkpt>
      <trkpt lat="42.97443" lon="0.31159">
        <ele>1885</ele>
        <time>2018-12-11T11:09:13Z</time>
      </trkpt>
      <trkpt lat="42.97447" lon="0.31159">
        <ele>1885</ele>
        <time>2018-12-11T11:09:21Z</time>
      </trkpt>
      <trkpt lat="42.97449" lon="0.31159">
        <ele>1886</ele>
        <time>2018-12-11T11:09:28Z</time>
      </trkpt>
      <trkpt lat="42.97449" lon="0.31159">
        <ele>1887</ele>
        <time>2018-12-11T11:11:29Z</time>
      </trkpt>
      <trkpt lat="42.97447" lon="0.3116">
        <ele>1888</ele>
        <time>2018-12-11T11:13:09Z</time>
      </trkpt>
      <trkpt lat="42.97448" lon="0.31161">
        <ele>1897</ele>
        <time>2018-12-11T11:18:09Z</time>
      </trkpt>
      <trkpt lat="42.97449" lon="0.31159">
        <ele>1898</ele>
        <time>2018-12-11T11:19:02Z</time>
      </trkpt>
      <trkpt lat="42.97449" lon="0.31156">
        <ele>1899</ele>
        <time>2018-12-11T11:21:46Z</time>
      </trkpt>
      <trkpt lat="42.97449" lon="0.31154">
        <ele>1902</ele>
        <time>2018-12-11T11:22:03Z</time>
      </trkpt>
      <trkpt lat="42.97451" lon="0.31149">
        <ele>1903</ele>
        <time>2018-12-11T11:22:14Z</time>
      </trkpt>
      <trkpt lat="42.97452" lon="0.31146">
        <ele>1903</ele>
        <time>2018-12-11T11:22:17Z</time>
      </trkpt>
      <trkpt lat="42.97457" lon="0.3114">
        <ele>1904</ele>
        <time>2018-12-11T11:22:29Z</time>
      </trkpt>
      <trkpt lat="42.97457" lon="0.31137">
        <ele>1904</ele>
        <time>2018-12-11T11:22:34Z</time>
      </trkpt>
      <trkpt lat="42.97458" lon="0.31135">
        <ele>1904</ele>
        <time>2018-12-11T11:22:38Z</time>
      </trkpt>
      <trkpt lat="42.97459" lon="0.31132">
        <ele>1905</ele>
        <time>2018-12-11T11:22:51Z</time>
      </trkpt>
      <trkpt lat="42.97461" lon="0.31129">
        <ele>1905</ele>
        <time>2018-12-11T11:22:55Z</time>
      </trkpt>
      <trkpt lat="42.97462" lon="0.31127">
        <ele>1905</ele>
        <time>2018-12-11T11:22:59Z</time>
      </trkpt>
      <trkpt lat="42.97463" lon="0.31125">
        <ele>1905</ele>
        <time>2018-12-11T11:23:09Z</time>
      </trkpt>
      <trkpt lat="42.97463" lon="0.31122">
        <ele>1905</ele>
        <time>2018-12-11T11:23:13Z</time>
      </trkpt>
      <trkpt lat="42.97465" lon="0.3112">
        <ele>1905</ele>
        <time>2018-12-11T11:23:17Z</time>
      </trkpt>
      <trkpt lat="42.97469" lon="0.31113">
        <ele>1905</ele>
        <time>2018-12-11T11:23:28Z</time>
      </trkpt>
      <trkpt lat="42.97472" lon="0.31109">
        <ele>1906</ele>
        <time>2018-12-11T11:23:34Z</time>
      </trkpt>
      <trkpt lat="42.97474" lon="0.31106">
        <ele>1906</ele>
        <time>2018-12-11T11:23:37Z</time>
      </trkpt>
      <trkpt lat="42.97476" lon="0.31102">
        <ele>1906</ele>
        <time>2018-12-11T11:23:41Z</time>
      </trkpt>
      <trkpt lat="42.97478" lon="0.31101">
        <ele>1906</ele>
        <time>2018-12-11T11:23:43Z</time>
      </trkpt>
      <trkpt lat="42.9748" lon="0.31099">
        <ele>1906</ele>
        <time>2018-12-11T11:23:48Z</time>
      </trkpt>
      <trkpt lat="42.97482" lon="0.31095">
        <ele>1906</ele>
        <time>2018-12-11T11:23:53Z</time>
      </trkpt>
      <trkpt lat="42.97483" lon="0.31093">
        <ele>1906</ele>
        <time>2018-12-11T11:23:57Z</time>
      </trkpt>
      <trkpt lat="42.97484" lon="0.31091">
        <ele>1906</ele>
        <time>2018-12-11T11:24:00Z</time>
      </trkpt>
      <trkpt lat="42.97485" lon="0.31088">
        <ele>1906</ele>
        <time>2018-12-11T11:24:03Z</time>
      </trkpt>
      <trkpt lat="42.97485" lon="0.31085">
        <ele>1906</ele>
        <time>2018-12-11T11:24:07Z</time>
      </trkpt>
      <trkpt lat="42.97485" lon="0.31083">
        <ele>1906</ele>
        <time>2018-12-11T11:24:09Z</time>
      </trkpt>
      <trkpt lat="42.97486" lon="0.3108">
        <ele>1906</ele>
        <time>2018-12-11T11:24:15Z</time>
      </trkpt>
      <trkpt lat="42.97486" lon="0.31077">
        <ele>1906</ele>
        <time>2018-12-11T11:24:19Z</time>
      </trkpt>
      <trkpt lat="42.97487" lon="0.31071">
        <ele>1906</ele>
        <time>2018-12-11T11:24:25Z</time>
      </trkpt>
      <trkpt lat="42.97488" lon="0.31069">
        <ele>1906</ele>
        <time>2018-12-11T11:24:28Z</time>
      </trkpt>
      <trkpt lat="42.97488" lon="0.31065">
        <ele>1906</ele>
        <time>2018-12-11T11:24:31Z</time>
      </trkpt>
      <trkpt lat="42.97489" lon="0.31062">
        <ele>1906</ele>
        <time>2018-12-11T11:24:37Z</time>
      </trkpt>
      <trkpt lat="42.9749" lon="0.31056">
        <ele>1906</ele>
        <time>2018-12-11T11:24:45Z</time>
      </trkpt>
      <trkpt lat="42.97491" lon="0.31053">
        <ele>1906</ele>
        <time>2018-12-11T11:24:48Z</time>
      </trkpt>
      <trkpt lat="42.97491" lon="0.3105">
        <ele>1906</ele>
        <time>2018-12-11T11:24:52Z</time>
      </trkpt>
      <trkpt lat="42.97492" lon="0.31048">
        <ele>1906</ele>
        <time>2018-12-11T11:24:55Z</time>
      </trkpt>
      <trkpt lat="42.97492" lon="0.31045">
        <ele>1906</ele>
        <time>2018-12-11T11:24:58Z</time>
      </trkpt>
      <trkpt lat="42.97492" lon="0.31042">
        <ele>1906</ele>
        <time>2018-12-11T11:25:00Z</time>
      </trkpt>
      <trkpt lat="42.97494" lon="0.31039">
        <ele>1906</ele>
        <time>2018-12-11T11:25:03Z</time>
      </trkpt>
      <trkpt lat="42.97495" lon="0.31034">
        <ele>1906</ele>
        <time>2018-12-11T11:25:08Z</time>
      </trkpt>
      <trkpt lat="42.97496" lon="0.31031">
        <ele>1906</ele>
        <time>2018-12-11T11:25:11Z</time>
      </trkpt>
      <trkpt lat="42.97498" lon="0.31025">
        <ele>1906</ele>
        <time>2018-12-11T11:25:17Z</time>
      </trkpt>
      <trkpt lat="42.975" lon="0.3102">
        <ele>1906</ele>
        <time>2018-12-11T11:25:24Z</time>
      </trkpt>
      <trkpt lat="42.97502" lon="0.31018">
        <ele>1906</ele>
        <time>2018-12-11T11:25:27Z</time>
      </trkpt>
      <trkpt lat="42.97501" lon="0.31016">
        <ele>1906</ele>
        <time>2018-12-11T11:25:32Z</time>
      </trkpt>
      <trkpt lat="42.97505" lon="0.31012">
        <ele>1905</ele>
        <time>2018-12-11T11:25:40Z</time>
      </trkpt>
      <trkpt lat="42.97506" lon="0.3101">
        <ele>1905</ele>
        <time>2018-12-11T11:25:43Z</time>
      </trkpt>
      <trkpt lat="42.97506" lon="0.31006">
        <ele>1905</ele>
        <time>2018-12-11T11:25:45Z</time>
      </trkpt>
      <trkpt lat="42.97507" lon="0.31004">
        <ele>1905</ele>
        <time>2018-12-11T11:25:47Z</time>
      </trkpt>
      <trkpt lat="42.97507" lon="0.31001">
        <ele>1905</ele>
        <time>2018-12-11T11:25:50Z</time>
      </trkpt>
      <trkpt lat="42.97509" lon="0.30996">
        <ele>1905</ele>
        <time>2018-12-11T11:25:58Z</time>
      </trkpt>
      <trkpt lat="42.97511" lon="0.30993">
        <ele>1905</ele>
        <time>2018-12-11T11:26:00Z</time>
      </trkpt>
      <trkpt lat="42.97512" lon="0.30991">
        <ele>1905</ele>
        <time>2018-12-11T11:26:02Z</time>
      </trkpt>
      <trkpt lat="42.97513" lon="0.30989">
        <ele>1905</ele>
        <time>2018-12-11T11:26:04Z</time>
      </trkpt>
      <trkpt lat="42.97515" lon="0.30987">
        <ele>1905</ele>
        <time>2018-12-11T11:26:07Z</time>
      </trkpt>
      <trkpt lat="42.97516" lon="0.30984">
        <ele>1905</ele>
        <time>2018-12-11T11:26:10Z</time>
      </trkpt>
      <trkpt lat="42.97517" lon="0.30982">
        <ele>1905</ele>
        <time>2018-12-11T11:26:12Z</time>
      </trkpt>
      <trkpt lat="42.97518" lon="0.3098">
        <ele>1905</ele>
        <time>2018-12-11T11:26:16Z</time>
      </trkpt>
      <trkpt lat="42.97519" lon="0.30977">
        <ele>1905</ele>
        <time>2018-12-11T11:26:19Z</time>
      </trkpt>
      <trkpt lat="42.97526" lon="0.3097">
        <ele>1904</ele>
        <time>2018-12-11T11:26:28Z</time>
      </trkpt>
      <trkpt lat="42.97526" lon="0.30966">
        <ele>1904</ele>
        <time>2018-12-11T11:26:32Z</time>
      </trkpt>
      <trkpt lat="42.97527" lon="0.30964">
        <ele>1904</ele>
        <time>2018-12-11T11:26:34Z</time>
      </trkpt>
      <trkpt lat="42.97529" lon="0.30962">
        <ele>1904</ele>
        <time>2018-12-11T11:26:37Z</time>
      </trkpt>
      <trkpt lat="42.97531" lon="0.3096">
        <ele>1904</ele>
        <time>2018-12-11T11:26:41Z</time>
      </trkpt>
      <trkpt lat="42.97538" lon="0.30952">
        <ele>1903</ele>
        <time>2018-12-11T11:26:56Z</time>
      </trkpt>
      <trkpt lat="42.9754" lon="0.30945">
        <ele>1903</ele>
        <time>2018-12-11T11:27:03Z</time>
      </trkpt>
      <trkpt lat="42.97541" lon="0.30943">
        <ele>1903</ele>
        <time>2018-12-11T11:27:06Z</time>
      </trkpt>
      <trkpt lat="42.97542" lon="0.3094">
        <ele>1903</ele>
        <time>2018-12-11T11:27:09Z</time>
      </trkpt>
      <trkpt lat="42.97548" lon="0.30923">
        <ele>1902</ele>
        <time>2018-12-11T11:27:25Z</time>
      </trkpt>
      <trkpt lat="42.97549" lon="0.3092">
        <ele>1902</ele>
        <time>2018-12-11T11:27:27Z</time>
      </trkpt>
      <trkpt lat="42.97549" lon="0.30918">
        <ele>1902</ele>
        <time>2018-12-11T11:27:29Z</time>
      </trkpt>
      <trkpt lat="42.97552" lon="0.30911">
        <ele>1902</ele>
        <time>2018-12-11T11:27:35Z</time>
      </trkpt>
      <trkpt lat="42.97553" lon="0.30908">
        <ele>1902</ele>
        <time>2018-12-11T11:27:37Z</time>
      </trkpt>
      <trkpt lat="42.97556" lon="0.309">
        <ele>1901</ele>
        <time>2018-12-11T11:27:45Z</time>
      </trkpt>
      <trkpt lat="42.97556" lon="0.30897">
        <ele>1901</ele>
        <time>2018-12-11T11:27:49Z</time>
      </trkpt>
      <trkpt lat="42.97557" lon="0.30894">
        <ele>1901</ele>
        <time>2018-12-11T11:27:53Z</time>
      </trkpt>
      <trkpt lat="42.97558" lon="0.30892">
        <ele>1901</ele>
        <time>2018-12-11T11:27:56Z</time>
      </trkpt>
      <trkpt lat="42.97561" lon="0.30887">
        <ele>1901</ele>
        <time>2018-12-11T11:28:02Z</time>
      </trkpt>
      <trkpt lat="42.97563" lon="0.30883">
        <ele>1900</ele>
        <time>2018-12-11T11:28:07Z</time>
      </trkpt>
      <trkpt lat="42.97566" lon="0.30874">
        <ele>1900</ele>
        <time>2018-12-11T11:28:16Z</time>
      </trkpt>
      <trkpt lat="42.97567" lon="0.30872">
        <ele>1900</ele>
        <time>2018-12-11T11:28:19Z</time>
      </trkpt>
      <trkpt lat="42.97569" lon="0.30867">
        <ele>1900</ele>
        <time>2018-12-11T11:28:25Z</time>
      </trkpt>
      <trkpt lat="42.97571" lon="0.30865">
        <ele>1899</ele>
        <time>2018-12-11T11:28:29Z</time>
      </trkpt>
      <trkpt lat="42.97574" lon="0.30861">
        <ele>1899</ele>
        <time>2018-12-11T11:28:33Z</time>
      </trkpt>
      <trkpt lat="42.97576" lon="0.30859">
        <ele>1899</ele>
        <time>2018-12-11T11:28:38Z</time>
      </trkpt>
      <trkpt lat="42.97576" lon="0.30856">
        <ele>1899</ele>
        <time>2018-12-11T11:28:41Z</time>
      </trkpt>
      <trkpt lat="42.97577" lon="0.30854">
        <ele>1899</ele>
        <time>2018-12-11T11:28:59Z</time>
      </trkpt>
      <trkpt lat="42.9758" lon="0.30845">
        <ele>1898</ele>
        <time>2018-12-11T11:29:14Z</time>
      </trkpt>
      <trkpt lat="42.97581" lon="0.30843">
        <ele>1898</ele>
        <time>2018-12-11T11:29:17Z</time>
      </trkpt>
      <trkpt lat="42.97583" lon="0.30842">
        <ele>1897</ele>
        <time>2018-12-11T11:29:42Z</time>
      </trkpt>
      <trkpt lat="42.97585" lon="0.30839">
        <ele>1897</ele>
        <time>2018-12-11T11:29:45Z</time>
      </trkpt>
      <trkpt lat="42.97586" lon="0.30837">
        <ele>1897</ele>
        <time>2018-12-11T11:29:48Z</time>
      </trkpt>
      <trkpt lat="42.97588" lon="0.30836">
        <ele>1896</ele>
        <time>2018-12-11T11:29:51Z</time>
      </trkpt>
      <trkpt lat="42.97591" lon="0.30832">
        <ele>1896</ele>
        <time>2018-12-11T11:29:57Z</time>
      </trkpt>
      <trkpt lat="42.97593" lon="0.30831">
        <ele>1896</ele>
        <time>2018-12-11T11:30:00Z</time>
      </trkpt>
      <trkpt lat="42.97595" lon="0.30829">
        <ele>1895</ele>
        <time>2018-12-11T11:30:04Z</time>
      </trkpt>
      <trkpt lat="42.97596" lon="0.30827">
        <ele>1895</ele>
        <time>2018-12-11T11:30:09Z</time>
      </trkpt>
      <trkpt lat="42.97598" lon="0.30826">
        <ele>1895</ele>
        <time>2018-12-11T11:30:17Z</time>
      </trkpt>
      <trkpt lat="42.97603" lon="0.3082">
        <ele>1894</ele>
        <time>2018-12-11T11:30:28Z</time>
      </trkpt>
      <trkpt lat="42.97608" lon="0.30812">
        <ele>1894</ele>
        <time>2018-12-11T11:30:38Z</time>
      </trkpt>
      <trkpt lat="42.97609" lon="0.3081">
        <ele>1893</ele>
        <time>2018-12-11T11:30:56Z</time>
      </trkpt>
      <trkpt lat="42.97612" lon="0.30806">
        <ele>1893</ele>
        <time>2018-12-11T11:31:00Z</time>
      </trkpt>
      <trkpt lat="42.97613" lon="0.30804">
        <ele>1893</ele>
        <time>2018-12-11T11:31:07Z</time>
      </trkpt>
      <trkpt lat="42.97615" lon="0.30802">
        <ele>1893</ele>
        <time>2018-12-11T11:31:11Z</time>
      </trkpt>
      <trkpt lat="42.97615" lon="0.30799">
        <ele>1892</ele>
        <time>2018-12-11T11:31:25Z</time>
      </trkpt>
      <trkpt lat="42.97614" lon="0.30797">
        <ele>1892</ele>
        <time>2018-12-11T11:31:55Z</time>
      </trkpt>
      <trkpt lat="42.97612" lon="0.30797">
        <ele>1891</ele>
        <time>2018-12-11T11:33:51Z</time>
      </trkpt>
      <trkpt lat="42.97614" lon="0.30798">
        <ele>1883</ele>
        <time>2018-12-11T11:51:49Z</time>
      </trkpt>
      <trkpt lat="42.97614" lon="0.308">
        <ele>1883</ele>
        <time>2018-12-11T11:54:26Z</time>
      </trkpt>
      <trkpt lat="42.97613" lon="0.30799">
        <ele>1883</ele>
        <time>2018-12-11T11:56:58Z</time>
      </trkpt>
      <trkpt lat="42.97612" lon="0.30796">
        <ele>1883</ele>
        <time>2018-12-11T11:57:47Z</time>
      </trkpt>
      <trkpt lat="42.9761" lon="0.308">
        <ele>1883</ele>
        <time>2018-12-11T11:58:28Z</time>
      </trkpt>
      <trkpt lat="42.97611" lon="0.308">
        <ele>1883</ele>
        <time>2018-12-11T12:00:21Z</time>
      </trkpt>
      <trkpt lat="42.97613" lon="0.308">
        <ele>1883</ele>
        <time>2018-12-11T12:01:34Z</time>
      </trkpt>
      <trkpt lat="42.97613" lon="0.30797">
        <ele>1883</ele>
        <time>2018-12-11T12:01:38Z</time>
      </trkpt>
      <trkpt lat="42.97613" lon="0.30799">
        <ele>1882</ele>
        <time>2018-12-11T12:15:04Z</time>
      </trkpt>
      <trkpt lat="42.97614" lon="0.308">
        <ele>1882</ele>
        <time>2018-12-11T12:16:04Z</time>
      </trkpt>
      <trkpt lat="42.97616" lon="0.30801">
        <ele>1882</ele>
        <time>2018-12-11T12:24:56Z</time>
      </trkpt>
      <trkpt lat="42.97617" lon="0.30797">
        <ele>1881</ele>
        <time>2018-12-11T12:28:35Z</time>
      </trkpt>
      <trkpt lat="42.97616" lon="0.30798">
        <ele>1880</ele>
        <time>2018-12-11T12:30:05Z</time>
      </trkpt>
      <trkpt lat="42.97609" lon="0.30799">
        <ele>1867</ele>
        <time>2018-12-11T12:35:18Z</time>
      </trkpt>
      <trkpt lat="42.97616" lon="0.30826">
        <ele>1873</ele>
        <time>2018-12-11T12:35:21Z</time>
      </trkpt>
      <trkpt lat="42.9761" lon="0.30819">
        <ele>1852</ele>
        <time>2018-12-11T12:35:24Z</time>
      </trkpt>
      <trkpt lat="42.97612" lon="0.30801">
        <ele>1866</ele>
        <time>2018-12-11T12:35:28Z</time>
      </trkpt>
      <trkpt lat="42.97616" lon="0.30798">
        <ele>1880</ele>
        <time>2018-12-11T12:35:58Z</time>
      </trkpt>
      <trkpt lat="42.97615" lon="0.30801">
        <ele>1881</ele>
        <time>2018-12-11T12:37:10Z</time>
      </trkpt>
      <trkpt lat="42.97614" lon="0.308">
        <ele>1879</ele>
        <time>2018-12-11T12:39:05Z</time>
      </trkpt>
      <trkpt lat="42.97614" lon="0.30799">
        <ele>1875</ele>
        <time>2018-12-11T12:43:08Z</time>
      </trkpt>
      <trkpt lat="42.97613" lon="0.30797">
        <ele>1874</ele>
        <time>2018-12-11T12:43:18Z</time>
      </trkpt>
      <trkpt lat="42.97614" lon="0.30795">
        <ele>1874</ele>
        <time>2018-12-11T12:43:40Z</time>
      </trkpt>
      <trkpt lat="42.97616" lon="0.30793">
        <ele>1874</ele>
        <time>2018-12-11T12:43:46Z</time>
      </trkpt>
      <trkpt lat="42.97618" lon="0.30792">
        <ele>1874</ele>
        <time>2018-12-11T12:43:49Z</time>
      </trkpt>
      <trkpt lat="42.9762" lon="0.3079">
        <ele>1875</ele>
        <time>2018-12-11T12:43:53Z</time>
      </trkpt>
      <trkpt lat="42.97623" lon="0.30786">
        <ele>1876</ele>
        <time>2018-12-11T12:44:05Z</time>
      </trkpt>
      <trkpt lat="42.97623" lon="0.30783">
        <ele>1876</ele>
        <time>2018-12-11T12:44:08Z</time>
      </trkpt>
      <trkpt lat="42.97624" lon="0.3078">
        <ele>1876</ele>
        <time>2018-12-11T12:44:13Z</time>
      </trkpt>
      <trkpt lat="42.97625" lon="0.30779">
        <ele>1877</ele>
        <time>2018-12-11T12:44:17Z</time>
      </trkpt>
      <trkpt lat="42.97626" lon="0.30777">
        <ele>1877</ele>
        <time>2018-12-11T12:44:24Z</time>
      </trkpt>
      <trkpt lat="42.97628" lon="0.30775">
        <ele>1877</ele>
        <time>2018-12-11T12:44:29Z</time>
      </trkpt>
      <trkpt lat="42.97628" lon="0.30772">
        <ele>1878</ele>
        <time>2018-12-11T12:44:31Z</time>
      </trkpt>
      <trkpt lat="42.97629" lon="0.3077">
        <ele>1878</ele>
        <time>2018-12-11T12:45:00Z</time>
      </trkpt>
      <trkpt lat="42.97631" lon="0.30768">
        <ele>1878</ele>
        <time>2018-12-11T12:45:03Z</time>
      </trkpt>
      <trkpt lat="42.97632" lon="0.30766">
        <ele>1878</ele>
        <time>2018-12-11T12:45:06Z</time>
      </trkpt>
      <trkpt lat="42.97639" lon="0.30752">
        <ele>1879</ele>
        <time>2018-12-11T12:45:36Z</time>
      </trkpt>
      <trkpt lat="42.97641" lon="0.30751">
        <ele>1879</ele>
        <time>2018-12-11T12:45:46Z</time>
      </trkpt>
      <trkpt lat="42.97642" lon="0.30749">
        <ele>1880</ele>
        <time>2018-12-11T12:45:50Z</time>
      </trkpt>
      <trkpt lat="42.97644" lon="0.30748">
        <ele>1880</ele>
        <time>2018-12-11T12:45:53Z</time>
      </trkpt>
      <trkpt lat="42.97645" lon="0.30745">
        <ele>1880</ele>
        <time>2018-12-11T12:45:57Z</time>
      </trkpt>
      <trkpt lat="42.97645" lon="0.30743">
        <ele>1880</ele>
        <time>2018-12-11T12:46:01Z</time>
      </trkpt>
      <trkpt lat="42.97646" lon="0.3074">
        <ele>1880</ele>
        <time>2018-12-11T12:46:07Z</time>
      </trkpt>
      <trkpt lat="42.97648" lon="0.30739">
        <ele>1880</ele>
        <time>2018-12-11T12:46:12Z</time>
      </trkpt>
      <trkpt lat="42.97649" lon="0.30737">
        <ele>1881</ele>
        <time>2018-12-11T12:46:22Z</time>
      </trkpt>
      <trkpt lat="42.97651" lon="0.30735">
        <ele>1881</ele>
        <time>2018-12-11T12:46:28Z</time>
      </trkpt>
      <trkpt lat="42.97652" lon="0.30732">
        <ele>1881</ele>
        <time>2018-12-11T12:46:32Z</time>
      </trkpt>
      <trkpt lat="42.97654" lon="0.30728">
        <ele>1882</ele>
        <time>2018-12-11T12:46:42Z</time>
      </trkpt>
      <trkpt lat="42.97655" lon="0.30726">
        <ele>1882</ele>
        <time>2018-12-11T12:46:45Z</time>
      </trkpt>
      <trkpt lat="42.97656" lon="0.30723">
        <ele>1882</ele>
        <time>2018-12-11T12:46:49Z</time>
      </trkpt>
      <trkpt lat="42.97656" lon="0.3072">
        <ele>1883</ele>
        <time>2018-12-11T12:46:53Z</time>
      </trkpt>
      <trkpt lat="42.97657" lon="0.30718">
        <ele>1883</ele>
        <time>2018-12-11T12:46:57Z</time>
      </trkpt>
      <trkpt lat="42.97658" lon="0.30712">
        <ele>1883</ele>
        <time>2018-12-11T12:47:05Z</time>
      </trkpt>
      <trkpt lat="42.97659" lon="0.30709">
        <ele>1884</ele>
        <time>2018-12-11T12:47:09Z</time>
      </trkpt>
      <trkpt lat="42.9766" lon="0.30707">
        <ele>1884</ele>
        <time>2018-12-11T12:47:13Z</time>
      </trkpt>
      <trkpt lat="42.97661" lon="0.30704">
        <ele>1884</ele>
        <time>2018-12-11T12:47:17Z</time>
      </trkpt>
      <trkpt lat="42.97661" lon="0.30702">
        <ele>1884</ele>
        <time>2018-12-11T12:47:20Z</time>
      </trkpt>
      <trkpt lat="42.97662" lon="0.307">
        <ele>1885</ele>
        <time>2018-12-11T12:47:24Z</time>
      </trkpt>
      <trkpt lat="42.97663" lon="0.30697">
        <ele>1885</ele>
        <time>2018-12-11T12:47:28Z</time>
      </trkpt>
      <trkpt lat="42.97665" lon="0.30695">
        <ele>1885</ele>
        <time>2018-12-11T12:47:35Z</time>
      </trkpt>
      <trkpt lat="42.97665" lon="0.30692">
        <ele>1885</ele>
        <time>2018-12-11T12:47:38Z</time>
      </trkpt>
      <trkpt lat="42.97666" lon="0.3069">
        <ele>1886</ele>
        <time>2018-12-11T12:47:41Z</time>
      </trkpt>
      <trkpt lat="42.97668" lon="0.30689">
        <ele>1886</ele>
        <time>2018-12-11T12:47:50Z</time>
      </trkpt>
      <trkpt lat="42.97669" lon="0.30687">
        <ele>1886</ele>
        <time>2018-12-11T12:47:58Z</time>
      </trkpt>
      <trkpt lat="42.9767" lon="0.30684">
        <ele>1887</ele>
        <time>2018-12-11T12:48:02Z</time>
      </trkpt>
      <trkpt lat="42.97671" lon="0.30682">
        <ele>1887</ele>
        <time>2018-12-11T12:48:11Z</time>
      </trkpt>
      <trkpt lat="42.97671" lon="0.30679">
        <ele>1888</ele>
        <time>2018-12-11T12:48:15Z</time>
      </trkpt>
      <trkpt lat="42.97673" lon="0.30678">
        <ele>1888</ele>
        <time>2018-12-11T12:48:24Z</time>
      </trkpt>
      <trkpt lat="42.97675" lon="0.30676">
        <ele>1888</ele>
        <time>2018-12-11T12:48:28Z</time>
      </trkpt>
      <trkpt lat="42.97676" lon="0.30674">
        <ele>1889</ele>
        <time>2018-12-11T12:48:35Z</time>
      </trkpt>
      <trkpt lat="42.97677" lon="0.30669">
        <ele>1890</ele>
        <time>2018-12-11T12:48:48Z</time>
      </trkpt>
      <trkpt lat="42.97678" lon="0.30666">
        <ele>1890</ele>
        <time>2018-12-11T12:48:53Z</time>
      </trkpt>
      <trkpt lat="42.9768" lon="0.30665">
        <ele>1890</ele>
        <time>2018-12-11T12:48:59Z</time>
      </trkpt>
      <trkpt lat="42.97681" lon="0.30663">
        <ele>1891</ele>
        <time>2018-12-11T12:49:03Z</time>
      </trkpt>
      <trkpt lat="42.97682" lon="0.3066">
        <ele>1891</ele>
        <time>2018-12-11T12:49:07Z</time>
      </trkpt>
      <trkpt lat="42.97684" lon="0.30656">
        <ele>1892</ele>
        <time>2018-12-11T12:49:19Z</time>
      </trkpt>
      <trkpt lat="42.97685" lon="0.30654">
        <ele>1892</ele>
        <time>2018-12-11T12:49:23Z</time>
      </trkpt>
      <trkpt lat="42.97687" lon="0.30653">
        <ele>1892</ele>
        <time>2018-12-11T12:49:27Z</time>
      </trkpt>
      <trkpt lat="42.97688" lon="0.30651">
        <ele>1893</ele>
        <time>2018-12-11T12:49:34Z</time>
      </trkpt>
      <trkpt lat="42.97688" lon="0.30648">
        <ele>1893</ele>
        <time>2018-12-11T12:49:39Z</time>
      </trkpt>
      <trkpt lat="42.9769" lon="0.30647">
        <ele>1893</ele>
        <time>2018-12-11T12:49:44Z</time>
      </trkpt>
      <trkpt lat="42.97691" lon="0.30644">
        <ele>1894</ele>
        <time>2018-12-11T12:49:51Z</time>
      </trkpt>
      <trkpt lat="42.97691" lon="0.30641">
        <ele>1894</ele>
        <time>2018-12-11T12:49:56Z</time>
      </trkpt>
      <trkpt lat="42.97693" lon="0.30641">
        <ele>1895</ele>
        <time>2018-12-11T12:50:02Z</time>
      </trkpt>
      <trkpt lat="42.97694" lon="0.30638">
        <ele>1895</ele>
        <time>2018-12-11T12:50:07Z</time>
      </trkpt>
      <trkpt lat="42.97694" lon="0.30636">
        <ele>1895</ele>
        <time>2018-12-11T12:50:11Z</time>
      </trkpt>
      <trkpt lat="42.97695" lon="0.30633">
        <ele>1896</ele>
        <time>2018-12-11T12:50:21Z</time>
      </trkpt>
      <trkpt lat="42.97696" lon="0.30631">
        <ele>1896</ele>
        <time>2018-12-11T12:50:26Z</time>
      </trkpt>
      <trkpt lat="42.97697" lon="0.30629">
        <ele>1896</ele>
        <time>2018-12-11T12:50:32Z</time>
      </trkpt>
      <trkpt lat="42.97697" lon="0.30626">
        <ele>1897</ele>
        <time>2018-12-11T12:50:37Z</time>
      </trkpt>
      <trkpt lat="42.97699" lon="0.30624">
        <ele>1897</ele>
        <time>2018-12-11T12:50:41Z</time>
      </trkpt>
      <trkpt lat="42.977" lon="0.30622">
        <ele>1898</ele>
        <time>2018-12-11T12:50:47Z</time>
      </trkpt>
      <trkpt lat="42.97702" lon="0.30617">
        <ele>1898</ele>
        <time>2018-12-11T12:50:57Z</time>
      </trkpt>
      <trkpt lat="42.97702" lon="0.30612">
        <ele>1899</ele>
        <time>2018-12-11T12:51:08Z</time>
      </trkpt>
      <trkpt lat="42.97703" lon="0.30609">
        <ele>1899</ele>
        <time>2018-12-11T12:51:11Z</time>
      </trkpt>
      <trkpt lat="42.97703" lon="0.30607">
        <ele>1900</ele>
        <time>2018-12-11T12:51:16Z</time>
      </trkpt>
      <trkpt lat="42.97705" lon="0.30605">
        <ele>1900</ele>
        <time>2018-12-11T12:51:24Z</time>
      </trkpt>
      <trkpt lat="42.97706" lon="0.30603">
        <ele>1900</ele>
        <time>2018-12-11T12:51:32Z</time>
      </trkpt>
      <trkpt lat="42.97708" lon="0.30602">
        <ele>1901</ele>
        <time>2018-12-11T12:51:36Z</time>
      </trkpt>
      <trkpt lat="42.97708" lon="0.30599">
        <ele>1901</ele>
        <time>2018-12-11T12:51:42Z</time>
      </trkpt>
      <trkpt lat="42.97709" lon="0.30597">
        <ele>1902</ele>
        <time>2018-12-11T12:52:35Z</time>
      </trkpt>
      <trkpt lat="42.97711" lon="0.30596">
        <ele>1903</ele>
        <time>2018-12-11T12:52:42Z</time>
      </trkpt>
      <trkpt lat="42.9771" lon="0.30596">
        <ele>1904</ele>
        <time>2018-12-11T12:55:01Z</time>
      </trkpt>
      <trkpt lat="42.97709" lon="0.30597">
        <ele>1909</ele>
        <time>2018-12-11T12:58:15Z</time>
      </trkpt>
      <trkpt lat="42.97708" lon="0.30599">
        <ele>1909</ele>
        <time>2018-12-11T12:58:48Z</time>
      </trkpt>
      <trkpt lat="42.97707" lon="0.30597">
        <ele>1910</ele>
        <time>2018-12-11T12:59:19Z</time>
      </trkpt>
      <trkpt lat="42.97706" lon="0.30595">
        <ele>1910</ele>
        <time>2018-12-11T12:59:37Z</time>
      </trkpt>
      <trkpt lat="42.9771" lon="0.30593">
        <ele>1910</ele>
        <time>2018-12-11T13:00:14Z</time>
      </trkpt>
      <trkpt lat="42.97708" lon="0.30594">
        <ele>1911</ele>
        <time>2018-12-11T13:01:07Z</time>
      </trkpt>
      <trkpt lat="42.97706" lon="0.30594">
        <ele>1912</ele>
        <time>2018-12-11T13:01:39Z</time>
      </trkpt>
      <trkpt lat="42.97708" lon="0.30594">
        <ele>1918</ele>
        <time>2018-12-11T13:05:30Z</time>
      </trkpt>
      <trkpt lat="42.97708" lon="0.3059">
        <ele>1919</ele>
        <time>2018-12-11T13:05:39Z</time>
      </trkpt>
      <trkpt lat="42.97709" lon="0.30588">
        <ele>1919</ele>
        <time>2018-12-11T13:06:04Z</time>
      </trkpt>
      <trkpt lat="42.9771" lon="0.30586">
        <ele>1920</ele>
        <time>2018-12-11T13:06:09Z</time>
      </trkpt>
      <trkpt lat="42.97709" lon="0.3057">
        <ele>1921</ele>
        <time>2018-12-11T13:06:21Z</time>
      </trkpt>
      <trkpt lat="42.97709" lon="0.30567">
        <ele>1921</ele>
        <time>2018-12-11T13:06:24Z</time>
      </trkpt>
      <trkpt lat="42.9771" lon="0.30564">
        <ele>1921</ele>
        <time>2018-12-11T13:06:26Z</time>
      </trkpt>
      <trkpt lat="42.9771" lon="0.30561">
        <ele>1921</ele>
        <time>2018-12-11T13:06:28Z</time>
      </trkpt>
      <trkpt lat="42.9771" lon="0.30559">
        <ele>1921</ele>
        <time>2018-12-11T13:06:30Z</time>
      </trkpt>
      <trkpt lat="42.97709" lon="0.30542">
        <ele>1922</ele>
        <time>2018-12-11T13:06:45Z</time>
      </trkpt>
      <trkpt lat="42.97709" lon="0.30539">
        <ele>1922</ele>
        <time>2018-12-11T13:06:48Z</time>
      </trkpt>
      <trkpt lat="42.97709" lon="0.30536">
        <ele>1922</ele>
        <time>2018-12-11T13:06:56Z</time>
      </trkpt>
      <trkpt lat="42.97709" lon="0.30534">
        <ele>1922</ele>
        <time>2018-12-11T13:07:02Z</time>
      </trkpt>
      <trkpt lat="42.97709" lon="0.30531">
        <ele>1923</ele>
        <time>2018-12-11T13:07:24Z</time>
      </trkpt>
      <trkpt lat="42.9771" lon="0.30529">
        <ele>1923</ele>
        <time>2018-12-11T13:07:26Z</time>
      </trkpt>
      <trkpt lat="42.97711" lon="0.30524">
        <ele>1923</ele>
        <time>2018-12-11T13:07:32Z</time>
      </trkpt>
      <trkpt lat="42.97711" lon="0.30514">
        <ele>1923</ele>
        <time>2018-12-11T13:07:48Z</time>
      </trkpt>
      <trkpt lat="42.97711" lon="0.30511">
        <ele>1923</ele>
        <time>2018-12-11T13:07:51Z</time>
      </trkpt>
      <trkpt lat="42.97709" lon="0.30512">
        <ele>1923</ele>
        <time>2018-12-11T13:08:44Z</time>
      </trkpt>
      <trkpt lat="42.97709" lon="0.30509">
        <ele>1924</ele>
        <time>2018-12-11T13:08:49Z</time>
      </trkpt>
      <trkpt lat="42.97709" lon="0.30506">
        <ele>1924</ele>
        <time>2018-12-11T13:08:52Z</time>
      </trkpt>
      <trkpt lat="42.97709" lon="0.30497">
        <ele>1924</ele>
        <time>2018-12-11T13:08:59Z</time>
      </trkpt>
      <trkpt lat="42.9771" lon="0.30493">
        <ele>1924</ele>
        <time>2018-12-11T13:09:04Z</time>
      </trkpt>
      <trkpt lat="42.97712" lon="0.30487">
        <ele>1924</ele>
        <time>2018-12-11T13:09:10Z</time>
      </trkpt>
      <trkpt lat="42.97716" lon="0.30468">
        <ele>1924</ele>
        <time>2018-12-11T13:09:31Z</time>
      </trkpt>
      <trkpt lat="42.97716" lon="0.30465">
        <ele>1924</ele>
        <time>2018-12-11T13:09:34Z</time>
      </trkpt>
      <trkpt lat="42.97716" lon="0.30457">
        <ele>1925</ele>
        <time>2018-12-11T13:09:43Z</time>
      </trkpt>
      <trkpt lat="42.97716" lon="0.30454">
        <ele>1925</ele>
        <time>2018-12-11T13:09:45Z</time>
      </trkpt>
      <trkpt lat="42.97716" lon="0.30448">
        <ele>1925</ele>
        <time>2018-12-11T13:09:51Z</time>
      </trkpt>
      <trkpt lat="42.97717" lon="0.30445">
        <ele>1925</ele>
        <time>2018-12-11T13:09:54Z</time>
      </trkpt>
      <trkpt lat="42.97717" lon="0.30443">
        <ele>1925</ele>
        <time>2018-12-11T13:09:57Z</time>
      </trkpt>
      <trkpt lat="42.97717" lon="0.30439">
        <ele>1925</ele>
        <time>2018-12-11T13:10:00Z</time>
      </trkpt>
      <trkpt lat="42.97718" lon="0.30436">
        <ele>1925</ele>
        <time>2018-12-11T13:10:03Z</time>
      </trkpt>
      <trkpt lat="42.97719" lon="0.30433">
        <ele>1925</ele>
        <time>2018-12-11T13:10:06Z</time>
      </trkpt>
      <trkpt lat="42.97719" lon="0.30428">
        <ele>1925</ele>
        <time>2018-12-11T13:10:10Z</time>
      </trkpt>
      <trkpt lat="42.97719" lon="0.30422">
        <ele>1925</ele>
        <time>2018-12-11T13:10:19Z</time>
      </trkpt>
      <trkpt lat="42.97718" lon="0.30419">
        <ele>1925</ele>
        <time>2018-12-11T13:10:21Z</time>
      </trkpt>
      <trkpt lat="42.97717" lon="0.30416">
        <ele>1925</ele>
        <time>2018-12-11T13:10:24Z</time>
      </trkpt>
      <trkpt lat="42.97718" lon="0.30414">
        <ele>1925</ele>
        <time>2018-12-11T13:10:27Z</time>
      </trkpt>
      <trkpt lat="42.97718" lon="0.3041">
        <ele>1925</ele>
        <time>2018-12-11T13:10:30Z</time>
      </trkpt>
      <trkpt lat="42.97719" lon="0.30407">
        <ele>1925</ele>
        <time>2018-12-11T13:10:32Z</time>
      </trkpt>
      <trkpt lat="42.97718" lon="0.30404">
        <ele>1925</ele>
        <time>2018-12-11T13:10:35Z</time>
      </trkpt>
      <trkpt lat="42.97717" lon="0.30402">
        <ele>1925</ele>
        <time>2018-12-11T13:10:49Z</time>
      </trkpt>
      <trkpt lat="42.97716" lon="0.30399">
        <ele>1925</ele>
        <time>2018-12-11T13:10:52Z</time>
      </trkpt>
      <trkpt lat="42.97716" lon="0.30394">
        <ele>1925</ele>
        <time>2018-12-11T13:11:00Z</time>
      </trkpt>
      <trkpt lat="42.97716" lon="0.30388">
        <ele>1925</ele>
        <time>2018-12-11T13:11:05Z</time>
      </trkpt>
      <trkpt lat="42.97717" lon="0.30385">
        <ele>1925</ele>
        <time>2018-12-11T13:11:07Z</time>
      </trkpt>
      <trkpt lat="42.97716" lon="0.30383">
        <ele>1925</ele>
        <time>2018-12-11T13:11:09Z</time>
      </trkpt>
      <trkpt lat="42.97712" lon="0.30377">
        <ele>1925</ele>
        <time>2018-12-11T13:11:18Z</time>
      </trkpt>
      <trkpt lat="42.97711" lon="0.30374">
        <ele>1925</ele>
        <time>2018-12-11T13:12:20Z</time>
      </trkpt>
      <trkpt lat="42.97712" lon="0.30371">
        <ele>1926</ele>
        <time>2018-12-11T13:12:22Z</time>
      </trkpt>
      <trkpt lat="42.9771" lon="0.30368">
        <ele>1926</ele>
        <time>2018-12-11T13:12:42Z</time>
      </trkpt>
      <trkpt lat="42.9771" lon="0.30366">
        <ele>1926</ele>
        <time>2018-12-11T13:13:15Z</time>
      </trkpt>
      <trkpt lat="42.97709" lon="0.30363">
        <ele>1926</ele>
        <time>2018-12-11T13:13:17Z</time>
      </trkpt>
      <trkpt lat="42.97708" lon="0.3036">
        <ele>1926</ele>
        <time>2018-12-11T13:13:20Z</time>
      </trkpt>
      <trkpt lat="42.97707" lon="0.30357">
        <ele>1926</ele>
        <time>2018-12-11T13:13:23Z</time>
      </trkpt>
      <trkpt lat="42.97707" lon="0.30354">
        <ele>1926</ele>
        <time>2018-12-11T13:13:26Z</time>
      </trkpt>
      <trkpt lat="42.97706" lon="0.30352">
        <ele>1926</ele>
        <time>2018-12-11T13:13:29Z</time>
      </trkpt>
      <trkpt lat="42.97707" lon="0.30349">
        <ele>1926</ele>
        <time>2018-12-11T13:13:33Z</time>
      </trkpt>
      <trkpt lat="42.97706" lon="0.30343">
        <ele>1926</ele>
        <time>2018-12-11T13:13:39Z</time>
      </trkpt>
      <trkpt lat="42.97704" lon="0.30341">
        <ele>1926</ele>
        <time>2018-12-11T13:13:42Z</time>
      </trkpt>
      <trkpt lat="42.97695" lon="0.3033">
        <ele>1926</ele>
        <time>2018-12-11T13:13:54Z</time>
      </trkpt>
      <trkpt lat="42.97694" lon="0.30327">
        <ele>1926</ele>
        <time>2018-12-11T13:13:56Z</time>
      </trkpt>
      <trkpt lat="42.97694" lon="0.30325">
        <ele>1925</ele>
        <time>2018-12-11T13:13:58Z</time>
      </trkpt>
      <trkpt lat="42.97693" lon="0.30319">
        <ele>1925</ele>
        <time>2018-12-11T13:14:03Z</time>
      </trkpt>
      <trkpt lat="42.97692" lon="0.30316">
        <ele>1925</ele>
        <time>2018-12-11T13:14:06Z</time>
      </trkpt>
      <trkpt lat="42.9769" lon="0.30314">
        <ele>1925</ele>
        <time>2018-12-11T13:14:10Z</time>
      </trkpt>
      <trkpt lat="42.97688" lon="0.30312">
        <ele>1925</ele>
        <time>2018-12-11T13:14:12Z</time>
      </trkpt>
      <trkpt lat="42.97688" lon="0.3031">
        <ele>1925</ele>
        <time>2018-12-11T13:14:15Z</time>
      </trkpt>
      <trkpt lat="42.97682" lon="0.30307">
        <ele>1925</ele>
        <time>2018-12-11T13:14:28Z</time>
      </trkpt>
      <trkpt lat="42.97682" lon="0.30304">
        <ele>1925</ele>
        <time>2018-12-11T13:15:12Z</time>
      </trkpt>
      <trkpt lat="42.97682" lon="0.30301">
        <ele>1925</ele>
        <time>2018-12-11T13:15:15Z</time>
      </trkpt>
      <trkpt lat="42.97682" lon="0.30298">
        <ele>1924</ele>
        <time>2018-12-11T13:15:18Z</time>
      </trkpt>
      <trkpt lat="42.97679" lon="0.30294">
        <ele>1924</ele>
        <time>2018-12-11T13:15:25Z</time>
      </trkpt>
      <trkpt lat="42.97681" lon="0.30291">
        <ele>1924</ele>
        <time>2018-12-11T13:15:29Z</time>
      </trkpt>
      <trkpt lat="42.97681" lon="0.30285">
        <ele>1924</ele>
        <time>2018-12-11T13:15:33Z</time>
      </trkpt>
      <trkpt lat="42.9768" lon="0.30283">
        <ele>1924</ele>
        <time>2018-12-11T13:15:35Z</time>
      </trkpt>
      <trkpt lat="42.97679" lon="0.30281">
        <ele>1924</ele>
        <time>2018-12-11T13:15:37Z</time>
      </trkpt>
      <trkpt lat="42.97677" lon="0.3028">
        <ele>1924</ele>
        <time>2018-12-11T13:15:39Z</time>
      </trkpt>
      <trkpt lat="42.97676" lon="0.30278">
        <ele>1924</ele>
        <time>2018-12-11T13:15:42Z</time>
      </trkpt>
      <trkpt lat="42.97674" lon="0.30276">
        <ele>1923</ele>
        <time>2018-12-11T13:15:44Z</time>
      </trkpt>
      <trkpt lat="42.9767" lon="0.30273">
        <ele>1923</ele>
        <time>2018-12-11T13:15:49Z</time>
      </trkpt>
      <trkpt lat="42.97669" lon="0.30267">
        <ele>1923</ele>
        <time>2018-12-11T13:15:55Z</time>
      </trkpt>
      <trkpt lat="42.97668" lon="0.30264">
        <ele>1923</ele>
        <time>2018-12-11T13:15:58Z</time>
      </trkpt>
      <trkpt lat="42.97667" lon="0.30261">
        <ele>1923</ele>
        <time>2018-12-11T13:16:01Z</time>
      </trkpt>
      <trkpt lat="42.97666" lon="0.30258">
        <ele>1923</ele>
        <time>2018-12-11T13:16:04Z</time>
      </trkpt>
      <trkpt lat="42.97667" lon="0.30256">
        <ele>1922</ele>
        <time>2018-12-11T13:16:08Z</time>
      </trkpt>
      <trkpt lat="42.97666" lon="0.30253">
        <ele>1922</ele>
        <time>2018-12-11T13:16:11Z</time>
      </trkpt>
      <trkpt lat="42.97665" lon="0.30251">
        <ele>1922</ele>
        <time>2018-12-11T13:16:13Z</time>
      </trkpt>
      <trkpt lat="42.97665" lon="0.30249">
        <ele>1922</ele>
        <time>2018-12-11T13:16:16Z</time>
      </trkpt>
      <trkpt lat="42.97664" lon="0.30246">
        <ele>1922</ele>
        <time>2018-12-11T13:16:19Z</time>
      </trkpt>
      <trkpt lat="42.97663" lon="0.30243">
        <ele>1922</ele>
        <time>2018-12-11T13:16:22Z</time>
      </trkpt>
      <trkpt lat="42.97664" lon="0.30241">
        <ele>1922</ele>
        <time>2018-12-11T13:16:25Z</time>
      </trkpt>
      <trkpt lat="42.97664" lon="0.30238">
        <ele>1922</ele>
        <time>2018-12-11T13:16:29Z</time>
      </trkpt>
      <trkpt lat="42.97664" lon="0.30236">
        <ele>1921</ele>
        <time>2018-12-11T13:16:34Z</time>
      </trkpt>
      <trkpt lat="42.97664" lon="0.30233">
        <ele>1921</ele>
        <time>2018-12-11T13:16:37Z</time>
      </trkpt>
      <trkpt lat="42.97663" lon="0.30231">
        <ele>1921</ele>
        <time>2018-12-11T13:16:40Z</time>
      </trkpt>
      <trkpt lat="42.97662" lon="0.30229">
        <ele>1921</ele>
        <time>2018-12-11T13:16:43Z</time>
      </trkpt>
      <trkpt lat="42.97662" lon="0.30226">
        <ele>1921</ele>
        <time>2018-12-11T13:16:48Z</time>
      </trkpt>
      <trkpt lat="42.97661" lon="0.30224">
        <ele>1921</ele>
        <time>2018-12-11T13:16:52Z</time>
      </trkpt>
      <trkpt lat="42.9766" lon="0.30222">
        <ele>1920</ele>
        <time>2018-12-11T13:16:55Z</time>
      </trkpt>
      <trkpt lat="42.97658" lon="0.3022">
        <ele>1920</ele>
        <time>2018-12-11T13:16:58Z</time>
      </trkpt>
      <trkpt lat="42.97657" lon="0.30218">
        <ele>1920</ele>
        <time>2018-12-11T13:17:02Z</time>
      </trkpt>
      <trkpt lat="42.97649" lon="0.30219">
        <ele>1920</ele>
        <time>2018-12-11T13:17:10Z</time>
      </trkpt>
      <trkpt lat="42.97646" lon="0.30218">
        <ele>1919</ele>
        <time>2018-12-11T13:17:12Z</time>
      </trkpt>
      <trkpt lat="42.9764" lon="0.30216">
        <ele>1919</ele>
        <time>2018-12-11T13:17:19Z</time>
      </trkpt>
      <trkpt lat="42.97637" lon="0.30215">
        <ele>1919</ele>
        <time>2018-12-11T13:17:22Z</time>
      </trkpt>
      <trkpt lat="42.97635" lon="0.30214">
        <ele>1919</ele>
        <time>2018-12-11T13:17:24Z</time>
      </trkpt>
      <trkpt lat="42.97633" lon="0.30212">
        <ele>1919</ele>
        <time>2018-12-11T13:17:27Z</time>
      </trkpt>
      <trkpt lat="42.97628" lon="0.30207">
        <ele>1918</ele>
        <time>2018-12-11T13:17:33Z</time>
      </trkpt>
      <trkpt lat="42.97627" lon="0.30205">
        <ele>1918</ele>
        <time>2018-12-11T13:17:35Z</time>
      </trkpt>
      <trkpt lat="42.9762" lon="0.30186">
        <ele>1917</ele>
        <time>2018-12-11T13:17:53Z</time>
      </trkpt>
      <trkpt lat="42.97617" lon="0.30181">
        <ele>1917</ele>
        <time>2018-12-11T13:17:59Z</time>
      </trkpt>
      <trkpt lat="42.97616" lon="0.30178">
        <ele>1917</ele>
        <time>2018-12-11T13:18:01Z</time>
      </trkpt>
      <trkpt lat="42.97616" lon="0.30175">
        <ele>1917</ele>
        <time>2018-12-11T13:18:03Z</time>
      </trkpt>
      <trkpt lat="42.97604" lon="0.30155">
        <ele>1915</ele>
        <time>2018-12-11T13:18:21Z</time>
      </trkpt>
      <trkpt lat="42.97603" lon="0.30151">
        <ele>1915</ele>
        <time>2018-12-11T13:18:24Z</time>
      </trkpt>
      <trkpt lat="42.97595" lon="0.30136">
        <ele>1915</ele>
        <time>2018-12-11T13:18:38Z</time>
      </trkpt>
      <trkpt lat="42.9759" lon="0.30128">
        <ele>1914</ele>
        <time>2018-12-11T13:18:48Z</time>
      </trkpt>
      <trkpt lat="42.97584" lon="0.30121">
        <ele>1914</ele>
        <time>2018-12-11T13:19:01Z</time>
      </trkpt>
      <trkpt lat="42.97581" lon="0.30117">
        <ele>1913</ele>
        <time>2018-12-11T13:19:07Z</time>
      </trkpt>
      <trkpt lat="42.97573" lon="0.30107">
        <ele>1912</ele>
        <time>2018-12-11T13:19:23Z</time>
      </trkpt>
      <trkpt lat="42.9757" lon="0.30105">
        <ele>1912</ele>
        <time>2018-12-11T13:19:29Z</time>
      </trkpt>
      <trkpt lat="42.97567" lon="0.30093">
        <ele>1910</ele>
        <time>2018-12-11T13:19:42Z</time>
      </trkpt>
      <trkpt lat="42.97566" lon="0.30089">
        <ele>1910</ele>
        <time>2018-12-11T13:19:45Z</time>
      </trkpt>
      <trkpt lat="42.97564" lon="0.30077">
        <ele>1908</ele>
        <time>2018-12-11T13:20:00Z</time>
      </trkpt>
      <trkpt lat="42.9756" lon="0.3007">
        <ele>1907</ele>
        <time>2018-12-11T13:20:07Z</time>
      </trkpt>
      <trkpt lat="42.97558" lon="0.30066">
        <ele>1906</ele>
        <time>2018-12-11T13:20:11Z</time>
      </trkpt>
      <trkpt lat="42.97557" lon="0.30061">
        <ele>1905</ele>
        <time>2018-12-11T13:20:15Z</time>
      </trkpt>
      <trkpt lat="42.97554" lon="0.30057">
        <ele>1904</ele>
        <time>2018-12-11T13:20:19Z</time>
      </trkpt>
      <trkpt lat="42.97547" lon="0.30045">
        <ele>1902</ele>
        <time>2018-12-11T13:20:30Z</time>
      </trkpt>
      <trkpt lat="42.97541" lon="0.3003">
        <ele>1900</ele>
        <time>2018-12-11T13:20:40Z</time>
      </trkpt>
      <trkpt lat="42.97539" lon="0.30026">
        <ele>1899</ele>
        <time>2018-12-11T13:20:43Z</time>
      </trkpt>
      <trkpt lat="42.97531" lon="0.30011">
        <ele>1896</ele>
        <time>2018-12-11T13:20:54Z</time>
      </trkpt>
      <trkpt lat="42.97529" lon="0.30007">
        <ele>1895</ele>
        <time>2018-12-11T13:20:57Z</time>
      </trkpt>
      <trkpt lat="42.97526" lon="0.30004">
        <ele>1894</ele>
        <time>2018-12-11T13:21:01Z</time>
      </trkpt>
      <trkpt lat="42.97524" lon="0.29999">
        <ele>1892</ele>
        <time>2018-12-11T13:21:06Z</time>
      </trkpt>
      <trkpt lat="42.97524" lon="0.29989">
        <ele>1887</ele>
        <time>2018-12-11T13:21:29Z</time>
      </trkpt>
      <trkpt lat="42.97526" lon="0.29987">
        <ele>1883</ele>
        <time>2018-12-11T13:22:13Z</time>
      </trkpt>
      <trkpt lat="42.97529" lon="0.29979">
        <ele>1880</ele>
        <time>2018-12-11T13:22:19Z</time>
      </trkpt>
      <trkpt lat="42.9753" lon="0.29977">
        <ele>1879</ele>
        <time>2018-12-11T13:22:21Z</time>
      </trkpt>
      <trkpt lat="42.9753" lon="0.29974">
        <ele>1878</ele>
        <time>2018-12-11T13:22:25Z</time>
      </trkpt>
      <trkpt lat="42.97528" lon="0.29972">
        <ele>1876</ele>
        <time>2018-12-11T13:22:28Z</time>
      </trkpt>
      <trkpt lat="42.97528" lon="0.29969">
        <ele>1874</ele>
        <time>2018-12-11T13:22:32Z</time>
      </trkpt>
      <trkpt lat="42.97525" lon="0.29952">
        <ele>1868</ele>
        <time>2018-12-11T13:22:47Z</time>
      </trkpt>
      <trkpt lat="42.97524" lon="0.29949">
        <ele>1867</ele>
        <time>2018-12-11T13:22:49Z</time>
      </trkpt>
      <trkpt lat="42.97523" lon="0.29943">
        <ele>1866</ele>
        <time>2018-12-11T13:22:53Z</time>
      </trkpt>
      <trkpt lat="42.97522" lon="0.29939">
        <ele>1865</ele>
        <time>2018-12-11T13:22:55Z</time>
      </trkpt>
      <trkpt lat="42.97521" lon="0.29916">
        <ele>1860</ele>
        <time>2018-12-11T13:23:13Z</time>
      </trkpt>
      <trkpt lat="42.9752" lon="0.2991">
        <ele>1859</ele>
        <time>2018-12-11T13:23:21Z</time>
      </trkpt>
      <trkpt lat="42.97519" lon="0.29902">
        <ele>1857</ele>
        <time>2018-12-11T13:23:29Z</time>
      </trkpt>
      <trkpt lat="42.97519" lon="0.29899">
        <ele>1856</ele>
        <time>2018-12-11T13:23:31Z</time>
      </trkpt>
      <trkpt lat="42.97518" lon="0.29896">
        <ele>1856</ele>
        <time>2018-12-11T13:23:34Z</time>
      </trkpt>
      <trkpt lat="42.97518" lon="0.29893">
        <ele>1855</ele>
        <time>2018-12-11T13:23:36Z</time>
      </trkpt>
      <trkpt lat="42.97517" lon="0.29891">
        <ele>1855</ele>
        <time>2018-12-11T13:23:39Z</time>
      </trkpt>
      <trkpt lat="42.97516" lon="0.29881">
        <ele>1854</ele>
        <time>2018-12-11T13:23:48Z</time>
      </trkpt>
      <trkpt lat="42.97517" lon="0.29878">
        <ele>1853</ele>
        <time>2018-12-11T13:23:50Z</time>
      </trkpt>
      <trkpt lat="42.97518" lon="0.29874">
        <ele>1853</ele>
        <time>2018-12-11T13:23:52Z</time>
      </trkpt>
      <trkpt lat="42.97517" lon="0.29868">
        <ele>1852</ele>
        <time>2018-12-11T13:23:57Z</time>
      </trkpt>
      <trkpt lat="42.97515" lon="0.29864">
        <ele>1852</ele>
        <time>2018-12-11T13:24:04Z</time>
      </trkpt>
      <trkpt lat="42.97515" lon="0.29861">
        <ele>1851</ele>
        <time>2018-12-11T13:24:07Z</time>
      </trkpt>
      <trkpt lat="42.97515" lon="0.29853">
        <ele>1851</ele>
        <time>2018-12-11T13:24:14Z</time>
      </trkpt>
      <trkpt lat="42.97514" lon="0.29845">
        <ele>1850</ele>
        <time>2018-12-11T13:24:22Z</time>
      </trkpt>
      <trkpt lat="42.97513" lon="0.29842">
        <ele>1850</ele>
        <time>2018-12-11T13:24:25Z</time>
      </trkpt>
      <trkpt lat="42.97513" lon="0.29839">
        <ele>1850</ele>
        <time>2018-12-11T13:24:27Z</time>
      </trkpt>
      <trkpt lat="42.97513" lon="0.29836">
        <ele>1850</ele>
        <time>2018-12-11T13:24:30Z</time>
      </trkpt>
      <trkpt lat="42.97513" lon="0.2983">
        <ele>1850</ele>
        <time>2018-12-11T13:24:36Z</time>
      </trkpt>
      <trkpt lat="42.97512" lon="0.29827">
        <ele>1850</ele>
        <time>2018-12-11T13:24:39Z</time>
      </trkpt>
      <trkpt lat="42.97512" lon="0.29825">
        <ele>1849</ele>
        <time>2018-12-11T13:24:43Z</time>
      </trkpt>
      <trkpt lat="42.97512" lon="0.29821">
        <ele>1849</ele>
        <time>2018-12-11T13:24:46Z</time>
      </trkpt>
      <trkpt lat="42.97512" lon="0.29819">
        <ele>1849</ele>
        <time>2018-12-11T13:24:49Z</time>
      </trkpt>
      <trkpt lat="42.97511" lon="0.29817">
        <ele>1849</ele>
        <time>2018-12-11T13:24:52Z</time>
      </trkpt>
      <trkpt lat="42.97511" lon="0.29814">
        <ele>1849</ele>
        <time>2018-12-11T13:24:55Z</time>
      </trkpt>
      <trkpt lat="42.97513" lon="0.29804">
        <ele>1849</ele>
        <time>2018-12-11T13:25:03Z</time>
      </trkpt>
      <trkpt lat="42.97512" lon="0.29801">
        <ele>1849</ele>
        <time>2018-12-11T13:25:07Z</time>
      </trkpt>
      <trkpt lat="42.97512" lon="0.29798">
        <ele>1849</ele>
        <time>2018-12-11T13:25:10Z</time>
      </trkpt>
      <trkpt lat="42.97513" lon="0.29787">
        <ele>1849</ele>
        <time>2018-12-11T13:25:23Z</time>
      </trkpt>
      <trkpt lat="42.97513" lon="0.29784">
        <ele>1849</ele>
        <time>2018-12-11T13:25:28Z</time>
      </trkpt>
      <trkpt lat="42.97513" lon="0.29775">
        <ele>1849</ele>
        <time>2018-12-11T13:25:36Z</time>
      </trkpt>
      <trkpt lat="42.97513" lon="0.29771">
        <ele>1850</ele>
        <time>2018-12-11T13:25:40Z</time>
      </trkpt>
      <trkpt lat="42.97513" lon="0.29767">
        <ele>1850</ele>
        <time>2018-12-11T13:25:44Z</time>
      </trkpt>
      <trkpt lat="42.97512" lon="0.29763">
        <ele>1850</ele>
        <time>2018-12-11T13:25:49Z</time>
      </trkpt>
      <trkpt lat="42.97511" lon="0.29752">
        <ele>1850</ele>
        <time>2018-12-11T13:26:00Z</time>
      </trkpt>
      <trkpt lat="42.97508" lon="0.29721">
        <ele>1851</ele>
        <time>2018-12-11T13:26:30Z</time>
      </trkpt>
      <trkpt lat="42.97508" lon="0.29717">
        <ele>1851</ele>
        <time>2018-12-11T13:26:34Z</time>
      </trkpt>
      <trkpt lat="42.97508" lon="0.29713">
        <ele>1852</ele>
        <time>2018-12-11T13:26:38Z</time>
      </trkpt>
      <trkpt lat="42.97507" lon="0.29685">
        <ele>1853</ele>
        <time>2018-12-11T13:27:00Z</time>
      </trkpt>
      <trkpt lat="42.97506" lon="0.29679">
        <ele>1853</ele>
        <time>2018-12-11T13:27:03Z</time>
      </trkpt>
      <trkpt lat="42.97505" lon="0.29676">
        <ele>1853</ele>
        <time>2018-12-11T13:27:05Z</time>
      </trkpt>
      <trkpt lat="42.97504" lon="0.29673">
        <ele>1853</ele>
        <time>2018-12-11T13:27:07Z</time>
      </trkpt>
      <trkpt lat="42.97503" lon="0.29671">
        <ele>1853</ele>
        <time>2018-12-11T13:27:09Z</time>
      </trkpt>
      <trkpt lat="42.975" lon="0.29653">
        <ele>1854</ele>
        <time>2018-12-11T13:27:25Z</time>
      </trkpt>
      <trkpt lat="42.975" lon="0.2965">
        <ele>1854</ele>
        <time>2018-12-11T13:27:28Z</time>
      </trkpt>
      <trkpt lat="42.97499" lon="0.29642">
        <ele>1854</ele>
        <time>2018-12-11T13:27:34Z</time>
      </trkpt>
      <trkpt lat="42.97499" lon="0.29637">
        <ele>1855</ele>
        <time>2018-12-11T13:27:38Z</time>
      </trkpt>
      <trkpt lat="42.975" lon="0.29633">
        <ele>1855</ele>
        <time>2018-12-11T13:27:41Z</time>
      </trkpt>
      <trkpt lat="42.97499" lon="0.29629">
        <ele>1855</ele>
        <time>2018-12-11T13:27:44Z</time>
      </trkpt>
      <trkpt lat="42.97497" lon="0.29627">
        <ele>1855</ele>
        <time>2018-12-11T13:27:49Z</time>
      </trkpt>
      <trkpt lat="42.97494" lon="0.29624">
        <ele>1855</ele>
        <time>2018-12-11T13:28:01Z</time>
      </trkpt>
      <trkpt lat="42.97492" lon="0.29622">
        <ele>1856</ele>
        <time>2018-12-11T13:28:03Z</time>
      </trkpt>
      <trkpt lat="42.9749" lon="0.29618">
        <ele>1856</ele>
        <time>2018-12-11T13:28:06Z</time>
      </trkpt>
      <trkpt lat="42.97487" lon="0.29613">
        <ele>1856</ele>
        <time>2018-12-11T13:28:17Z</time>
      </trkpt>
      <trkpt lat="42.9749" lon="0.29611">
        <ele>1857</ele>
        <time>2018-12-11T13:30:39Z</time>
      </trkpt>
      <trkpt lat="42.97494" lon="0.29613">
        <ele>1859</ele>
        <time>2018-12-11T13:32:48Z</time>
      </trkpt>
      <trkpt lat="42.97496" lon="0.29615">
        <ele>1861</ele>
        <time>2018-12-11T13:34:11Z</time>
      </trkpt>
      <trkpt lat="42.97494" lon="0.29616">
        <ele>1861</ele>
        <time>2018-12-11T13:34:28Z</time>
      </trkpt>
      <trkpt lat="42.97492" lon="0.29617">
        <ele>1861</ele>
        <time>2018-12-11T13:34:51Z</time>
      </trkpt>
      <trkpt lat="42.97492" lon="0.29617">
        <ele>1864</ele>
        <time>2018-12-11T13:39:47Z</time>
      </trkpt>
      <trkpt lat="42.97492" lon="0.29617">
        <ele>1864</ele>
        <time>2018-12-11T13:40:30Z</time>
      </trkpt>
      <trkpt lat="42.97491" lon="0.29614">
        <ele>1864</ele>
        <time>2018-12-11T13:41:09Z</time>
      </trkpt>
      <trkpt lat="42.9749" lon="0.29611">
        <ele>1866</ele>
        <time>2018-12-11T13:41:14Z</time>
      </trkpt>
      <trkpt lat="42.97489" lon="0.29609">
        <ele>1867</ele>
        <time>2018-12-11T13:41:16Z</time>
      </trkpt>
      <trkpt lat="42.97488" lon="0.29607">
        <ele>1868</ele>
        <time>2018-12-11T13:42:25Z</time>
      </trkpt>
      <trkpt lat="42.97486" lon="0.29607">
        <ele>1869</ele>
        <time>2018-12-11T13:42:35Z</time>
      </trkpt>
      <trkpt lat="42.97484" lon="0.29607">
        <ele>1869</ele>
        <time>2018-12-11T13:42:38Z</time>
      </trkpt>
      <trkpt lat="42.97483" lon="0.29605">
        <ele>1869</ele>
        <time>2018-12-11T13:42:40Z</time>
      </trkpt>
      <trkpt lat="42.97482" lon="0.29603">
        <ele>1870</ele>
        <time>2018-12-11T13:42:43Z</time>
      </trkpt>
      <trkpt lat="42.9748" lon="0.29602">
        <ele>1870</ele>
        <time>2018-12-11T13:42:49Z</time>
      </trkpt>
      <trkpt lat="42.97478" lon="0.29604">
        <ele>1870</ele>
        <time>2018-12-11T13:42:54Z</time>
      </trkpt>
      <trkpt lat="42.97476" lon="0.29606">
        <ele>1870</ele>
        <time>2018-12-11T13:42:57Z</time>
      </trkpt>
      <trkpt lat="42.97475" lon="0.29606">
        <ele>1870</ele>
        <time>2018-12-11T13:43:00Z</time>
      </trkpt>
      <trkpt lat="42.97473" lon="0.29606">
        <ele>1870</ele>
        <time>2018-12-11T13:43:10Z</time>
      </trkpt>
      <trkpt lat="42.97471" lon="0.29607">
        <ele>1870</ele>
        <time>2018-12-11T13:43:12Z</time>
      </trkpt>
      <trkpt lat="42.97469" lon="0.29607">
        <ele>1870</ele>
        <time>2018-12-11T13:43:15Z</time>
      </trkpt>
      <trkpt lat="42.9746" lon="0.2961">
        <ele>1870</ele>
        <time>2018-12-11T13:43:28Z</time>
      </trkpt>
      <trkpt lat="42.97458" lon="0.29611">
        <ele>1870</ele>
        <time>2018-12-11T13:43:31Z</time>
      </trkpt>
      <trkpt lat="42.97456" lon="0.29612">
        <ele>1870</ele>
        <time>2018-12-11T13:43:42Z</time>
      </trkpt>
      <trkpt lat="42.97448" lon="0.29614">
        <ele>1870</ele>
        <time>2018-12-11T13:43:53Z</time>
      </trkpt>
      <trkpt lat="42.97446" lon="0.29613">
        <ele>1870</ele>
        <time>2018-12-11T13:43:56Z</time>
      </trkpt>
      <trkpt lat="42.97444" lon="0.29613">
        <ele>1870</ele>
        <time>2018-12-11T13:43:59Z</time>
      </trkpt>
      <trkpt lat="42.97442" lon="0.29612">
        <ele>1870</ele>
        <time>2018-12-11T13:44:03Z</time>
      </trkpt>
      <trkpt lat="42.9744" lon="0.29612">
        <ele>1870</ele>
        <time>2018-12-11T13:44:07Z</time>
      </trkpt>
      <trkpt lat="42.97438" lon="0.29611">
        <ele>1870</ele>
        <time>2018-12-11T13:44:09Z</time>
      </trkpt>
      <trkpt lat="42.97437" lon="0.29609">
        <ele>1870</ele>
        <time>2018-12-11T13:44:12Z</time>
      </trkpt>
      <trkpt lat="42.97436" lon="0.29607">
        <ele>1870</ele>
        <time>2018-12-11T13:44:15Z</time>
      </trkpt>
      <trkpt lat="42.97435" lon="0.29609">
        <ele>1870</ele>
        <time>2018-12-11T13:44:24Z</time>
      </trkpt>
      <trkpt lat="42.97431" lon="0.29611">
        <ele>1870</ele>
        <time>2018-12-11T13:44:30Z</time>
      </trkpt>
      <trkpt lat="42.97429" lon="0.29611">
        <ele>1870</ele>
        <time>2018-12-11T13:44:33Z</time>
      </trkpt>
      <trkpt lat="42.97425" lon="0.2961">
        <ele>1870</ele>
        <time>2018-12-11T13:44:38Z</time>
      </trkpt>
      <trkpt lat="42.97422" lon="0.29611">
        <ele>1870</ele>
        <time>2018-12-11T13:44:41Z</time>
      </trkpt>
      <trkpt lat="42.97421" lon="0.29612">
        <ele>1870</ele>
        <time>2018-12-11T13:44:44Z</time>
      </trkpt>
      <trkpt lat="42.97419" lon="0.29611">
        <ele>1870</ele>
        <time>2018-12-11T13:44:49Z</time>
      </trkpt>
      <trkpt lat="42.97417" lon="0.29609">
        <ele>1870</ele>
        <time>2018-12-11T13:44:52Z</time>
      </trkpt>
      <trkpt lat="42.97415" lon="0.29609">
        <ele>1870</ele>
        <time>2018-12-11T13:44:54Z</time>
      </trkpt>
      <trkpt lat="42.97414" lon="0.29606">
        <ele>1870</ele>
        <time>2018-12-11T13:44:57Z</time>
      </trkpt>
      <trkpt lat="42.97412" lon="0.29605">
        <ele>1870</ele>
        <time>2018-12-11T13:45:00Z</time>
      </trkpt>
      <trkpt lat="42.9741" lon="0.29603">
        <ele>1870</ele>
        <time>2018-12-11T13:45:03Z</time>
      </trkpt>
      <trkpt lat="42.97409" lon="0.29603">
        <ele>1870</ele>
        <time>2018-12-11T13:45:06Z</time>
      </trkpt>
      <trkpt lat="42.97406" lon="0.29602">
        <ele>1869</ele>
        <time>2018-12-11T13:45:09Z</time>
      </trkpt>
      <trkpt lat="42.97405" lon="0.29601">
        <ele>1869</ele>
        <time>2018-12-11T13:45:12Z</time>
      </trkpt>
      <trkpt lat="42.97403" lon="0.296">
        <ele>1869</ele>
        <time>2018-12-11T13:45:14Z</time>
      </trkpt>
      <trkpt lat="42.97399" lon="0.296">
        <ele>1869</ele>
        <time>2018-12-11T13:45:20Z</time>
      </trkpt>
      <trkpt lat="42.97398" lon="0.29601">
        <ele>1869</ele>
        <time>2018-12-11T13:45:27Z</time>
      </trkpt>
      <trkpt lat="42.97393" lon="0.29601">
        <ele>1869</ele>
        <time>2018-12-11T13:45:32Z</time>
      </trkpt>
      <trkpt lat="42.97391" lon="0.29601">
        <ele>1869</ele>
        <time>2018-12-11T13:45:34Z</time>
      </trkpt>
      <trkpt lat="42.97389" lon="0.29601">
        <ele>1869</ele>
        <time>2018-12-11T13:45:36Z</time>
      </trkpt>
      <trkpt lat="42.97374" lon="0.296">
        <ele>1869</ele>
        <time>2018-12-11T13:45:52Z</time>
      </trkpt>
      <trkpt lat="42.97368" lon="0.296">
        <ele>1869</ele>
        <time>2018-12-11T13:45:56Z</time>
      </trkpt>
      <trkpt lat="42.97366" lon="0.29601">
        <ele>1869</ele>
        <time>2018-12-11T13:45:59Z</time>
      </trkpt>
      <trkpt lat="42.97364" lon="0.29601">
        <ele>1868</ele>
        <time>2018-12-11T13:46:02Z</time>
      </trkpt>
      <trkpt lat="42.97362" lon="0.296">
        <ele>1868</ele>
        <time>2018-12-11T13:46:04Z</time>
      </trkpt>
      <trkpt lat="42.9736" lon="0.296">
        <ele>1868</ele>
        <time>2018-12-11T13:46:06Z</time>
      </trkpt>
      <trkpt lat="42.97358" lon="0.296">
        <ele>1868</ele>
        <time>2018-12-11T13:46:09Z</time>
      </trkpt>
      <trkpt lat="42.97356" lon="0.29602">
        <ele>1868</ele>
        <time>2018-12-11T13:46:12Z</time>
      </trkpt>
      <trkpt lat="42.97341" lon="0.29601">
        <ele>1868</ele>
        <time>2018-12-11T13:46:30Z</time>
      </trkpt>
      <trkpt lat="42.97337" lon="0.29599">
        <ele>1868</ele>
        <time>2018-12-11T13:46:34Z</time>
      </trkpt>
      <trkpt lat="42.97335" lon="0.29598">
        <ele>1868</ele>
        <time>2018-12-11T13:46:36Z</time>
      </trkpt>
      <trkpt lat="42.97333" lon="0.29599">
        <ele>1868</ele>
        <time>2018-12-11T13:46:38Z</time>
      </trkpt>
      <trkpt lat="42.9733" lon="0.29601">
        <ele>1867</ele>
        <time>2018-12-11T13:46:43Z</time>
      </trkpt>
      <trkpt lat="42.97315" lon="0.29614">
        <ele>1867</ele>
        <time>2018-12-11T13:47:01Z</time>
      </trkpt>
      <trkpt lat="42.97307" lon="0.29618">
        <ele>1866</ele>
        <time>2018-12-11T13:47:11Z</time>
      </trkpt>
      <trkpt lat="42.97301" lon="0.29624">
        <ele>1866</ele>
        <time>2018-12-11T13:47:19Z</time>
      </trkpt>
      <trkpt lat="42.97299" lon="0.29625">
        <ele>1866</ele>
        <time>2018-12-11T13:47:21Z</time>
      </trkpt>
      <trkpt lat="42.97297" lon="0.29625">
        <ele>1866</ele>
        <time>2018-12-11T13:47:23Z</time>
      </trkpt>
      <trkpt lat="42.97295" lon="0.29625">
        <ele>1866</ele>
        <time>2018-12-11T13:47:29Z</time>
      </trkpt>
      <trkpt lat="42.97293" lon="0.29627">
        <ele>1866</ele>
        <time>2018-12-11T13:47:32Z</time>
      </trkpt>
      <trkpt lat="42.97291" lon="0.29629">
        <ele>1865</ele>
        <time>2018-12-11T13:47:35Z</time>
      </trkpt>
      <trkpt lat="42.9729" lon="0.29629">
        <ele>1865</ele>
        <time>2018-12-11T13:47:37Z</time>
      </trkpt>
      <trkpt lat="42.97289" lon="0.29627">
        <ele>1865</ele>
        <time>2018-12-11T13:47:39Z</time>
      </trkpt>
      <trkpt lat="42.9728" lon="0.29626">
        <ele>1865</ele>
        <time>2018-12-11T13:47:57Z</time>
      </trkpt>
      <trkpt lat="42.97278" lon="0.29625">
        <ele>1864</ele>
        <time>2018-12-11T13:48:04Z</time>
      </trkpt>
      <trkpt lat="42.97274" lon="0.29624">
        <ele>1864</ele>
        <time>2018-12-11T13:48:09Z</time>
      </trkpt>
      <trkpt lat="42.97272" lon="0.29623">
        <ele>1864</ele>
        <time>2018-12-11T13:48:12Z</time>
      </trkpt>
      <trkpt lat="42.9727" lon="0.29623">
        <ele>1864</ele>
        <time>2018-12-11T13:48:15Z</time>
      </trkpt>
      <trkpt lat="42.97268" lon="0.29623">
        <ele>1864</ele>
        <time>2018-12-11T13:48:17Z</time>
      </trkpt>
      <trkpt lat="42.97266" lon="0.29622">
        <ele>1863</ele>
        <time>2018-12-11T13:48:19Z</time>
      </trkpt>
      <trkpt lat="42.97263" lon="0.29621">
        <ele>1863</ele>
        <time>2018-12-11T13:48:22Z</time>
      </trkpt>
      <trkpt lat="42.97251" lon="0.29627">
        <ele>1863</ele>
        <time>2018-12-11T13:48:32Z</time>
      </trkpt>
      <trkpt lat="42.97248" lon="0.29628">
        <ele>1863</ele>
        <time>2018-12-11T13:48:34Z</time>
      </trkpt>
      <trkpt lat="42.97244" lon="0.29626">
        <ele>1862</ele>
        <time>2018-12-11T13:48:38Z</time>
      </trkpt>
      <trkpt lat="42.97242" lon="0.29626">
        <ele>1862</ele>
        <time>2018-12-11T13:48:40Z</time>
      </trkpt>
      <trkpt lat="42.97236" lon="0.2963">
        <ele>1862</ele>
        <time>2018-12-11T13:48:49Z</time>
      </trkpt>
      <trkpt lat="42.97232" lon="0.29628">
        <ele>1862</ele>
        <time>2018-12-11T13:49:22Z</time>
      </trkpt>
      <trkpt lat="42.97228" lon="0.29627">
        <ele>1861</ele>
        <time>2018-12-11T13:49:26Z</time>
      </trkpt>
      <trkpt lat="42.97225" lon="0.29627">
        <ele>1861</ele>
        <time>2018-12-11T13:49:31Z</time>
      </trkpt>
      <trkpt lat="42.97221" lon="0.29624">
        <ele>1860</ele>
        <time>2018-12-11T13:49:44Z</time>
      </trkpt>
      <trkpt lat="42.97214" lon="0.29624">
        <ele>1860</ele>
        <time>2018-12-11T13:50:03Z</time>
      </trkpt>
      <trkpt lat="42.97202" lon="0.29628">
        <ele>1859</ele>
        <time>2018-12-11T13:50:14Z</time>
      </trkpt>
      <trkpt lat="42.97198" lon="0.29629">
        <ele>1859</ele>
        <time>2018-12-11T13:50:26Z</time>
      </trkpt>
      <trkpt lat="42.97194" lon="0.29631">
        <ele>1859</ele>
        <time>2018-12-11T13:50:31Z</time>
      </trkpt>
      <trkpt lat="42.97191" lon="0.29629">
        <ele>1859</ele>
        <time>2018-12-11T13:50:35Z</time>
      </trkpt>
      <trkpt lat="42.97184" lon="0.29632">
        <ele>1858</ele>
        <time>2018-12-11T13:50:45Z</time>
      </trkpt>
      <trkpt lat="42.97182" lon="0.29635">
        <ele>1858</ele>
        <time>2018-12-11T13:50:50Z</time>
      </trkpt>
      <trkpt lat="42.97181" lon="0.29639">
        <ele>1857</ele>
        <time>2018-12-11T13:50:54Z</time>
      </trkpt>
      <trkpt lat="42.97179" lon="0.29642">
        <ele>1857</ele>
        <time>2018-12-11T13:50:59Z</time>
      </trkpt>
      <trkpt lat="42.97175" lon="0.2964">
        <ele>1857</ele>
        <time>2018-12-11T13:51:05Z</time>
      </trkpt>
      <trkpt lat="42.97165" lon="0.29637">
        <ele>1855</ele>
        <time>2018-12-11T13:51:22Z</time>
      </trkpt>
      <trkpt lat="42.97161" lon="0.29635">
        <ele>1854</ele>
        <time>2018-12-11T13:51:28Z</time>
      </trkpt>
      <trkpt lat="42.97157" lon="0.29633">
        <ele>1853</ele>
        <time>2018-12-11T13:51:36Z</time>
      </trkpt>
      <trkpt lat="42.97147" lon="0.29637">
        <ele>1850</ele>
        <time>2018-12-11T13:51:53Z</time>
      </trkpt>
      <trkpt lat="42.97143" lon="0.2964">
        <ele>1849</ele>
        <time>2018-12-11T13:51:59Z</time>
      </trkpt>
      <trkpt lat="42.97135" lon="0.29651">
        <ele>1846</ele>
        <time>2018-12-11T13:52:16Z</time>
      </trkpt>
      <trkpt lat="42.97133" lon="0.29654">
        <ele>1844</ele>
        <time>2018-12-11T13:52:23Z</time>
      </trkpt>
      <trkpt lat="42.9713" lon="0.29658">
        <ele>1843</ele>
        <time>2018-12-11T13:52:28Z</time>
      </trkpt>
      <trkpt lat="42.97124" lon="0.29671">
        <ele>1838</ele>
        <time>2018-12-11T13:52:46Z</time>
      </trkpt>
      <trkpt lat="42.97122" lon="0.29675">
        <ele>1836</ele>
        <time>2018-12-11T13:52:57Z</time>
      </trkpt>
      <trkpt lat="42.9712" lon="0.29679">
        <ele>1834</ele>
        <time>2018-12-11T13:53:04Z</time>
      </trkpt>
      <trkpt lat="42.97114" lon="0.29692">
        <ele>1829</ele>
        <time>2018-12-11T13:53:20Z</time>
      </trkpt>
      <trkpt lat="42.97112" lon="0.29696">
        <ele>1828</ele>
        <time>2018-12-11T13:53:27Z</time>
      </trkpt>
      <trkpt lat="42.9711" lon="0.29701">
        <ele>1826</ele>
        <time>2018-12-11T13:53:32Z</time>
      </trkpt>
      <trkpt lat="42.97108" lon="0.29705">
        <ele>1825</ele>
        <time>2018-12-11T13:53:36Z</time>
      </trkpt>
      <trkpt lat="42.97106" lon="0.2971">
        <ele>1824</ele>
        <time>2018-12-11T13:53:40Z</time>
      </trkpt>
      <trkpt lat="42.97103" lon="0.29714">
        <ele>1822</ele>
        <time>2018-12-11T13:53:46Z</time>
      </trkpt>
      <trkpt lat="42.97101" lon="0.29718">
        <ele>1821</ele>
        <time>2018-12-11T13:53:52Z</time>
      </trkpt>
      <trkpt lat="42.97097" lon="0.29728">
        <ele>1818</ele>
        <time>2018-12-11T13:54:02Z</time>
      </trkpt>
      <trkpt lat="42.97095" lon="0.29732">
        <ele>1817</ele>
        <time>2018-12-11T13:54:07Z</time>
      </trkpt>
      <trkpt lat="42.97092" lon="0.29735">
        <ele>1816</ele>
        <time>2018-12-11T13:54:11Z</time>
      </trkpt>
      <trkpt lat="42.97089" lon="0.29739">
        <ele>1815</ele>
        <time>2018-12-11T13:54:17Z</time>
      </trkpt>
      <trkpt lat="42.97086" lon="0.29743">
        <ele>1813</ele>
        <time>2018-12-11T13:54:25Z</time>
      </trkpt>
      <trkpt lat="42.97085" lon="0.29746">
        <ele>1812</ele>
        <time>2018-12-11T13:54:36Z</time>
      </trkpt>
      <trkpt lat="42.97082" lon="0.29745">
        <ele>1812</ele>
        <time>2018-12-11T13:54:40Z</time>
      </trkpt>
      <trkpt lat="42.97076" lon="0.29742">
        <ele>1810</ele>
        <time>2018-12-11T13:54:46Z</time>
      </trkpt>
      <trkpt lat="42.97074" lon="0.29741">
        <ele>1808</ele>
        <time>2018-12-11T13:54:51Z</time>
      </trkpt>
      <trkpt lat="42.97067" lon="0.29742">
        <ele>1806</ele>
        <time>2018-12-11T13:55:05Z</time>
      </trkpt>
      <trkpt lat="42.97061" lon="0.29748">
        <ele>1804</ele>
        <time>2018-12-11T13:55:15Z</time>
      </trkpt>
      <trkpt lat="42.97059" lon="0.29752">
        <ele>1803</ele>
        <time>2018-12-11T13:55:20Z</time>
      </trkpt>
      <trkpt lat="42.97056" lon="0.29756">
        <ele>1802</ele>
        <time>2018-12-11T13:55:28Z</time>
      </trkpt>
      <trkpt lat="42.97053" lon="0.29757">
        <ele>1800</ele>
        <time>2018-12-11T13:55:35Z</time>
      </trkpt>
      <trkpt lat="42.97048" lon="0.29764">
        <ele>1798</ele>
        <time>2018-12-11T13:55:48Z</time>
      </trkpt>
      <trkpt lat="42.97044" lon="0.29766">
        <ele>1797</ele>
        <time>2018-12-11T13:55:54Z</time>
      </trkpt>
      <trkpt lat="42.97041" lon="0.29766">
        <ele>1796</ele>
        <time>2018-12-11T13:55:58Z</time>
      </trkpt>
      <trkpt lat="42.97038" lon="0.29768">
        <ele>1796</ele>
        <time>2018-12-11T13:56:02Z</time>
      </trkpt>
      <trkpt lat="42.97031" lon="0.29781">
        <ele>1793</ele>
        <time>2018-12-11T13:56:18Z</time>
      </trkpt>
      <trkpt lat="42.97026" lon="0.29787">
        <ele>1790</ele>
        <time>2018-12-11T13:56:29Z</time>
      </trkpt>
      <trkpt lat="42.97021" lon="0.29792">
        <ele>1788</ele>
        <time>2018-12-11T13:56:38Z</time>
      </trkpt>
      <trkpt lat="42.97018" lon="0.29795">
        <ele>1787</ele>
        <time>2018-12-11T13:56:43Z</time>
      </trkpt>
      <trkpt lat="42.97017" lon="0.29799">
        <ele>1786</ele>
        <time>2018-12-11T13:56:47Z</time>
      </trkpt>
      <trkpt lat="42.97015" lon="0.29802">
        <ele>1786</ele>
        <time>2018-12-11T13:56:51Z</time>
      </trkpt>
      <trkpt lat="42.97013" lon="0.29805">
        <ele>1784</ele>
        <time>2018-12-11T13:56:56Z</time>
      </trkpt>
      <trkpt lat="42.97011" lon="0.29813">
        <ele>1782</ele>
        <time>2018-12-11T13:57:04Z</time>
      </trkpt>
      <trkpt lat="42.97008" lon="0.29821">
        <ele>1780</ele>
        <time>2018-12-11T13:57:16Z</time>
      </trkpt>
      <trkpt lat="42.97006" lon="0.29825">
        <ele>1778</ele>
        <time>2018-12-11T13:57:20Z</time>
      </trkpt>
      <trkpt lat="42.97003" lon="0.29828">
        <ele>1777</ele>
        <time>2018-12-11T13:57:24Z</time>
      </trkpt>
      <trkpt lat="42.97001" lon="0.2983">
        <ele>1776</ele>
        <time>2018-12-11T13:57:28Z</time>
      </trkpt>
      <trkpt lat="42.96998" lon="0.29831">
        <ele>1775</ele>
        <time>2018-12-11T13:57:32Z</time>
      </trkpt>
      <trkpt lat="42.96997" lon="0.29835">
        <ele>1774</ele>
        <time>2018-12-11T13:57:36Z</time>
      </trkpt>
      <trkpt lat="42.96995" lon="0.29839">
        <ele>1773</ele>
        <time>2018-12-11T13:57:41Z</time>
      </trkpt>
      <trkpt lat="42.96992" lon="0.2984">
        <ele>1771</ele>
        <time>2018-12-11T13:57:46Z</time>
      </trkpt>
      <trkpt lat="42.9699" lon="0.29843">
        <ele>1770</ele>
        <time>2018-12-11T13:57:50Z</time>
      </trkpt>
      <trkpt lat="42.96988" lon="0.29846">
        <ele>1768</ele>
        <time>2018-12-11T13:57:55Z</time>
      </trkpt>
      <trkpt lat="42.96986" lon="0.2985">
        <ele>1767</ele>
        <time>2018-12-11T13:57:59Z</time>
      </trkpt>
      <trkpt lat="42.96983" lon="0.2985">
        <ele>1765</ele>
        <time>2018-12-11T13:58:03Z</time>
      </trkpt>
      <trkpt lat="42.96977" lon="0.29859">
        <ele>1762</ele>
        <time>2018-12-11T13:58:15Z</time>
      </trkpt>
      <trkpt lat="42.96975" lon="0.29861">
        <ele>1759</ele>
        <time>2018-12-11T13:58:21Z</time>
      </trkpt>
      <trkpt lat="42.96972" lon="0.29862">
        <ele>1759</ele>
        <time>2018-12-11T13:58:25Z</time>
      </trkpt>
      <trkpt lat="42.96969" lon="0.29863">
        <ele>1756</ele>
        <time>2018-12-11T13:58:31Z</time>
      </trkpt>
      <trkpt lat="42.96966" lon="0.29865">
        <ele>1755</ele>
        <time>2018-12-11T13:58:36Z</time>
      </trkpt>
      <trkpt lat="42.96962" lon="0.29866">
        <ele>1753</ele>
        <time>2018-12-11T13:58:41Z</time>
      </trkpt>
      <trkpt lat="42.9696" lon="0.29866">
        <ele>1752</ele>
        <time>2018-12-11T13:58:46Z</time>
      </trkpt>
      <trkpt lat="42.96957" lon="0.29868">
        <ele>1749</ele>
        <time>2018-12-11T13:58:53Z</time>
      </trkpt>
      <trkpt lat="42.96954" lon="0.29869">
        <ele>1748</ele>
        <time>2018-12-11T13:58:58Z</time>
      </trkpt>
      <trkpt lat="42.96952" lon="0.2987">
        <ele>1746</ele>
        <time>2018-12-11T13:59:04Z</time>
      </trkpt>
      <trkpt lat="42.96949" lon="0.29871">
        <ele>1745</ele>
        <time>2018-12-11T13:59:10Z</time>
      </trkpt>
      <trkpt lat="42.96946" lon="0.29869">
        <ele>1742</ele>
        <time>2018-12-11T13:59:23Z</time>
      </trkpt>
      <trkpt lat="42.96944" lon="0.29866">
        <ele>1740</ele>
        <time>2018-12-11T13:59:32Z</time>
      </trkpt>
      <trkpt lat="42.96942" lon="0.29862">
        <ele>1739</ele>
        <time>2018-12-11T13:59:40Z</time>
      </trkpt>
      <trkpt lat="42.96935" lon="0.29858">
        <ele>1735</ele>
        <time>2018-12-11T13:59:53Z</time>
      </trkpt>
      <trkpt lat="42.96932" lon="0.29857">
        <ele>1734</ele>
        <time>2018-12-11T13:59:58Z</time>
      </trkpt>
      <trkpt lat="42.96929" lon="0.29855">
        <ele>1733</ele>
        <time>2018-12-11T14:00:03Z</time>
      </trkpt>
      <trkpt lat="42.96927" lon="0.2986">
        <ele>1731</ele>
        <time>2018-12-11T14:00:20Z</time>
      </trkpt>
      <trkpt lat="42.96924" lon="0.29861">
        <ele>1729</ele>
        <time>2018-12-11T14:01:12Z</time>
      </trkpt>
      <trkpt lat="42.96921" lon="0.29857">
        <ele>1729</ele>
        <time>2018-12-11T14:01:17Z</time>
      </trkpt>
      <trkpt lat="42.9692" lon="0.29852">
        <ele>1724</ele>
        <time>2018-12-11T14:01:24Z</time>
      </trkpt>
      <trkpt lat="42.96917" lon="0.29849">
        <ele>1723</ele>
        <time>2018-12-11T14:01:32Z</time>
      </trkpt>
      <trkpt lat="42.96912" lon="0.2985">
        <ele>1722</ele>
        <time>2018-12-11T14:01:38Z</time>
      </trkpt>
      <trkpt lat="42.96908" lon="0.29848">
        <ele>1721</ele>
        <time>2018-12-11T14:01:46Z</time>
      </trkpt>
      <trkpt lat="42.96903" lon="0.2984">
        <ele>1719</ele>
        <time>2018-12-11T14:01:58Z</time>
      </trkpt>
      <trkpt lat="42.96899" lon="0.29839">
        <ele>1717</ele>
        <time>2018-12-11T14:02:06Z</time>
      </trkpt>
      <trkpt lat="42.96895" lon="0.29838">
        <ele>1717</ele>
        <time>2018-12-11T14:02:11Z</time>
      </trkpt>
      <trkpt lat="42.96892" lon="0.29836">
        <ele>1715</ele>
        <time>2018-12-11T14:02:18Z</time>
      </trkpt>
      <trkpt lat="42.96888" lon="0.29836">
        <ele>1714</ele>
        <time>2018-12-11T14:02:26Z</time>
      </trkpt>
      <trkpt lat="42.96884" lon="0.29835">
        <ele>1712</ele>
        <time>2018-12-11T14:02:37Z</time>
      </trkpt>
      <trkpt lat="42.9688" lon="0.29833">
        <ele>1711</ele>
        <time>2018-12-11T14:02:45Z</time>
      </trkpt>
      <trkpt lat="42.96877" lon="0.29833">
        <ele>1710</ele>
        <time>2018-12-11T14:02:50Z</time>
      </trkpt>
      <trkpt lat="42.96873" lon="0.29836">
        <ele>1708</ele>
        <time>2018-12-11T14:02:57Z</time>
      </trkpt>
      <trkpt lat="42.96865" lon="0.29839">
        <ele>1706</ele>
        <time>2018-12-11T14:03:07Z</time>
      </trkpt>
      <trkpt lat="42.96862" lon="0.29841">
        <ele>1705</ele>
        <time>2018-12-11T14:03:17Z</time>
      </trkpt>
      <trkpt lat="42.96859" lon="0.29841">
        <ele>1703</ele>
        <time>2018-12-11T14:03:25Z</time>
      </trkpt>
      <trkpt lat="42.96858" lon="0.29837">
        <ele>1702</ele>
        <time>2018-12-11T14:03:31Z</time>
      </trkpt>
      <trkpt lat="42.96856" lon="0.29834">
        <ele>1700</ele>
        <time>2018-12-11T14:03:36Z</time>
      </trkpt>
      <trkpt lat="42.96853" lon="0.2983">
        <ele>1699</ele>
        <time>2018-12-11T14:03:44Z</time>
      </trkpt>
      <trkpt lat="42.96852" lon="0.29825">
        <ele>1697</ele>
        <time>2018-12-11T14:03:49Z</time>
      </trkpt>
      <trkpt lat="42.96851" lon="0.2982">
        <ele>1697</ele>
        <time>2018-12-11T14:03:55Z</time>
      </trkpt>
      <trkpt lat="42.96848" lon="0.2981">
        <ele>1694</ele>
        <time>2018-12-11T14:04:07Z</time>
      </trkpt>
      <trkpt lat="42.96846" lon="0.29805">
        <ele>1691</ele>
        <time>2018-12-11T14:04:15Z</time>
      </trkpt>
      <trkpt lat="42.96844" lon="0.29801">
        <ele>1690</ele>
        <time>2018-12-11T14:04:23Z</time>
      </trkpt>
      <trkpt lat="42.9684" lon="0.298">
        <ele>1688</ele>
        <time>2018-12-11T14:04:28Z</time>
      </trkpt>
      <trkpt lat="42.96838" lon="0.29797">
        <ele>1687</ele>
        <time>2018-12-11T14:04:35Z</time>
      </trkpt>
      <trkpt lat="42.96834" lon="0.29794">
        <ele>1685</ele>
        <time>2018-12-11T14:04:40Z</time>
      </trkpt>
      <trkpt lat="42.96832" lon="0.2979">
        <ele>1684</ele>
        <time>2018-12-11T14:04:45Z</time>
      </trkpt>
      <trkpt lat="42.96827" lon="0.29787">
        <ele>1682</ele>
        <time>2018-12-11T14:04:52Z</time>
      </trkpt>
      <trkpt lat="42.96824" lon="0.29785">
        <ele>1680</ele>
        <time>2018-12-11T14:05:00Z</time>
      </trkpt>
      <trkpt lat="42.9682" lon="0.29788">
        <ele>1678</ele>
        <time>2018-12-11T14:05:09Z</time>
      </trkpt>
      <trkpt lat="42.96812" lon="0.29789">
        <ele>1673</ele>
        <time>2018-12-11T14:05:26Z</time>
      </trkpt>
      <trkpt lat="42.96809" lon="0.29792">
        <ele>1671</ele>
        <time>2018-12-11T14:05:34Z</time>
      </trkpt>
      <trkpt lat="42.96805" lon="0.29794">
        <ele>1669</ele>
        <time>2018-12-11T14:05:43Z</time>
      </trkpt>
      <trkpt lat="42.96801" lon="0.29795">
        <ele>1667</ele>
        <time>2018-12-11T14:05:47Z</time>
      </trkpt>
      <trkpt lat="42.96798" lon="0.29795">
        <ele>1666</ele>
        <time>2018-12-11T14:05:55Z</time>
      </trkpt>
      <trkpt lat="42.96797" lon="0.29791">
        <ele>1663</ele>
        <time>2018-12-11T14:06:01Z</time>
      </trkpt>
      <trkpt lat="42.96795" lon="0.29786">
        <ele>1662</ele>
        <time>2018-12-11T14:06:09Z</time>
      </trkpt>
      <trkpt lat="42.96792" lon="0.29782">
        <ele>1658</ele>
        <time>2018-12-11T14:06:20Z</time>
      </trkpt>
      <trkpt lat="42.96789" lon="0.29781">
        <ele>1657</ele>
        <time>2018-12-11T14:06:31Z</time>
      </trkpt>
      <trkpt lat="42.96785" lon="0.29784">
        <ele>1654</ele>
        <time>2018-12-11T14:06:41Z</time>
      </trkpt>
      <trkpt lat="42.96782" lon="0.29785">
        <ele>1652</ele>
        <time>2018-12-11T14:06:46Z</time>
      </trkpt>
      <trkpt lat="42.9678" lon="0.29791">
        <ele>1650</ele>
        <time>2018-12-11T14:06:54Z</time>
      </trkpt>
      <trkpt lat="42.96777" lon="0.29795">
        <ele>1649</ele>
        <time>2018-12-11T14:06:58Z</time>
      </trkpt>
      <trkpt lat="42.96776" lon="0.298">
        <ele>1647</ele>
        <time>2018-12-11T14:07:10Z</time>
      </trkpt>
      <trkpt lat="42.96773" lon="0.29803">
        <ele>1645</ele>
        <time>2018-12-11T14:07:17Z</time>
      </trkpt>
      <trkpt lat="42.9677" lon="0.29807">
        <ele>1644</ele>
        <time>2018-12-11T14:07:23Z</time>
      </trkpt>
      <trkpt lat="42.96763" lon="0.29809">
        <ele>1642</ele>
        <time>2018-12-11T14:07:31Z</time>
      </trkpt>
      <trkpt lat="42.9676" lon="0.29812">
        <ele>1641</ele>
        <time>2018-12-11T14:07:39Z</time>
      </trkpt>
      <trkpt lat="42.96756" lon="0.2981">
        <ele>1640</ele>
        <time>2018-12-11T14:07:50Z</time>
      </trkpt>
      <trkpt lat="42.96751" lon="0.29803">
        <ele>1637</ele>
        <time>2018-12-11T14:08:03Z</time>
      </trkpt>
      <trkpt lat="42.96747" lon="0.29799">
        <ele>1635</ele>
        <time>2018-12-11T14:08:15Z</time>
      </trkpt>
      <trkpt lat="42.96744" lon="0.298">
        <ele>1633</ele>
        <time>2018-12-11T14:08:23Z</time>
      </trkpt>
      <trkpt lat="42.96741" lon="0.29796">
        <ele>1632</ele>
        <time>2018-12-11T14:08:34Z</time>
      </trkpt>
      <trkpt lat="42.9674" lon="0.29791">
        <ele>1631</ele>
        <time>2018-12-11T14:08:40Z</time>
      </trkpt>
      <trkpt lat="42.96737" lon="0.29794">
        <ele>1629</ele>
        <time>2018-12-11T14:08:52Z</time>
      </trkpt>
      <trkpt lat="42.96734" lon="0.29797">
        <ele>1628</ele>
        <time>2018-12-11T14:09:01Z</time>
      </trkpt>
      <trkpt lat="42.96727" lon="0.29799">
        <ele>1627</ele>
        <time>2018-12-11T14:09:04Z</time>
      </trkpt>
      <trkpt lat="42.96723" lon="0.29797">
        <ele>1627</ele>
        <time>2018-12-11T14:09:15Z</time>
      </trkpt>
      <trkpt lat="42.96719" lon="0.29797">
        <ele>1625</ele>
        <time>2018-12-11T14:09:28Z</time>
      </trkpt>
      <trkpt lat="42.96715" lon="0.29798">
        <ele>1624</ele>
        <time>2018-12-11T14:09:37Z</time>
      </trkpt>
      <trkpt lat="42.96711" lon="0.29799">
        <ele>1623</ele>
        <time>2018-12-11T14:09:46Z</time>
      </trkpt>
      <trkpt lat="42.96707" lon="0.29798">
        <ele>1622</ele>
        <time>2018-12-11T14:09:52Z</time>
      </trkpt>
      <trkpt lat="42.96704" lon="0.29797">
        <ele>1621</ele>
        <time>2018-12-11T14:09:57Z</time>
      </trkpt>
      <trkpt lat="42.96696" lon="0.29796">
        <ele>1620</ele>
        <time>2018-12-11T14:10:05Z</time>
      </trkpt>
      <trkpt lat="42.96693" lon="0.29795">
        <ele>1619</ele>
        <time>2018-12-11T14:10:17Z</time>
      </trkpt>
      <trkpt lat="42.96686" lon="0.29798">
        <ele>1615</ele>
        <time>2018-12-11T14:10:39Z</time>
      </trkpt>
      <trkpt lat="42.96681" lon="0.29798">
        <ele>1613</ele>
        <time>2018-12-11T14:10:51Z</time>
      </trkpt>
      <trkpt lat="42.96678" lon="0.29794">
        <ele>1612</ele>
        <time>2018-12-11T14:10:57Z</time>
      </trkpt>
      <trkpt lat="42.96674" lon="0.29794">
        <ele>1611</ele>
        <time>2018-12-11T14:11:02Z</time>
      </trkpt>
      <trkpt lat="42.9667" lon="0.29792">
        <ele>1609</ele>
        <time>2018-12-11T14:11:07Z</time>
      </trkpt>
      <trkpt lat="42.96667" lon="0.29791">
        <ele>1609</ele>
        <time>2018-12-11T14:11:12Z</time>
      </trkpt>
      <trkpt lat="42.96663" lon="0.29791">
        <ele>1607</ele>
        <time>2018-12-11T14:11:18Z</time>
      </trkpt>
      <trkpt lat="42.9666" lon="0.29794">
        <ele>1605</ele>
        <time>2018-12-11T14:11:27Z</time>
      </trkpt>
      <trkpt lat="42.96656" lon="0.29796">
        <ele>1603</ele>
        <time>2018-12-11T14:11:32Z</time>
      </trkpt>
      <trkpt lat="42.96652" lon="0.29796">
        <ele>1602</ele>
        <time>2018-12-11T14:11:37Z</time>
      </trkpt>
      <trkpt lat="42.96649" lon="0.298">
        <ele>1600</ele>
        <time>2018-12-11T14:11:43Z</time>
      </trkpt>
      <trkpt lat="42.96646" lon="0.29802">
        <ele>1598</ele>
        <time>2018-12-11T14:11:50Z</time>
      </trkpt>
      <trkpt lat="42.96636" lon="0.29812">
        <ele>1592</ele>
        <time>2018-12-11T14:12:08Z</time>
      </trkpt>
      <trkpt lat="42.96633" lon="0.29816">
        <ele>1592</ele>
        <time>2018-12-11T14:12:13Z</time>
      </trkpt>
      <trkpt lat="42.96626" lon="0.29822">
        <ele>1589</ele>
        <time>2018-12-11T14:12:22Z</time>
      </trkpt>
      <trkpt lat="42.96623" lon="0.29825">
        <ele>1587</ele>
        <time>2018-12-11T14:12:28Z</time>
      </trkpt>
      <trkpt lat="42.9662" lon="0.29826">
        <ele>1586</ele>
        <time>2018-12-11T14:12:34Z</time>
      </trkpt>
      <trkpt lat="42.96615" lon="0.29834">
        <ele>1582</ele>
        <time>2018-12-11T14:13:20Z</time>
      </trkpt>
      <trkpt lat="42.96613" lon="0.29836">
        <ele>1580</ele>
        <time>2018-12-11T14:13:53Z</time>
      </trkpt>
      <trkpt lat="42.96611" lon="0.29834">
        <ele>1577</ele>
        <time>2018-12-11T14:14:43Z</time>
      </trkpt>
      <trkpt lat="42.96612" lon="0.2983">
        <ele>1572</ele>
        <time>2018-12-11T14:14:50Z</time>
      </trkpt>
      <trkpt lat="42.96611" lon="0.29827">
        <ele>1569</ele>
        <time>2018-12-11T14:14:54Z</time>
      </trkpt>
      <trkpt lat="42.96611" lon="0.29824">
        <ele>1567</ele>
        <time>2018-12-11T14:14:58Z</time>
      </trkpt>
      <trkpt lat="42.96605" lon="0.29826">
        <ele>1564</ele>
        <time>2018-12-11T14:15:03Z</time>
      </trkpt>
      <trkpt lat="42.96596" lon="0.29828">
        <ele>1561</ele>
        <time>2018-12-11T14:15:10Z</time>
      </trkpt>
      <trkpt lat="42.96594" lon="0.29826">
        <ele>1561</ele>
        <time>2018-12-11T14:15:12Z</time>
      </trkpt>
      <trkpt lat="42.96593" lon="0.29824">
        <ele>1560</ele>
        <time>2018-12-11T14:15:14Z</time>
      </trkpt>
      <trkpt lat="42.96592" lon="0.29821">
        <ele>1560</ele>
        <time>2018-12-11T14:15:16Z</time>
      </trkpt>
      <trkpt lat="42.96591" lon="0.29819">
        <ele>1558</ele>
        <time>2018-12-11T14:15:19Z</time>
      </trkpt>
      <trkpt lat="42.9659" lon="0.29813">
        <ele>1556</ele>
        <time>2018-12-11T14:15:27Z</time>
      </trkpt>
      <trkpt lat="42.96589" lon="0.29811">
        <ele>1554</ele>
        <time>2018-12-11T14:15:30Z</time>
      </trkpt>
      <trkpt lat="42.96587" lon="0.29808">
        <ele>1553</ele>
        <time>2018-12-11T14:15:34Z</time>
      </trkpt>
      <trkpt lat="42.96586" lon="0.29806">
        <ele>1551</ele>
        <time>2018-12-11T14:15:39Z</time>
      </trkpt>
      <trkpt lat="42.96586" lon="0.29803">
        <ele>1551</ele>
        <time>2018-12-11T14:15:42Z</time>
      </trkpt>
      <trkpt lat="42.96587" lon="0.298">
        <ele>1549</ele>
        <time>2018-12-11T14:15:45Z</time>
      </trkpt>
      <trkpt lat="42.96585" lon="0.29801">
        <ele>1549</ele>
        <time>2018-12-11T14:15:50Z</time>
      </trkpt>
      <trkpt lat="42.96584" lon="0.29799">
        <ele>1548</ele>
        <time>2018-12-11T14:15:53Z</time>
      </trkpt>
      <trkpt lat="42.96583" lon="0.29796">
        <ele>1546</ele>
        <time>2018-12-11T14:15:56Z</time>
      </trkpt>
      <trkpt lat="42.96582" lon="0.29793">
        <ele>1545</ele>
        <time>2018-12-11T14:15:59Z</time>
      </trkpt>
      <trkpt lat="42.96581" lon="0.29791">
        <ele>1545</ele>
        <time>2018-12-11T14:16:02Z</time>
      </trkpt>
      <trkpt lat="42.96579" lon="0.29792">
        <ele>1544</ele>
        <time>2018-12-11T14:16:04Z</time>
      </trkpt>
      <trkpt lat="42.96573" lon="0.29788">
        <ele>1542</ele>
        <time>2018-12-11T14:16:09Z</time>
      </trkpt>
      <trkpt lat="42.96569" lon="0.29788">
        <ele>1542</ele>
        <time>2018-12-11T14:16:11Z</time>
      </trkpt>
      <trkpt lat="42.96566" lon="0.29789">
        <ele>1541</ele>
        <time>2018-12-11T14:16:14Z</time>
      </trkpt>
      <trkpt lat="42.96564" lon="0.2979">
        <ele>1540</ele>
        <time>2018-12-11T14:16:17Z</time>
      </trkpt>
      <trkpt lat="42.96563" lon="0.29789">
        <ele>1539</ele>
        <time>2018-12-11T14:16:22Z</time>
      </trkpt>
      <trkpt lat="42.96562" lon="0.29786">
        <ele>1538</ele>
        <time>2018-12-11T14:16:27Z</time>
      </trkpt>
      <trkpt lat="42.96561" lon="0.29783">
        <ele>1537</ele>
        <time>2018-12-11T14:16:30Z</time>
      </trkpt>
      <trkpt lat="42.9656" lon="0.29781">
        <ele>1536</ele>
        <time>2018-12-11T14:16:33Z</time>
      </trkpt>
      <trkpt lat="42.96558" lon="0.2978">
        <ele>1535</ele>
        <time>2018-12-11T14:16:37Z</time>
      </trkpt>
      <trkpt lat="42.96556" lon="0.29779">
        <ele>1534</ele>
        <time>2018-12-11T14:16:41Z</time>
      </trkpt>
      <trkpt lat="42.96556" lon="0.29773">
        <ele>1533</ele>
        <time>2018-12-11T14:16:48Z</time>
      </trkpt>
      <trkpt lat="42.96554" lon="0.29771">
        <ele>1532</ele>
        <time>2018-12-11T14:16:56Z</time>
      </trkpt>
      <trkpt lat="42.96551" lon="0.29771">
        <ele>1531</ele>
        <time>2018-12-11T14:16:58Z</time>
      </trkpt>
      <trkpt lat="42.9655" lon="0.29769">
        <ele>1530</ele>
        <time>2018-12-11T14:17:02Z</time>
      </trkpt>
      <trkpt lat="42.96548" lon="0.29768">
        <ele>1530</ele>
        <time>2018-12-11T14:17:06Z</time>
      </trkpt>
      <trkpt lat="42.96546" lon="0.29768">
        <ele>1528</ele>
        <time>2018-12-11T14:17:13Z</time>
      </trkpt>
      <trkpt lat="42.96545" lon="0.29766">
        <ele>1528</ele>
        <time>2018-12-11T14:17:16Z</time>
      </trkpt>
      <trkpt lat="42.96536" lon="0.29769">
        <ele>1525</ele>
        <time>2018-12-11T14:17:27Z</time>
      </trkpt>
      <trkpt lat="42.96534" lon="0.29768">
        <ele>1525</ele>
        <time>2018-12-11T14:17:32Z</time>
      </trkpt>
      <trkpt lat="42.96533" lon="0.29766">
        <ele>1524</ele>
        <time>2018-12-11T14:17:35Z</time>
      </trkpt>
      <trkpt lat="42.96528" lon="0.29764">
        <ele>1523</ele>
        <time>2018-12-11T14:17:44Z</time>
      </trkpt>
      <trkpt lat="42.96526" lon="0.29764">
        <ele>1522</ele>
        <time>2018-12-11T14:17:47Z</time>
      </trkpt>
      <trkpt lat="42.96524" lon="0.29763">
        <ele>1521</ele>
        <time>2018-12-11T14:17:51Z</time>
      </trkpt>
      <trkpt lat="42.96523" lon="0.29761">
        <ele>1521</ele>
        <time>2018-12-11T14:17:54Z</time>
      </trkpt>
      <trkpt lat="42.96521" lon="0.29761">
        <ele>1520</ele>
        <time>2018-12-11T14:17:58Z</time>
      </trkpt>
      <trkpt lat="42.96519" lon="0.29761">
        <ele>1520</ele>
        <time>2018-12-11T14:18:01Z</time>
      </trkpt>
      <trkpt lat="42.96518" lon="0.2976">
        <ele>1519</ele>
        <time>2018-12-11T14:18:09Z</time>
      </trkpt>
      <trkpt lat="42.96515" lon="0.29758">
        <ele>1519</ele>
        <time>2018-12-11T14:18:12Z</time>
      </trkpt>
      <trkpt lat="42.96512" lon="0.29753">
        <ele>1518</ele>
        <time>2018-12-11T14:18:17Z</time>
      </trkpt>
      <trkpt lat="42.9651" lon="0.29752">
        <ele>1517</ele>
        <time>2018-12-11T14:18:26Z</time>
      </trkpt>
      <trkpt lat="42.96509" lon="0.2975">
        <ele>1516</ele>
        <time>2018-12-11T14:18:29Z</time>
      </trkpt>
      <trkpt lat="42.96507" lon="0.2975">
        <ele>1516</ele>
        <time>2018-12-11T14:18:32Z</time>
      </trkpt>
      <trkpt lat="42.96504" lon="0.29752">
        <ele>1515</ele>
        <time>2018-12-11T14:18:37Z</time>
      </trkpt>
      <trkpt lat="42.96501" lon="0.2975">
        <ele>1514</ele>
        <time>2018-12-11T14:18:43Z</time>
      </trkpt>
      <trkpt lat="42.96497" lon="0.2975">
        <ele>1513</ele>
        <time>2018-12-11T14:18:46Z</time>
      </trkpt>
      <trkpt lat="42.96493" lon="0.29751">
        <ele>1513</ele>
        <time>2018-12-11T14:18:51Z</time>
      </trkpt>
      <trkpt lat="42.96489" lon="0.29749">
        <ele>1512</ele>
        <time>2018-12-11T14:18:58Z</time>
      </trkpt>
      <trkpt lat="42.96486" lon="0.29748">
        <ele>1511</ele>
        <time>2018-12-11T14:19:04Z</time>
      </trkpt>
      <trkpt lat="42.96481" lon="0.29748">
        <ele>1511</ele>
        <time>2018-12-11T14:19:10Z</time>
      </trkpt>
      <trkpt lat="42.96477" lon="0.29747">
        <ele>1510</ele>
        <time>2018-12-11T14:19:22Z</time>
      </trkpt>
      <trkpt lat="42.96474" lon="0.29747">
        <ele>1509</ele>
        <time>2018-12-11T14:19:26Z</time>
      </trkpt>
      <trkpt lat="42.9647" lon="0.29748">
        <ele>1509</ele>
        <time>2018-12-11T14:19:30Z</time>
      </trkpt>
      <trkpt lat="42.96463" lon="0.29749">
        <ele>1508</ele>
        <time>2018-12-11T14:19:39Z</time>
      </trkpt>
      <trkpt lat="42.96459" lon="0.29748">
        <ele>1507</ele>
        <time>2018-12-11T14:19:48Z</time>
      </trkpt>
      <trkpt lat="42.96452" lon="0.29751">
        <ele>1506</ele>
        <time>2018-12-11T14:19:57Z</time>
      </trkpt>
      <trkpt lat="42.96448" lon="0.29753">
        <ele>1505</ele>
        <time>2018-12-11T14:20:03Z</time>
      </trkpt>
      <trkpt lat="42.96445" lon="0.29754">
        <ele>1504</ele>
        <time>2018-12-11T14:20:09Z</time>
      </trkpt>
      <trkpt lat="42.9644" lon="0.2976">
        <ele>1503</ele>
        <time>2018-12-11T14:20:16Z</time>
      </trkpt>
      <trkpt lat="42.96436" lon="0.29761">
        <ele>1502</ele>
        <time>2018-12-11T14:20:25Z</time>
      </trkpt>
      <trkpt lat="42.96433" lon="0.29761">
        <ele>1499</ele>
        <time>2018-12-11T14:20:33Z</time>
      </trkpt>
      <trkpt lat="42.96429" lon="0.29759">
        <ele>1498</ele>
        <time>2018-12-11T14:20:40Z</time>
      </trkpt>
      <trkpt lat="42.96425" lon="0.29762">
        <ele>1496</ele>
        <time>2018-12-11T14:20:45Z</time>
      </trkpt>
      <trkpt lat="42.96417" lon="0.29765">
        <ele>1493</ele>
        <time>2018-12-11T14:20:52Z</time>
      </trkpt>
      <trkpt lat="42.96412" lon="0.29767">
        <ele>1493</ele>
        <time>2018-12-11T14:20:56Z</time>
      </trkpt>
      <trkpt lat="42.96404" lon="0.29791">
        <ele>1486</ele>
        <time>2018-12-11T14:21:19Z</time>
      </trkpt>
      <trkpt lat="42.96404" lon="0.29796">
        <ele>1485</ele>
        <time>2018-12-11T14:21:22Z</time>
      </trkpt>
      <trkpt lat="42.96402" lon="0.29802">
        <ele>1484</ele>
        <time>2018-12-11T14:21:26Z</time>
      </trkpt>
      <trkpt lat="42.96402" lon="0.29808">
        <ele>1483</ele>
        <time>2018-12-11T14:21:31Z</time>
      </trkpt>
      <trkpt lat="42.96401" lon="0.29813">
        <ele>1482</ele>
        <time>2018-12-11T14:21:35Z</time>
      </trkpt>
      <trkpt lat="42.96399" lon="0.29818">
        <ele>1478</ele>
        <time>2018-12-11T14:22:40Z</time>
      </trkpt>
      <trkpt lat="42.96398" lon="0.29823">
        <ele>1478</ele>
        <time>2018-12-11T14:22:46Z</time>
      </trkpt>
      <trkpt lat="42.96399" lon="0.29838">
        <ele>1474</ele>
        <time>2018-12-11T14:22:56Z</time>
      </trkpt>
      <trkpt lat="42.96399" lon="0.29844">
        <ele>1474</ele>
        <time>2018-12-11T14:23:00Z</time>
      </trkpt>
      <trkpt lat="42.96394" lon="0.29852">
        <ele>1473</ele>
        <time>2018-12-11T14:23:19Z</time>
      </trkpt>
      <trkpt lat="42.96392" lon="0.29856">
        <ele>1471</ele>
        <time>2018-12-11T14:23:24Z</time>
      </trkpt>
      <trkpt lat="42.96392" lon="0.29873">
        <ele>1470</ele>
        <time>2018-12-11T14:23:33Z</time>
      </trkpt>
      <trkpt lat="42.96396" lon="0.29901">
        <ele>1467</ele>
        <time>2018-12-11T14:23:50Z</time>
      </trkpt>
      <trkpt lat="42.96395" lon="0.29907">
        <ele>1467</ele>
        <time>2018-12-11T14:23:55Z</time>
      </trkpt>
      <trkpt lat="42.96393" lon="0.29911">
        <ele>1467</ele>
        <time>2018-12-11T14:24:07Z</time>
      </trkpt>
      <trkpt lat="42.9639" lon="0.29915">
        <ele>1466</ele>
        <time>2018-12-11T14:24:16Z</time>
      </trkpt>
      <trkpt lat="42.96387" lon="0.29919">
        <ele>1465</ele>
        <time>2018-12-11T14:25:03Z</time>
      </trkpt>
      <trkpt lat="42.96386" lon="0.29929">
        <ele>1464</ele>
        <time>2018-12-11T14:25:12Z</time>
      </trkpt>
      <trkpt lat="42.96386" lon="0.29934">
        <ele>1463</ele>
        <time>2018-12-11T14:25:18Z</time>
      </trkpt>
      <trkpt lat="42.96395" lon="0.29961">
        <ele>1461</ele>
        <time>2018-12-11T14:25:36Z</time>
      </trkpt>
      <trkpt lat="42.96398" lon="0.29978">
        <ele>1461</ele>
        <time>2018-12-11T14:25:45Z</time>
      </trkpt>
      <trkpt lat="42.96412" lon="0.30002">
        <ele>1459</ele>
        <time>2018-12-11T14:26:02Z</time>
      </trkpt>
      <trkpt lat="42.96414" lon="0.30008">
        <ele>1459</ele>
        <time>2018-12-11T14:26:07Z</time>
      </trkpt>
      <trkpt lat="42.96418" lon="0.30012">
        <ele>1459</ele>
        <time>2018-12-11T14:26:11Z</time>
      </trkpt>
      <trkpt lat="42.96419" lon="0.30018">
        <ele>1458</ele>
        <time>2018-12-11T14:26:15Z</time>
      </trkpt>
      <trkpt lat="42.96416" lon="0.30028">
        <ele>1458</ele>
        <time>2018-12-11T14:26:25Z</time>
      </trkpt>
      <trkpt lat="42.9642" lon="0.30039">
        <ele>1458</ele>
        <time>2018-12-11T14:26:33Z</time>
      </trkpt>
      <trkpt lat="42.9642" lon="0.30046">
        <ele>1457</ele>
        <time>2018-12-11T14:26:36Z</time>
      </trkpt>
      <trkpt lat="42.96424" lon="0.30058">
        <ele>1457</ele>
        <time>2018-12-11T14:26:41Z</time>
      </trkpt>
      <trkpt lat="42.96424" lon="0.30063">
        <ele>1457</ele>
        <time>2018-12-11T14:26:44Z</time>
      </trkpt>
      <trkpt lat="42.96424" lon="0.30069">
        <ele>1457</ele>
        <time>2018-12-11T14:26:48Z</time>
      </trkpt>
      <trkpt lat="42.96424" lon="0.30074">
        <ele>1457</ele>
        <time>2018-12-11T14:26:52Z</time>
      </trkpt>
      <trkpt lat="42.96428" lon="0.30085">
        <ele>1457</ele>
        <time>2018-12-11T14:27:00Z</time>
      </trkpt>
      <trkpt lat="42.96432" lon="0.30089">
        <ele>1456</ele>
        <time>2018-12-11T14:27:03Z</time>
      </trkpt>
      <trkpt lat="42.96434" lon="0.30094">
        <ele>1456</ele>
        <time>2018-12-11T14:27:07Z</time>
      </trkpt>
      <trkpt lat="42.96434" lon="0.301">
        <ele>1456</ele>
        <time>2018-12-11T14:27:10Z</time>
      </trkpt>
      <trkpt lat="42.96434" lon="0.30105">
        <ele>1456</ele>
        <time>2018-12-11T14:27:13Z</time>
      </trkpt>
      <trkpt lat="42.96436" lon="0.30122">
        <ele>1456</ele>
        <time>2018-12-11T14:27:26Z</time>
      </trkpt>
      <trkpt lat="42.96438" lon="0.30139">
        <ele>1455</ele>
        <time>2018-12-11T14:27:33Z</time>
      </trkpt>
      <trkpt lat="42.96439" lon="0.30146">
        <ele>1455</ele>
        <time>2018-12-11T14:27:36Z</time>
      </trkpt>
      <trkpt lat="42.9644" lon="0.30153">
        <ele>1455</ele>
        <time>2018-12-11T14:27:39Z</time>
      </trkpt>
      <trkpt lat="42.96442" lon="0.30164">
        <ele>1455</ele>
        <time>2018-12-11T14:27:45Z</time>
      </trkpt>
      <trkpt lat="42.96445" lon="0.30179">
        <ele>1454</ele>
        <time>2018-12-11T14:27:56Z</time>
      </trkpt>
      <trkpt lat="42.96446" lon="0.30194">
        <ele>1454</ele>
        <time>2018-12-11T14:28:05Z</time>
      </trkpt>
      <trkpt lat="42.96446" lon="0.30199">
        <ele>1454</ele>
        <time>2018-12-11T14:28:08Z</time>
      </trkpt>
      <trkpt lat="42.96447" lon="0.30206">
        <ele>1454</ele>
        <time>2018-12-11T14:28:12Z</time>
      </trkpt>
      <trkpt lat="42.9645" lon="0.30217">
        <ele>1453</ele>
        <time>2018-12-11T14:28:19Z</time>
      </trkpt>
      <trkpt lat="42.96447" lon="0.30239">
        <ele>1452</ele>
        <time>2018-12-11T14:28:37Z</time>
      </trkpt>
      <trkpt lat="42.96453" lon="0.3025">
        <ele>1452</ele>
        <time>2018-12-11T14:28:44Z</time>
      </trkpt>
      <trkpt lat="42.96456" lon="0.3026">
        <ele>1451</ele>
        <time>2018-12-11T14:28:50Z</time>
      </trkpt>
      <trkpt lat="42.96456" lon="0.30272">
        <ele>1451</ele>
        <time>2018-12-11T14:28:56Z</time>
      </trkpt>
      <trkpt lat="42.96457" lon="0.30282">
        <ele>1450</ele>
        <time>2018-12-11T14:29:04Z</time>
      </trkpt>
      <trkpt lat="42.96457" lon="0.30286">
        <ele>1450</ele>
        <time>2018-12-11T14:29:07Z</time>
      </trkpt>
      <trkpt lat="42.96456" lon="0.30289">
        <ele>1450</ele>
        <time>2018-12-11T14:29:09Z</time>
      </trkpt>
      <trkpt lat="42.96455" lon="0.30294">
        <ele>1450</ele>
        <time>2018-12-11T14:29:12Z</time>
      </trkpt>
      <trkpt lat="42.96454" lon="0.30305">
        <ele>1449</ele>
        <time>2018-12-11T14:29:20Z</time>
      </trkpt>
      <trkpt lat="42.96447" lon="0.30309">
        <ele>1449</ele>
        <time>2018-12-11T14:29:27Z</time>
      </trkpt>
      <trkpt lat="42.96445" lon="0.30312">
        <ele>1449</ele>
        <time>2018-12-11T14:29:41Z</time>
      </trkpt>
      <trkpt lat="42.96448" lon="0.30316">
        <ele>1448</ele>
        <time>2018-12-11T14:29:45Z</time>
      </trkpt>
      <trkpt lat="42.96449" lon="0.30321">
        <ele>1448</ele>
        <time>2018-12-11T14:29:51Z</time>
      </trkpt>
      <trkpt lat="42.96452" lon="0.30329">
        <ele>1447</ele>
        <time>2018-12-11T14:29:57Z</time>
      </trkpt>
      <trkpt lat="42.96447" lon="0.30346">
        <ele>1446</ele>
        <time>2018-12-11T14:30:07Z</time>
      </trkpt>
      <trkpt lat="42.96444" lon="0.30351">
        <ele>1446</ele>
        <time>2018-12-11T14:30:10Z</time>
      </trkpt>
      <trkpt lat="42.96443" lon="0.30355">
        <ele>1445</ele>
        <time>2018-12-11T14:30:12Z</time>
      </trkpt>
      <trkpt lat="42.96442" lon="0.30358">
        <ele>1445</ele>
        <time>2018-12-11T14:30:14Z</time>
      </trkpt>
      <trkpt lat="42.96438" lon="0.30367">
        <ele>1445</ele>
        <time>2018-12-11T14:30:20Z</time>
      </trkpt>
      <trkpt lat="42.96434" lon="0.30375">
        <ele>1444</ele>
        <time>2018-12-11T14:30:26Z</time>
      </trkpt>
      <trkpt lat="42.96433" lon="0.3038">
        <ele>1444</ele>
        <time>2018-12-11T14:30:30Z</time>
      </trkpt>
      <trkpt lat="42.96427" lon="0.30397">
        <ele>1443</ele>
        <time>2018-12-11T14:30:42Z</time>
      </trkpt>
      <trkpt lat="42.96419" lon="0.30417">
        <ele>1441</ele>
        <time>2018-12-11T14:30:59Z</time>
      </trkpt>
      <trkpt lat="42.96417" lon="0.30421">
        <ele>1441</ele>
        <time>2018-12-11T14:31:04Z</time>
      </trkpt>
      <trkpt lat="42.96416" lon="0.30427">
        <ele>1440</ele>
        <time>2018-12-11T14:31:09Z</time>
      </trkpt>
      <trkpt lat="42.96416" lon="0.30438">
        <ele>1439</ele>
        <time>2018-12-11T14:31:30Z</time>
      </trkpt>
      <trkpt lat="42.96416" lon="0.30452">
        <ele>1438</ele>
        <time>2018-12-11T14:31:41Z</time>
      </trkpt>
      <trkpt lat="42.96417" lon="0.3046">
        <ele>1438</ele>
        <time>2018-12-11T14:31:47Z</time>
      </trkpt>
      <trkpt lat="42.96426" lon="0.305">
        <ele>1436</ele>
        <time>2018-12-11T14:32:19Z</time>
      </trkpt>
      <trkpt lat="42.96427" lon="0.30503">
        <ele>1436</ele>
        <time>2018-12-11T14:32:21Z</time>
      </trkpt>
      <trkpt lat="42.96432" lon="0.30532">
        <ele>1434</ele>
        <time>2018-12-11T14:32:44Z</time>
      </trkpt>
      <trkpt lat="42.96432" lon="0.30538">
        <ele>1434</ele>
        <time>2018-12-11T14:32:49Z</time>
      </trkpt>
      <trkpt lat="42.9643" lon="0.30544">
        <ele>1434</ele>
        <time>2018-12-11T14:32:59Z</time>
      </trkpt>
      <trkpt lat="42.96429" lon="0.30547">
        <ele>1433</ele>
        <time>2018-12-11T14:33:01Z</time>
      </trkpt>
      <trkpt lat="42.96428" lon="0.3055">
        <ele>1433</ele>
        <time>2018-12-11T14:33:03Z</time>
      </trkpt>
      <trkpt lat="42.96427" lon="0.30552">
        <ele>1433</ele>
        <time>2018-12-11T14:33:05Z</time>
      </trkpt>
      <trkpt lat="42.96427" lon="0.30555">
        <ele>1433</ele>
        <time>2018-12-11T14:33:07Z</time>
      </trkpt>
      <trkpt lat="42.96426" lon="0.30564">
        <ele>1432</ele>
        <time>2018-12-11T14:33:14Z</time>
      </trkpt>
      <trkpt lat="42.96426" lon="0.30567">
        <ele>1432</ele>
        <time>2018-12-11T14:33:17Z</time>
      </trkpt>
      <trkpt lat="42.96426" lon="0.3057">
        <ele>1432</ele>
        <time>2018-12-11T14:33:19Z</time>
      </trkpt>
      <trkpt lat="42.96426" lon="0.30576">
        <ele>1432</ele>
        <time>2018-12-11T14:33:24Z</time>
      </trkpt>
      <trkpt lat="42.96428" lon="0.30584">
        <ele>1431</ele>
        <time>2018-12-11T14:33:31Z</time>
      </trkpt>
      <trkpt lat="42.96429" lon="0.30587">
        <ele>1431</ele>
        <time>2018-12-11T14:33:33Z</time>
      </trkpt>
      <trkpt lat="42.9643" lon="0.3059">
        <ele>1431</ele>
        <time>2018-12-11T14:33:36Z</time>
      </trkpt>
      <trkpt lat="42.96431" lon="0.30593">
        <ele>1431</ele>
        <time>2018-12-11T14:33:38Z</time>
      </trkpt>
      <trkpt lat="42.96432" lon="0.30601">
        <ele>1430</ele>
        <time>2018-12-11T14:33:44Z</time>
      </trkpt>
      <trkpt lat="42.96433" lon="0.30603">
        <ele>1430</ele>
        <time>2018-12-11T14:33:46Z</time>
      </trkpt>
      <trkpt lat="42.96434" lon="0.30605">
        <ele>1430</ele>
        <time>2018-12-11T14:33:48Z</time>
      </trkpt>
      <trkpt lat="42.96434" lon="0.30608">
        <ele>1430</ele>
        <time>2018-12-11T14:33:50Z</time>
      </trkpt>
      <trkpt lat="42.96434" lon="0.30611">
        <ele>1430</ele>
        <time>2018-12-11T14:33:52Z</time>
      </trkpt>
      <trkpt lat="42.96431" lon="0.30627">
        <ele>1430</ele>
        <time>2018-12-11T14:34:02Z</time>
      </trkpt>
      <trkpt lat="42.96427" lon="0.30636">
        <ele>1429</ele>
        <time>2018-12-11T14:34:08Z</time>
      </trkpt>
      <trkpt lat="42.96417" lon="0.30669">
        <ele>1428</ele>
        <time>2018-12-11T14:34:33Z</time>
      </trkpt>
      <trkpt lat="42.96417" lon="0.30672">
        <ele>1428</ele>
        <time>2018-12-11T14:34:35Z</time>
      </trkpt>
      <trkpt lat="42.96417" lon="0.30679">
        <ele>1428</ele>
        <time>2018-12-11T14:34:40Z</time>
      </trkpt>
      <trkpt lat="42.96416" lon="0.30681">
        <ele>1428</ele>
        <time>2018-12-11T14:34:42Z</time>
      </trkpt>
      <trkpt lat="42.96416" lon="0.30684">
        <ele>1428</ele>
        <time>2018-12-11T14:34:44Z</time>
      </trkpt>
      <trkpt lat="42.96419" lon="0.30721">
        <ele>1427</ele>
        <time>2018-12-11T14:35:10Z</time>
      </trkpt>
      <trkpt lat="42.96417" lon="0.30738">
        <ele>1427</ele>
        <time>2018-12-11T14:35:20Z</time>
      </trkpt>
      <trkpt lat="42.96411" lon="0.30752">
        <ele>1426</ele>
        <time>2018-12-11T14:35:30Z</time>
      </trkpt>
      <trkpt lat="42.96403" lon="0.30764">
        <ele>1426</ele>
        <time>2018-12-11T14:35:40Z</time>
      </trkpt>
      <trkpt lat="42.96393" lon="0.30772">
        <ele>1426</ele>
        <time>2018-12-11T14:35:50Z</time>
      </trkpt>
      <trkpt lat="42.96379" lon="0.30781">
        <ele>1426</ele>
        <time>2018-12-11T14:36:04Z</time>
      </trkpt>
      <trkpt lat="42.96376" lon="0.30782">
        <ele>1426</ele>
        <time>2018-12-11T14:36:06Z</time>
      </trkpt>
      <trkpt lat="42.96374" lon="0.30784">
        <ele>1426</ele>
        <time>2018-12-11T14:36:08Z</time>
      </trkpt>
      <trkpt lat="42.96372" lon="0.30785">
        <ele>1426</ele>
        <time>2018-12-11T14:36:10Z</time>
      </trkpt>
      <trkpt lat="42.9637" lon="0.30786">
        <ele>1426</ele>
        <time>2018-12-11T14:36:12Z</time>
      </trkpt>
      <trkpt lat="42.96368" lon="0.30788">
        <ele>1426</ele>
        <time>2018-12-11T14:36:14Z</time>
      </trkpt>
      <trkpt lat="42.96366" lon="0.30788">
        <ele>1426</ele>
        <time>2018-12-11T14:36:16Z</time>
      </trkpt>
      <trkpt lat="42.96335" lon="0.30808">
        <ele>1425</ele>
        <time>2018-12-11T14:36:46Z</time>
      </trkpt>
      <trkpt lat="42.96325" lon="0.30815">
        <ele>1425</ele>
        <time>2018-12-11T14:36:56Z</time>
      </trkpt>
      <trkpt lat="42.96322" lon="0.3082">
        <ele>1425</ele>
        <time>2018-12-11T14:37:00Z</time>
      </trkpt>
      <trkpt lat="42.96318" lon="0.30825">
        <ele>1425</ele>
        <time>2018-12-11T14:37:06Z</time>
      </trkpt>
      <trkpt lat="42.963" lon="0.30853">
        <ele>1425</ele>
        <time>2018-12-11T14:37:30Z</time>
      </trkpt>
      <trkpt lat="42.96299" lon="0.30856">
        <ele>1425</ele>
        <time>2018-12-11T14:37:32Z</time>
      </trkpt>
      <trkpt lat="42.96296" lon="0.30861">
        <ele>1425</ele>
        <time>2018-12-11T14:37:36Z</time>
      </trkpt>
      <trkpt lat="42.96291" lon="0.30874">
        <ele>1425</ele>
        <time>2018-12-11T14:37:46Z</time>
      </trkpt>
      <trkpt lat="42.9629" lon="0.30877">
        <ele>1425</ele>
        <time>2018-12-11T14:37:48Z</time>
      </trkpt>
      <trkpt lat="42.9629" lon="0.30879">
        <ele>1425</ele>
        <time>2018-12-11T14:38:05Z</time>
      </trkpt>
      <trkpt lat="42.9629" lon="0.30885">
        <ele>1425</ele>
        <time>2018-12-11T14:38:09Z</time>
      </trkpt>
      <trkpt lat="42.96291" lon="0.30889">
        <ele>1425</ele>
        <time>2018-12-11T14:38:11Z</time>
      </trkpt>
      <trkpt lat="42.96292" lon="0.30892">
        <ele>1425</ele>
        <time>2018-12-11T14:38:13Z</time>
      </trkpt>
      <trkpt lat="42.9629" lon="0.30895">
        <ele>1425</ele>
        <time>2018-12-11T14:38:16Z</time>
      </trkpt>
      <trkpt lat="42.96291" lon="0.30897">
        <ele>1425</ele>
        <time>2018-12-11T14:38:18Z</time>
      </trkpt>
      <trkpt lat="42.96291" lon="0.309">
        <ele>1425</ele>
        <time>2018-12-11T14:38:20Z</time>
      </trkpt>
      <trkpt lat="42.96292" lon="0.30903">
        <ele>1425</ele>
        <time>2018-12-11T14:38:22Z</time>
      </trkpt>
      <trkpt lat="42.96295" lon="0.30908">
        <ele>1425</ele>
        <time>2018-12-11T14:38:26Z</time>
      </trkpt>
      <trkpt lat="42.96299" lon="0.30929">
        <ele>1425</ele>
        <time>2018-12-11T14:38:41Z</time>
      </trkpt>
      <trkpt lat="42.963" lon="0.30931">
        <ele>1425</ele>
        <time>2018-12-11T14:38:43Z</time>
      </trkpt>
      <trkpt lat="42.963" lon="0.30934">
        <ele>1425</ele>
        <time>2018-12-11T14:38:45Z</time>
      </trkpt>
      <trkpt lat="42.96301" lon="0.30937">
        <ele>1425</ele>
        <time>2018-12-11T14:38:47Z</time>
      </trkpt>
      <trkpt lat="42.96301" lon="0.30941">
        <ele>1425</ele>
        <time>2018-12-11T14:38:50Z</time>
      </trkpt>
      <trkpt lat="42.96302" lon="0.30944">
        <ele>1425</ele>
        <time>2018-12-11T14:38:52Z</time>
      </trkpt>
      <trkpt lat="42.96302" lon="0.30947">
        <ele>1425</ele>
        <time>2018-12-11T14:38:54Z</time>
      </trkpt>
      <trkpt lat="42.96304" lon="0.30963">
        <ele>1425</ele>
        <time>2018-12-11T14:39:05Z</time>
      </trkpt>
      <trkpt lat="42.96304" lon="0.30965">
        <ele>1425</ele>
        <time>2018-12-11T14:39:07Z</time>
      </trkpt>
      <trkpt lat="42.96303" lon="0.30968">
        <ele>1425</ele>
        <time>2018-12-11T14:39:09Z</time>
      </trkpt>
    </trkseg>
  </trk>
</gpx>